[[{"header":{"parameterUnit":"m.s-1","parameterCategory":1,"la1":30.6,"la2":29.2853,"lo1":-89.7004,"lo2":-87.6739,"dy":0.0162,"dx":0.0183,"nx":112,"ny":82,"refTime":"2023-05-18T12:00:00:Z","depth":0,"parameterNumber":2,"parameterNumberName":"U-component_of_WINDS"},"data":[0.0,0.0,0.0,0.0,0.0,0.0,0.0,0.0,0.0,0.0,0.0,0.0,0.0,0.0,0.0,0.0,0.0,0.0,0.0,0.0,0.0,0.0,0.0,0.0,0.0,0.0,0.0,0.0,0.0,0.0,0.0,0.0,0.0,0.0,0.0,0.0,0.0,0.0,0.0,0.0,0.0,0.0,0.0,0.0,0.0,0.0,0.0,0.0,0.0,0.0,0.0,0.0,0.0,0.0,0.0,0.0,0.0,0.0,0.0,0.0,0.0,0.0,0.0,0.0,0.0,0.0,0.0,0.0,0.0,0.0,0.0,0.0,0.0,0.0,0.0,0.0,0.0,0.0,0.0,0.0,0.0,0.0,0.0,0.0,0.0,0.0,0.0,0.0,0.0,0.0,0.0,2.3078,2.3078,2.3078,2.3078,2.3078,2.3078,2.3078,0.0,0.0,0.0,0.0,0.0,0.0,0.0,0.0,0.0,0.0,0.0,0.0,0.0,0.0,0.0,0.0,0.0,0.0,0.0,0.0,0.0,0.0,0.0,0.0,0.0,0.0,0.0,0.0,0.0,0.0,0.0,0.0,0.0,0.0,0.0,0.0,0.0,0.0,0.0,0.0,0.0,0.0,0.0,0.0,0.0,0.0,0.0,0.0,0.0,0.0,0.0,0.0,0.0,0.0,0.0,0.0,0.0,0.0,0.0,0.0,0.0,0.0,0.0,0.0,0.0,0.0,0.0,0.0,0.0,0.0,0.0,0.0,0.0,0.0,0.0,0.0,0.0,0.0,0.0,0.0,0.0,0.0,0.0,0.0,0.0,0.0,0.0,0.0,0.0,0.0,0.0,0.0,0.0,0.0,0.0,0.0,0.0,0.0,0.0,0.0,0.0,0.0,0.0,0.0,2.3078,2.3078,2.3078,2.3078,2.3078,2.3078,2.3078,2.3078,0.0,0.0,0.0,0.0,0.0,0.0,0.0,0.0,0.0,0.0,0.0,0.0,0.0,0.0,0.0,0.0,0.0,0.0,0.0,0.0,0.0,0.0,0.0,0.0,0.0,0.0,0.0,0.0,0.0,0.0,0.0,0.0,0.0,0.0,0.0,0.0,0.0,0.0,0.0,0.0,0.0,0.0,0.0,0.0,0.0,0.0,0.0,0.0,0.0,0.0,0.0,0.0,0.0,0.0,0.0,0.0,0.0,0.0,0.0,0.0,0.0,0.0,0.0,0.0,0.0,0.0,0.0,0.0,0.0,0.0,0.0,0.0,0.0,0.0,0.0,0.0,0.0,0.0,0.0,0.0,0.0,0.0,0.0,0.0,0.0,0.0,0.0,0.0,0.0,0.0,0.0,0.0,0.0,0.0,0.0,0.0,0.0,0.0,0.0,0.0,0.0,0.0,0.0,2.3078,2.3078,2.3078,2.3078,2.3078,2.3078,2.3078,2.3078,2.3078,2.2002,0.0,0.0,0.0,0.0,0.0,0.0,0.0,0.0,0.0,0.0,0.0,0.0,0.0,0.0,0.0,0.0,0.0,0.0,0.0,0.0,0.0,0.0,0.0,0.0,0.0,0.0,0.0,0.0,0.0,0.0,0.0,0.0,0.0,0.0,0.0,0.0,0.0,0.0,0.0,0.0,0.0,0.0,0.0,0.0,0.0,0.0,0.0,0.0,0.0,0.0,0.0,0.0,0.0,0.0,0.0,0.0,0.0,0.0,0.0,0.0,0.0,0.0,0.0,0.0,0.0,0.0,0.0,0.0,0.0,0.0,0.0,0.0,0.0,0.0,0.0,0.0,0.0,0.0,0.0,0.0,0.0,0.0,0.0,0.0,0.0,0.0,0.0,0.0,0.0,0.0,0.0,0.0,0.0,0.0,0.0,0.0,0.0,0.0,0.0,0.0,0.0,0.0,2.3078,2.3078,2.3078,2.3078,2.3078,2.3078,2.3078,2.3078,2.3078,2.2322,0.0,0.0,0.0,0.0,0.0,0.0,0.0,0.0,0.0,0.0,0.0,0.0,0.0,0.0,0.0,0.0,0.0,0.0,0.0,0.0,0.0,0.0,0.0,0.0,0.0,0.0,0.0,0.0,0.0,0.0,0.0,0.0,0.0,0.0,0.0,0.0,0.0,0.0,0.0,0.0,0.0,0.0,0.0,0.0,0.0,0.0,0.0,0.0,0.0,0.0,0.0,0.0,0.0,0.0,0.0,0.0,0.0,0.0,0.0,0.0,0.0,0.0,0.0,0.0,0.0,0.0,0.0,0.0,0.0,0.0,0.0,0.0,0.0,0.0,0.0,0.0,0.0,0.0,0.0,0.0,0.0,0.0,0.0,0.0,0.0,0.0,0.0,0.0,0.0,0.0,0.0,0.0,0.0,0.0,0.0,0.0,0.0,0.0,0.0,0.0,0.0,0.0,2.3078,2.3078,2.3078,2.3078,2.3078,2.3078,2.3078,2.3078,2.3078,2.2322,0.0,0.0,0.0,0.0,0.0,0.0,0.0,0.0,0.0,0.0,0.0,0.0,0.0,0.0,0.0,0.0,0.0,0.0,0.0,0.0,0.0,0.0,0.0,0.0,0.0,0.0,0.0,0.0,0.0,0.0,0.0,0.0,0.0,0.0,0.0,0.0,0.0,0.0,0.0,0.0,0.0,0.0,0.0,0.0,0.0,0.0,0.0,0.0,0.0,0.0,0.0,0.0,0.0,0.0,0.0,0.0,0.0,0.0,0.0,0.0,0.0,0.0,0.0,0.0,0.0,0.0,0.0,0.0,0.0,0.0,0.0,0.0,0.0,0.0,0.0,0.0,0.0,0.0,0.0,0.0,0.0,0.0,0.0,0.0,0.0,0.0,0.0,0.0,0.0,0.0,0.0,0.0,0.0,0.0,0.0,0.0,0.0,0.0,0.0,0.0,0.0,0.0,2.3078,2.3078,0.0,2.3078,2.3078,2.3078,2.3078,2.3288,2.3653,0.0,0.0,0.0,0.0,0.0,0.0,0.0,0.0,0.0,0.0,0.0,0.0,0.0,0.0,0.0,0.0,0.0,0.0,0.0,0.0,0.0,0.0,0.0,0.0,0.0,0.0,0.0,0.0,0.0,0.0,0.0,0.0,0.0,0.0,0.0,0.0,0.0,0.0,0.0,0.0,0.0,0.0,0.0,0.0,0.0,0.0,0.0,0.0,0.0,0.0,0.0,0.0,0.0,0.0,0.0,0.0,0.0,0.0,0.0,0.0,0.0,0.0,0.0,0.0,0.0,0.0,0.0,0.0,0.0,0.0,0.0,0.0,0.0,0.0,0.0,0.0,0.0,0.0,0.0,0.0,0.0,0.0,0.0,0.0,0.0,0.0,0.0,0.0,0.0,0.0,0.0,0.0,0.0,0.0,0.0,0.0,0.0,0.0,0.0,0.0,0.0,0.0,2.3078,2.3078,2.3078,0.0,2.3301,2.3414,2.3414,2.3565,2.3841,2.4243,0.0,0.0,0.0,0.0,0.0,0.0,0.0,0.0,0.0,0.0,0.0,0.0,0.0,0.0,0.0,0.0,0.0,0.0,0.0,0.0,0.0,0.0,0.0,0.0,0.0,0.0,0.0,0.0,0.0,0.0,0.0,0.0,0.0,0.0,0.0,0.0,0.0,0.0,0.0,0.0,0.0,0.0,0.0,0.0,0.0,0.0,0.0,0.0,0.0,0.0,0.0,0.0,0.0,0.0,0.0,0.0,0.0,0.0,0.0,0.0,0.0,0.0,0.0,0.0,0.0,0.0,0.0,0.0,0.0,0.0,0.0,0.0,0.0,0.0,0.0,0.0,0.0,0.0,0.0,0.0,0.0,0.0,0.0,0.0,0.0,0.0,0.0,0.0,0.0,0.0,0.0,0.0,0.0,0.0,0.0,0.0,0.0,0.0,0.0,0.0,0.0,0.0,2.3078,2.3078,2.3078,2.3078,2.3653,2.4004,2.4004,2.4506,2.482,0.0,0.0,0.0,0.0,0.0,0.0,0.0,0.0,0.0,0.0,0.0,0.0,0.0,0.0,0.0,0.0,0.0,0.0,0.0,0.0,0.0,0.0,0.0,0.0,0.0,0.0,0.0,0.0,0.0,0.0,0.0,0.0,0.0,0.0,0.0,0.0,0.0,0.0,0.0,0.0,0.0,0.0,0.0,0.0,0.0,0.0,0.0,0.0,0.0,0.0,0.0,0.0,0.0,0.0,0.0,0.0,0.0,0.0,0.0,0.0,0.0,0.0,0.0,0.0,0.0,0.0,0.0,0.0,0.0,0.0,0.0,0.0,0.0,0.0,0.0,0.0,0.0,0.0,0.0,0.0,0.0,0.0,0.0,0.0,0.0,0.0,0.0,0.0,0.0,0.0,0.0,0.0,0.0,0.0,0.0,0.0,0.0,0.0,0.0,0.0,0.0,0.0,0.0,2.3078,2.3078,2.3288,2.3703,2.3891,2.4155,2.4544,2.4732,2.4971,2.5347,0.0,0.0,0.0,0.0,0.0,0.0,0.0,0.0,0.0,0.0,0.0,0.0,0.0,0.0,0.0,0.0,0.0,0.0,0.0,0.0,0.0,0.0,0.0,0.0,0.0,0.0,0.0,0.0,0.0,0.0,0.0,0.0,0.0,0.0,0.0,0.0,0.0,0.0,0.0,0.0,0.0,0.0,0.0,0.0,0.0,0.0,0.0,0.0,0.0,0.0,0.0,0.0,0.0,0.0,0.0,0.0,0.0,0.0,0.0,0.0,0.0,0.0,0.0,0.0,0.0,0.0,0.0,0.0,0.0,0.0,0.0,0.0,0.0,0.0,0.0,0.0,0.0,0.0,0.0,0.0,0.0,0.0,0.0,0.0,0.0,0.0,0.0,0.0,0.0,0.0,0.0,0.0,0.0,0.0,0.0,0.0,0.0,0.0,0.0,0.0,0.0,0.0,2.3078,2.3339,2.3615,2.3966,2.4381,2.477,2.5096,2.5335,2.5611,2.5925,0.0,0.0,0.0,0.0,0.0,0.0,0.0,0.0,0.0,0.0,0.0,0.0,0.0,0.0,0.0,0.0,0.0,0.0,0.0,0.0,0.0,0.0,0.0,0.0,0.0,0.0,0.0,0.0,0.0,0.0,0.0,0.0,0.0,0.0,0.0,0.0,0.0,0.0,0.0,0.0,0.0,0.0,0.0,0.0,0.0,0.0,0.0,0.0,0.0,0.0,0.0,0.0,0.0,0.0,0.0,0.0,0.0,0.0,0.0,0.0,0.0,0.0,0.0,0.0,0.0,0.0,0.0,0.0,0.0,0.0,0.0,0.0,0.0,0.0,0.0,0.0,0.0,0.0,0.0,0.0,0.0,0.0,0.0,0.0,0.0,0.0,0.0,0.0,0.0,0.0,0.0,0.0,0.0,0.0,0.0,0.0,0.0,0.0,0.0,0.0,0.0,0.0,2.3213,2.3665,2.4042,2.413,2.5021,2.5624,2.5674,2.6163,2.6533,2.6533,0.0,0.0,0.0,0.0,0.0,0.0,0.0,0.0,0.0,0.0,0.0,0.0,0.0,0.0,0.0,0.0,0.0,0.0,0.0,0.0,0.0,0.0,0.0,0.0,0.0,0.0,0.0,0.0,0.0,0.0,0.0,0.0,0.0,0.0,0.0,0.0,0.0,0.0,0.0,0.0,0.0,0.0,0.0,0.0,0.0,0.0,0.0,0.0,0.0,0.0,0.0,0.0,0.0,0.0,0.0,0.0,0.0,0.0,0.0,0.0,2.4617,0.0,0.0,0.0,0.0,0.0,0.0,0.0,0.0,0.0,0.0,0.0,0.0,0.0,0.0,0.0,0.0,0.0,0.0,0.0,0.0,0.0,0.0,0.0,0.0,0.0,0.0,0.0,0.0,0.0,0.0,0.0,0.0,0.0,0.0,0.0,0.0,0.0,0.0,0.0,0.0,0.0,2.3753,2.3916,2.4318,2.5172,2.546,2.5774,2.6239,2.6458,2.6533,2.6533,0.0,0.0,0.0,0.0,0.0,0.0,0.0,0.0,0.0,0.0,0.0,0.0,0.0,0.0,0.0,0.0,0.0,0.0,0.0,0.0,0.0,0.0,0.0,0.0,0.0,0.0,0.0,0.0,0.0,0.0,0.0,0.0,0.0,0.0,0.0,0.0,0.0,0.0,0.0,0.0,0.0,0.0,0.0,0.0,0.0,0.0,0.0,0.0,0.0,0.0,0.0,0.0,0.0,0.0,0.0,0.0,0.0,0.0,0.0,0.0,0.0,2.4672,0.0,0.0,0.0,0.0,0.0,0.0,0.0,0.0,0.0,0.0,0.0,0.0,0.0,0.0,0.0,0.0,0.0,0.0,0.0,0.0,0.0,0.0,0.0,0.0,0.0,0.0,0.0,0.0,0.0,0.0,0.0,0.0,0.0,0.0,0.0,0.0,0.0,0.0,0.0,0.0,2.4318,2.4607,2.4983,2.5536,2.585,2.6138,2.6496,2.6533,2.6533,2.6533,2.6533,0.0,0.0,0.0,0.0,0.0,0.0,0.0,0.0,0.0,0.0,0.0,0.0,0.0,0.0,0.0,0.0,0.0,0.0,0.0,0.0,0.0,0.0,0.0,0.0,0.0,0.0,0.0,0.0,0.0,0.0,0.0,0.0,0.0,0.0,0.0,0.0,0.0,0.0,0.0,0.0,0.0,0.0,0.0,0.0,0.0,0.0,0.0,0.0,0.0,0.0,0.0,0.0,0.0,0.0,2.4974,2.51,2.51,2.4923,2.4621,2.5073,2.4606,2.3638,0.0,0.0,0.0,0.0,0.0,0.0,0.0,0.0,0.0,0.0,0.0,0.0,0.0,0.0,0.0,0.0,0.0,0.0,0.0,0.0,0.0,0.0,0.0,0.0,0.0,2.3078,2.3078,0.0,0.0,0.0,0.0,0.0,0.0,0.0,0.0,0.0,0.0,0.0,0.0,2.487,2.5335,2.5636,2.5737,2.6176,2.6533,2.6533,2.6533,2.6533,2.6533,2.6533,2.6533,0.0,0.0,0.0,0.0,0.0,0.0,0.0,0.0,0.0,0.0,0.0,0.0,0.0,0.0,0.0,0.0,0.0,0.0,0.0,0.0,0.0,0.0,0.0,0.0,0.0,0.0,0.0,0.0,0.0,0.0,0.0,0.0,2.2917,2.3067,0.0,0.0,0.0,0.0,0.0,0.0,0.0,0.0,0.0,0.0,0.0,0.0,0.0,0.0,2.4387,2.4465,2.4511,2.4511,2.4032,2.4111,2.47,2.47,2.4972,2.5438,2.5515,0.0,2.3595,2.3681,0.0,0.0,0.0,0.0,0.0,0.0,0.0,0.0,0.0,0.0,0.0,0.0,0.0,0.0,0.0,0.0,0.0,0.0,0.0,0.0,0.0,0.0,2.3078,2.3078,2.3078,2.3078,0.0,2.3078,2.3078,2.3078,0.0,0.0,0.0,0.0,0.0,0.0,0.0,0.0,2.5372,2.5548,2.5787,2.6302,2.6483,2.6533,2.6533,2.6533,2.6533,2.6533,2.6533,2.6533,2.6533,2.6533,0.0,0.0,0.0,0.0,0.0,0.0,0.0,0.0,0.0,0.0,0.0,0.0,0.0,0.0,0.0,0.0,0.0,0.0,0.0,0.0,0.0,0.0,0.0,0.0,0.0,0.0,0.0,0.0,0.0,2.2916,2.3315,2.4154,2.4064,2.424,0.0,0.0,0.0,0.0,0.0,0.0,0.0,0.0,0.0,2.443,2.4694,2.474,2.4498,2.4878,2.506,2.506,2.4852,2.4881,2.5181,2.5181,2.533,2.5615,2.5615,2.527,2.4732,2.4732,2.4911,2.5181,0.0,0.0,0.0,0.0,0.0,2.5615,2.5615,0.0,0.0,0.0,0.0,0.0,0.0,0.0,0.0,0.0,0.0,0.0,0.0,0.0,0.0,2.3078,2.3078,2.3078,2.3078,2.3078,2.3078,0.0,2.3078,2.3238,2.3565,0.0,0.0,0.0,0.0,0.0,2.5975,2.6088,2.6176,2.6496,2.6533,2.6533,2.6533,2.6533,2.6533,2.6533,2.6533,2.6533,2.6533,2.6533,2.6533,0.0,0.0,0.0,0.0,0.0,0.0,0.0,0.0,0.0,0.0,0.0,0.0,0.0,0.0,0.0,0.0,0.0,0.0,0.0,0.0,0.0,0.0,0.0,0.0,0.0,0.0,0.0,0.0,2.3447,2.3787,2.4862,2.4506,2.4509,0.0,0.0,0.0,0.0,0.0,0.0,2.5243,2.4858,2.4663,2.4722,2.4806,2.4881,2.4881,2.536,2.5615,2.5615,2.5779,2.5959,2.6108,2.6108,2.6213,2.6363,2.6198,2.6108,2.6093,2.5749,2.5704,2.5854,2.5854,2.5959,2.6108,2.6108,2.6108,2.606,2.5916,2.6179,2.6415,2.5502,0.0,2.5837,2.5287,0.0,0.0,0.0,0.0,2.3078,2.3078,0.0,2.3078,2.3078,2.3078,2.3078,2.3078,2.3078,2.3078,0.0,2.3078,2.3314,2.3904,0.0,0.0,0.0,0.0,2.5799,2.6445,2.6533,2.6533,2.6533,2.6533,2.6533,2.6533,2.6533,2.6533,2.6533,2.6533,2.6533,2.6533,2.6533,2.6533,2.6533,0.0,0.0,0.0,0.0,0.0,0.0,0.0,0.0,0.0,0.0,0.0,0.0,0.0,0.0,0.0,0.0,0.0,0.0,0.0,0.0,0.0,0.0,0.0,0.0,0.0,0.0,0.0,0.0,0.0,2.4415,2.4399,0.0,0.0,0.0,0.0,2.4471,2.4471,2.4725,2.5366,2.5354,2.5402,2.5526,2.554,2.5555,2.5555,2.56,2.5615,2.5615,2.6243,2.6871,2.752,2.752,2.7829,2.8412,2.7754,2.752,2.743,2.6123,2.5974,2.6542,2.6542,2.6916,2.752,2.752,2.752,2.7419,2.6672,2.6491,2.6293,2.4854,2.4368,2.4408,2.435,2.435,0.0,0.0,2.3708,2.3078,2.3078,2.3078,2.3078,2.3078,2.3078,2.3078,2.3078,2.3078,2.3078,0.0,2.3078,2.3314,2.3904,0.0,2.4356,2.5435,2.5598,2.5799,2.6445,2.6533,2.6533,2.6533,2.6533,2.6533,2.6533,2.6533,2.6533,2.6533,2.6533,2.6533,2.6533,2.6533,2.6533,2.6533,2.6533,0.0,0.0,0.0,0.0,0.0,0.0,0.0,0.0,0.0,0.0,0.0,0.0,0.0,0.0,0.0,0.0,0.0,0.0,0.0,0.0,0.0,0.0,0.0,0.0,0.0,0.0,0.0,0.0,2.4348,2.4116,0.0,0.0,2.3991,2.4216,2.4998,2.4704,2.4834,2.547,2.5516,2.553,2.56,2.6437,2.6871,2.6871,2.7739,2.8158,2.8173,2.8412,2.8637,2.8861,2.8861,2.8996,2.919,2.8517,2.8233,2.8158,2.7245,2.7006,2.7215,2.7215,2.7415,2.756,2.7086,2.6878,2.6774,2.6054,2.5783,2.5618,2.4624,2.3943,2.3543,2.3543,2.3543,2.3543,2.3543,2.3305,2.3078,2.3078,2.3078,2.3078,2.3078,2.3078,2.3078,2.3078,2.3427,2.369,2.369,2.369,2.3866,2.4431,2.4808,2.5285,2.6038,2.6151,2.6226,2.6496,2.6533,2.6533,2.6533,2.6533,2.6533,2.6533,2.6533,2.6533,2.6533,2.6533,2.6533,2.6533,2.6533,2.6533,2.6533,2.6533,2.6533,0.0,0.0,0.0,0.0,0.0,0.0,0.0,0.0,0.0,0.0,0.0,0.0,0.0,0.0,0.0,0.0,0.0,0.0,0.0,0.0,0.0,0.0,0.0,0.0,0.0,0.0,2.4082,2.4689,2.4255,2.416,2.4747,2.4474,2.4596,2.5435,2.5123,2.5345,2.6228,2.6273,2.6482,2.6931,2.7799,2.8248,2.8248,2.9131,2.9579,2.9579,2.9789,2.9894,2.9894,2.9894,2.9894,2.9864,2.9205,2.8936,2.8876,2.8188,2.7919,2.7889,2.7715,2.7458,2.7152,2.6669,2.6336,2.6014,2.5287,2.4838,2.4553,2.4047,2.3531,2.3078,2.3078,2.3078,2.3078,2.3078,2.3078,2.3078,2.3078,2.3215,2.3427,2.3427,2.3565,2.3703,2.3703,2.4004,2.428,2.428,2.428,2.4443,2.4996,2.5372,2.5787,2.6445,2.6533,2.6533,2.6533,2.6533,2.6533,2.6533,2.6533,2.6533,2.6533,2.6533,2.6533,2.6533,2.6533,2.6533,2.6533,2.6533,2.6533,2.6533,2.6533,2.6533,2.6533,0.0,0.0,0.0,0.0,0.0,0.0,0.0,0.0,0.0,0.0,0.0,0.0,0.0,0.0,0.0,0.0,0.0,0.0,0.0,0.0,0.0,0.0,0.0,2.4323,2.4405,2.4642,2.528,2.4925,2.4911,2.5555,2.5615,2.563,2.5674,2.5674,2.6243,2.756,2.7685,2.8284,2.9549,2.9609,2.9609,2.9609,2.9624,2.9639,2.9654,3.0253,3.0537,3.0537,3.0537,3.0537,3.0507,2.9879,2.9609,2.9549,2.8853,2.8569,2.851,2.7844,2.7152,2.651,2.6457,2.596,2.5231,2.4509,2.3767,2.3078,2.3078,2.3078,2.3078,2.3078,2.3078,2.3078,2.3103,2.3103,2.3103,2.3128,2.3602,2.4017,2.4017,2.4431,2.482,2.482,2.4833,2.4845,2.4845,2.4858,2.5021,2.5511,2.5611,2.5812,2.6445,2.6533,0.0,2.6533,2.6533,2.6533,2.6533,2.6533,2.6533,2.6533,2.6533,2.6533,2.6533,2.6533,2.6533,2.6533,2.6533,2.6533,2.6533,2.6533,2.6533,2.6533,0.0,0.0,0.0,0.0,0.0,0.0,0.0,0.0,0.0,0.0,0.0,0.0,0.0,0.0,0.0,0.0,0.0,0.0,0.0,0.0,0.0,0.0,2.4324,2.4385,2.4475,2.4609,2.4806,2.5137,2.542,2.56,2.5615,2.6004,2.6961,2.7036,2.7619,2.8951,2.9026,2.9205,2.9564,3.0013,3.0253,3.0253,3.0746,3.1001,3.1001,3.1165,3.1255,3.1198,3.0617,3.0675,3.1153,2.9899,2.9377,2.9319,2.8679,2.7996,2.7456,2.7565,2.7152,2.6457,2.5906,2.4881,2.3695,2.3484,2.3305,2.3078,2.3078,2.3078,2.3078,2.3078,2.3078,2.3165,2.364,2.3766,2.3853,2.4255,2.4481,2.4594,2.4594,2.4707,2.482,2.482,2.5121,2.5385,2.5385,2.5724,2.5925,2.5649,2.5937,2.6276,2.6508,2.6533,0.0,2.6533,2.6533,2.6533,2.6533,2.6533,2.6533,2.6533,2.6533,2.6533,0.0,2.6533,2.6533,2.6533,2.6533,2.6533,2.6533,2.6533,2.6533,0.0,0.0,0.0,0.0,0.0,0.0,0.0,0.0,0.0,0.0,0.0,0.0,0.0,0.0,0.0,0.0,0.0,0.0,0.0,0.0,0.0,0.0,2.4373,2.4672,2.4859,2.4942,2.5136,2.542,2.6033,2.6542,2.6826,2.7111,2.759,2.8353,2.8464,2.8876,2.9909,2.9968,3.0103,3.0387,3.0746,3.0941,3.0941,3.133,3.1351,3.1029,3.1351,3.1146,3.045,3.0329,3.0584,0.0,2.97,2.9408,2.9604,2.8621,2.7865,0.0,0.0,0.0,0.0,0.0,2.3872,2.3078,2.3078,2.3078,2.3078,2.3078,2.3078,2.3175,2.3427,2.3502,2.3615,2.418,2.4343,2.4418,2.4745,2.4983,2.5146,2.5146,2.5335,2.5511,2.5511,2.5749,2.5963,2.5963,0.0,0.0,2.6013,2.6239,2.6533,2.6533,2.6533,2.6533,0.0,2.6533,2.6533,2.6533,2.6533,2.6533,2.6533,2.6533,0.0,0.0,0.0,2.6533,2.6533,2.6533,0.0,0.0,0.0,2.6533,0.0,0.0,0.0,0.0,2.637,2.6276,0.0,0.0,0.0,0.0,0.0,0.0,0.0,0.0,0.0,0.0,0.0,0.0,0.0,0.0,0.0,0.0,2.4701,2.5,2.563,2.5779,2.6048,2.6632,2.7275,2.7964,2.8652,2.9235,2.9609,2.9684,2.9684,2.9968,3.0582,0.0,0.0,0.0,0.0,3.1482,3.1482,3.1409,3.1029,3.0329,3.0896,3.045,2.9002,2.969,3.0072,3.0072,2.9254,2.9317,2.9907,2.8546,2.7851,2.7612,2.6553,2.5765,2.5069,2.3733,2.3265,0.0,0.0,0.0,0.0,2.3265,2.3265,2.3366,2.3941,2.4092,2.4205,2.4757,2.4908,2.4921,2.4983,2.5347,2.5686,2.5686,2.6088,2.6533,2.6533,2.6533,2.6533,2.6533,2.6533,2.6533,2.6533,2.6533,2.6533,2.6533,2.6533,2.6533,2.6533,2.6533,2.6533,2.6533,0.0,0.0,2.6533,2.6533,2.6533,2.6533,2.6533,2.6533,2.6533,2.6533,2.6533,2.6533,2.6533,2.6533,2.6533,2.6533,2.6533,2.6533,2.6533,2.6533,0.0,0.0,0.0,0.0,0.0,0.0,0.0,0.0,0.0,0.0,0.0,0.0,0.0,0.0,0.0,2.4567,2.5525,2.6258,2.6378,2.6856,2.7245,2.7415,2.7993,2.8667,2.9325,2.9505,2.9789,3.0283,3.0328,3.0612,3.13,3.1345,0.0,3.1482,3.1482,3.1482,3.1482,3.0837,3.045,3.0269,0.0,0.0,2.9002,2.8427,2.862,2.9192,2.8298,2.8051,2.8168,2.7866,2.7092,2.6037,2.6025,2.5871,2.5625,2.476,2.4494,2.4494,2.4494,2.4494,2.4494,2.4494,2.4494,2.4519,2.4632,2.4669,0.0,2.5297,2.5448,2.5548,2.6013,2.6214,2.6302,2.6302,2.6445,2.6533,2.6533,2.6533,2.6533,2.6533,2.6533,2.6533,2.6533,2.6533,2.6533,2.6533,2.6533,2.6533,2.6533,2.6533,2.6533,2.6533,2.6533,2.6533,2.6533,2.6533,2.6533,2.6533,2.6533,2.6533,2.6533,2.6533,2.6533,2.6533,2.6533,2.6533,2.6533,2.6533,2.6533,2.6533,2.6533,2.6533,0.0,0.0,0.0,0.0,0.0,0.0,0.0,0.0,0.0,0.0,0.0,2.3699,0.0,0.0,2.4806,2.5495,2.6153,2.6707,2.7036,2.7415,2.7694,2.8038,2.8682,2.934,2.9983,3.0357,3.0687,3.1001,3.1016,3.1165,3.1452,3.1482,3.1351,3.0896,3.0896,3.0896,3.0896,3.0072,2.9628,2.9628,2.9192,2.8556,2.7736,2.7736,2.792,2.8298,2.7484,2.7351,2.767,2.7297,2.6671,2.6068,2.6164,2.5833,2.5268,2.4936,2.482,2.482,2.482,2.482,2.482,2.482,2.482,2.487,2.5134,2.5209,2.5322,2.5875,2.6025,2.6101,2.6445,2.6533,2.6533,2.6533,2.6533,2.6533,2.6533,2.6533,2.6533,2.6533,2.6533,2.6533,2.6533,2.6533,2.6533,2.6533,2.6533,2.6533,2.6533,2.6533,2.6533,2.6533,2.6533,2.6533,2.6533,2.6533,2.6533,2.6533,2.6533,2.6533,2.6533,2.6533,2.6533,2.6533,2.6533,2.6533,2.6533,2.6533,2.6533,2.6533,2.6533,2.6533,0.0,0.0,0.0,0.0,0.0,0.0,0.0,0.0,2.364,2.3774,2.3789,2.4014,2.4642,2.4881,2.536,2.6422,2.6692,2.6961,2.755,2.7625,2.7829,2.8517,2.9071,2.9639,3.0268,3.0941,3.1345,3.1345,3.1465,3.1482,3.1482,3.1482,3.1146,3.0329,3.0329,3.0208,3.0072,2.9192,2.8748,2.8748,2.862,2.7802,2.6521,2.7162,2.7484,2.7417,2.6782,2.6837,2.7417,2.6782,2.6533,2.6533,2.6533,2.5912,2.5146,2.5146,2.5146,2.5146,2.5146,2.5146,2.5146,2.5146,2.5146,2.5222,2.5636,2.5762,2.5862,2.6327,2.6533,2.6533,2.6533,2.6533,2.6533,2.6533,2.6533,2.6533,2.6533,2.6533,2.6533,2.6533,2.6533,2.6533,2.6533,2.6533,2.6533,2.6533,2.6533,2.6533,2.6533,2.6533,2.6533,2.6533,2.6533,2.6533,2.6533,2.6533,2.6533,2.6533,2.6533,2.6533,2.6533,2.6533,2.6533,2.6533,2.6533,2.6533,2.6533,2.6533,2.6533,2.6533,2.6533,2.6533,2.3595,2.3595,2.3595,2.3595,2.3595,2.3595,0.0,0.0,2.3774,2.4388,2.4462,2.4672,2.5375,2.5974,2.6422,2.6572,2.7081,2.7535,2.761,2.7625,2.7829,2.8517,2.8667,2.8966,2.9624,3.0253,3.0612,3.0612,3.118,3.1482,3.1482,3.1482,3.1146,3.0329,3.0329,2.995,2.9129,2.8298,2.7855,2.7868,2.7095,2.6658,2.6533,2.6589,2.6658,2.6658,2.6521,2.6521,2.6658,2.6521,2.6533,2.6533,2.6533,2.6445,2.6276,2.6276,2.6276,2.6276,2.6276,2.6276,2.6276,2.6276,2.6276,2.6289,2.6352,2.6433,2.6445,2.6508,2.6533,2.6533,2.6533,2.6533,2.6533,2.6533,2.6533,2.6533,2.6533,2.6533,2.6533,2.6533,2.6533,2.6533,2.6533,2.6533,2.6533,2.6533,2.6533,2.6533,2.6533,2.6533,2.6533,2.6533,2.6533,2.6533,2.6533,2.6533,2.6533,2.6533,2.6533,2.6533,2.6533,2.6533,2.6533,2.6533,2.6533,2.6533,2.6533,2.6533,2.6533,2.6533,2.6533,2.6533,2.3595,2.3595,2.3595,0.0,2.3894,2.4193,2.4193,2.4492,2.4852,2.5136,2.5196,2.5405,2.6063,2.6408,2.6722,0.0,2.7445,2.7625,2.7625,2.7625,2.773,2.7964,2.8008,2.8412,2.9475,2.9819,3.0118,3.0477,3.0349,3.0382,3.0748,3.0329,2.9628,2.8812,2.8812,2.862,2.8247,2.7417,2.7229,2.767,2.6905,2.6533,2.6533,2.6533,2.6533,2.6533,2.6533,2.6533,2.6533,2.6533,2.6533,2.6533,2.6533,2.6533,2.6533,2.6533,2.6533,2.6533,2.6533,2.6533,2.6533,2.6533,2.6533,2.6533,2.6533,2.6533,2.6533,2.6533,2.6533,2.6533,2.6533,2.6533,2.6533,2.6533,2.6533,2.6533,2.6533,2.6533,2.6533,2.6533,2.6533,2.6533,2.6533,2.6533,2.6533,2.6533,2.6533,2.6533,2.6533,2.6533,2.6533,2.6533,2.6533,2.6533,2.6533,2.6533,2.6533,2.6533,2.6533,2.6533,2.6533,2.6533,2.6533,2.6533,2.6533,2.6533,2.6533,2.6533,2.6533,2.6533,2.6533,2.6533,2.3334,2.3452,0.0,2.3362,2.38,2.425,2.425,2.4805,2.5361,2.5523,2.5726,2.6078,2.6737,2.6856,2.7021,2.755,2.7625,2.7625,2.7625,2.7625,2.7625,2.7625,2.7625,2.8,2.8936,2.9205,2.9564,3.0193,2.9637,2.9592,3.0225,2.9442,2.862,2.7736,2.767,2.7604,2.7351,2.6782,2.6782,2.7351,2.6782,2.6533,2.6533,2.6533,2.6533,2.6533,2.6533,2.6533,2.6533,2.6533,2.6533,2.6533,2.6533,2.6533,2.6533,2.6533,2.6533,2.6533,2.6533,2.6533,2.6533,2.6533,2.6533,2.6533,2.6533,2.6533,2.6533,2.6533,2.6533,2.6533,2.6533,2.6533,2.6533,2.6533,2.6533,2.6533,2.6533,2.6533,2.6533,2.6533,2.6533,2.6533,2.6533,2.6533,2.6533,2.6533,2.6533,2.6533,2.6533,2.6533,2.6533,2.6533,2.6533,2.6533,2.6533,2.6533,2.6533,2.6533,2.6533,2.6533,2.6533,2.6533,2.6533,2.6533,2.6533,2.6533,2.6533,2.6533,2.6533,2.6533,2.6533,2.6533,2.274,0.0,2.3364,2.2769,2.3027,2.3417,2.3417,2.4005,2.4704,2.5373,2.607,2.6752,2.7475,2.7595,2.7595,2.7625,2.7625,2.7625,2.7625,2.7625,2.7625,2.7625,2.7625,2.764,0.0,2.8233,2.8906,2.9564,2.9404,2.9592,3.0225,2.9442,2.862,2.7736,2.767,2.7351,2.6521,2.6533,2.6533,2.6521,2.6533,2.6533,2.6533,2.6533,2.6533,2.6533,2.6533,2.6533,2.6533,2.6533,2.6533,2.6533,2.6533,2.6533,2.6533,2.6533,2.6533,2.6533,2.6533,2.6533,2.6533,2.6533,2.6533,2.6533,2.6533,2.6533,2.6533,2.6533,2.6533,2.6533,2.6533,2.6533,2.6533,2.6533,2.6533,2.6533,2.6533,2.6533,2.6533,2.6533,2.6533,2.6533,2.6533,2.6533,2.6533,2.6533,2.6533,2.6533,2.6533,2.6533,2.6533,2.6533,2.6533,2.6533,2.6533,2.6533,2.6533,2.6533,2.6533,2.6533,2.6533,2.6533,2.6533,2.6533,2.6533,2.6533,2.6533,2.6533,2.6533,2.6533,2.6533,2.6533,2.3105,0.0,2.3188,2.4307,2.469,2.4779,2.4779,2.5062,2.5337,2.5473,2.54,2.5541,2.618,2.6273,2.6408,2.6841,2.6916,2.7066,2.7565,2.7625,2.7625,2.7625,2.7625,0.0,0.0,0.0,0.0,2.9505,2.8441,2.8274,2.9386,2.8117,2.7229,2.6905,2.6905,2.6782,2.6533,2.6533,2.6533,2.6533,2.6533,2.6533,2.6533,2.6533,2.6533,2.6533,2.6533,2.6533,2.6533,2.6533,2.6533,2.6533,2.6533,2.6533,2.6533,2.6533,2.6533,2.6533,2.6533,2.6533,2.6533,2.6533,2.6533,2.6533,2.6533,2.6533,2.6533,2.6533,2.6533,2.6533,2.6533,2.6533,2.6533,2.6533,2.6533,2.6533,2.6533,2.6533,2.6533,2.6533,2.6533,2.6533,2.6533,2.6533,2.6533,2.6533,2.6533,2.6533,2.6533,2.6533,2.6533,2.6533,2.6533,2.6533,2.6533,2.6533,2.6533,2.6533,2.6533,2.6533,2.6533,2.6533,2.6533,2.6533,2.6533,2.6533,2.6533,2.6533,2.6533,2.6533,2.6533,2.6533,2.2735,2.2917,2.3073,2.4142,2.4532,2.4613,2.4393,2.4632,2.4787,2.4549,2.4604,2.4839,2.5191,2.5458,2.5749,2.6168,2.6437,2.6737,2.7156,2.7475,2.7625,2.7625,2.7625,0.0,0.0,0.0,0.0,2.8793,2.7465,2.7121,2.8189,2.7113,2.6533,2.6533,2.6533,2.6533,2.6533,2.6533,2.6533,2.6533,2.6533,2.6533,2.6533,2.6533,2.6533,2.6533,2.6533,2.6533,2.6533,2.6533,2.6533,2.6533,2.6533,2.6533,2.6533,2.6533,2.6533,2.6533,2.6533,2.6533,2.6533,2.6533,2.6533,2.6533,2.6533,2.6533,2.6533,2.6533,2.6533,2.6383,2.6094,2.6245,2.6383,2.6025,2.6245,2.6533,2.6533,2.6533,2.6533,2.6533,2.6533,2.6533,2.6533,2.6533,2.6533,2.6533,2.6533,2.6533,2.6533,2.6533,2.6533,2.6533,2.6533,2.6533,2.6533,2.6533,2.6533,2.6533,2.6533,2.6533,2.6533,2.6533,2.6533,2.6533,2.6533,2.6533,2.6533,2.6533,2.6533,2.6533,2.6533,2.6533,2.1694,2.2443,2.3115,2.2623,2.2783,2.2949,2.248,2.2863,2.3186,2.2644,2.358,2.4529,0.0,0.0,2.5416,2.5555,2.6078,2.6512,2.6587,2.7126,2.758,0.0,0.0,0.0,0.0,0.0,0.0,2.736,0.0,2.6169,2.6839,2.6665,2.6533,2.6533,2.6533,2.6533,2.6533,2.6533,2.6533,2.6533,2.6533,2.6533,2.6533,2.6496,2.6483,2.6483,2.6389,2.6445,2.6445,2.6471,2.6483,2.6483,2.6521,2.6452,2.6383,2.6383,2.6383,2.6383,2.6383,2.6452,2.6533,2.6533,2.6533,2.6533,2.6533,2.6533,2.6533,2.6533,2.6533,2.6314,2.53,2.5804,2.6245,2.53,2.5804,2.6533,2.6533,2.6533,2.6533,2.6533,2.6533,2.6533,2.6533,2.6533,2.6533,2.6533,2.6533,2.6533,2.6533,2.6533,2.6533,2.6533,2.6533,2.6533,2.6533,2.6533,2.6533,2.6533,2.6533,2.6533,2.6533,2.6533,2.6533,2.6533,2.6533,2.6533,2.6533,2.6533,2.6533,2.6533,2.6533,2.6533,2.2709,2.2739,2.2904,2.4276,2.393,2.3298,2.3154,2.2668,2.2154,2.1904,2.1827,2.2062,0.0,0.0,0.0,2.4594,2.4616,0.0,2.6404,2.6737,0.0,2.7565,0.0,2.6982,2.7575,2.5932,0.0,0.0,2.5926,2.6169,2.6839,2.6665,2.6533,2.6533,2.6533,2.6533,2.6533,2.6533,2.6533,2.6533,2.6533,2.6533,2.6508,2.6013,2.5812,2.5799,2.541,2.5234,2.5272,2.5649,2.5812,2.585,2.6289,2.6025,2.537,2.537,2.537,2.537,2.537,2.5873,2.6533,2.6533,2.6533,2.6533,2.6533,2.6533,2.6533,2.6533,2.6533,2.6452,2.6164,2.6314,2.6465,2.6176,2.6314,2.6533,2.6533,2.6533,2.6533,2.6533,2.6533,2.6533,2.6533,2.6533,2.6533,2.6533,2.6533,2.6533,2.6533,2.6533,2.6533,2.6533,2.6533,2.6533,2.6533,2.6533,2.6533,2.6533,2.6533,2.6533,2.6533,2.6533,2.6533,2.6533,2.6533,2.6533,2.6533,2.6533,2.6533,2.6533,2.6533,2.6533,2.2657,2.2821,2.2913,2.4071,2.366,2.2837,2.2635,2.1897,2.1238,2.0875,2.0819,0.0,2.1752,0.0,0.0,0.0,0.0,0.0,2.5908,2.5874,2.6184,0.0,2.6654,0.0,2.7034,2.5384,2.4452,0.0,2.499,2.5329,2.5923,2.6041,2.6201,2.6521,2.6533,2.6533,2.6533,2.6533,2.6533,2.6533,2.6201,2.6088,2.6063,2.5073,2.4905,2.5234,0.0,2.4471,2.4793,2.4908,2.4982,2.4964,2.5141,2.4838,2.4337,2.4337,2.4337,2.4337,2.4337,2.5004,2.5873,2.6383,2.6533,2.6533,2.6533,2.6164,2.5955,2.6383,2.6164,2.5873,2.5873,2.6164,2.6383,2.5955,2.6176,2.6533,2.6533,2.6533,2.6533,2.6533,2.6533,2.6533,2.6533,2.6533,2.6533,2.6533,2.6533,2.6533,2.6533,2.6533,2.6533,2.6533,2.6533,2.6533,2.6533,2.6533,2.6533,2.6533,2.6533,2.6533,2.6533,2.6533,2.6533,2.6533,2.6533,2.6533,2.6533,2.6533,2.6533,2.6533,2.6533,2.6533,2.2246,2.2774,2.3053,2.2977,2.2611,2.2058,2.1506,2.0953,2.0401,1.9911,0.0,2.0696,2.0795,2.1148,2.171,2.2452,0.0,2.3091,2.4923,2.4733,2.5099,2.6967,2.6051,2.5563,2.6283,2.5007,2.4176,2.4292,2.4016,2.413,2.4682,2.5209,2.5724,2.6226,2.6239,2.6239,2.6239,2.6239,2.6239,2.6239,2.5737,2.5485,2.5473,2.4044,2.3814,2.4437,0.0,0.0,2.4375,2.4085,2.4065,2.4034,2.375,2.3458,2.3294,2.3294,2.3294,2.3294,2.3294,2.3963,2.5004,2.5943,2.6383,2.6533,2.6533,2.5873,2.537,2.6233,2.5873,2.5229,2.5229,2.5873,2.6314,2.5441,2.5886,2.6533,2.6533,2.6533,2.6533,2.6533,2.6533,2.6533,2.6533,2.6533,2.6533,2.6533,2.6533,2.6533,2.6533,2.6533,2.6533,2.6533,2.6533,2.6533,2.6533,2.6533,2.6533,2.6533,2.6533,2.6533,2.6533,2.6533,2.6533,2.6533,2.6533,2.6533,2.6533,2.6533,2.6533,2.6533,2.6533,2.6533,2.2829,2.3002,2.2965,2.2573,2.2046,2.1493,2.0941,2.0363,0.0,0.0,1.9901,2.0144,2.0696,2.0434,2.0521,2.1663,0.0,0.0,0.0,0.0,2.4066,0.0,0.0,0.0,0.0,0.0,0.0,0.0,0.0,0.0,2.4117,2.4657,2.5008,2.5109,2.5109,2.5109,2.5109,2.5109,2.5109,2.5109,2.5008,2.4958,2.4868,2.3498,2.2934,2.2975,0.0,0.0,2.245,2.2786,2.3173,2.3479,2.3942,2.3311,2.2253,2.2253,2.2253,2.2253,2.2253,2.2925,2.3963,2.4921,2.5804,2.6533,2.6533,2.6383,2.6314,2.6465,2.6383,2.6245,2.6245,2.6383,2.6452,2.6314,2.6383,2.6533,2.6533,2.6533,2.6533,2.6533,2.6533,2.6533,2.6533,2.6533,2.6533,2.6533,2.6533,2.6533,2.6533,2.6533,2.6533,2.6533,2.6533,2.6533,2.6533,2.6533,2.6533,2.6533,2.6533,2.6533,2.6533,2.6533,2.6533,2.6533,2.6533,2.6533,2.6533,2.6533,2.6533,2.6533,2.6533,2.6533,2.2896,2.2924,2.2636,2.2372,2.1681,2.0991,2.0781,0.0,0.0,0.0,1.9798,1.9901,2.0194,2.0003,0.0,0.0,0.0,0.0,0.0,0.0,0.0,0.0,0.0,0.0,0.0,0.0,0.0,0.0,0.0,0.0,2.3966,2.4519,2.482,2.482,2.482,2.482,2.482,2.482,2.482,2.482,2.4531,2.4393,2.4317,2.2953,2.2258,2.2246,2.1088,0.0,2.121,2.1248,2.1386,2.153,2.186,2.1565,2.0974,2.1217,2.1298,2.1298,2.1298,2.1886,2.2776,2.3294,2.448,2.5734,2.5734,2.5734,2.5804,2.6383,2.6094,2.5873,2.6383,2.6533,2.6533,2.6533,2.6533,2.6533,2.6533,2.6533,2.6533,2.6533,2.6533,2.6533,2.6533,2.6533,2.6533,2.6533,2.6533,2.6533,2.6533,2.6533,2.6533,2.6533,2.6533,2.6533,2.6533,2.6533,2.6533,2.6533,2.6533,2.6533,2.6533,2.6533,2.6533,2.6533,2.6533,2.6533,2.6533,2.6533,2.6533,2.6533,2.6533,2.6533,2.2523,2.2472,2.2108,2.1995,2.1305,2.0693,2.0567,2.0125,0.0,0.0,1.9798,1.9798,1.9798,0.0,1.9952,0.0,2.0144,2.0348,0.0,0.0,0.0,0.0,0.0,0.0,0.0,0.0,0.0,0.0,0.0,0.0,2.3791,2.423,2.4456,2.4456,2.4456,2.4456,2.4456,2.4456,2.4456,2.4456,2.4017,2.3754,2.3542,2.2193,2.1491,2.1302,2.0398,0.0,0.0,1.9945,1.9818,1.9906,1.9938,1.9836,1.9834,2.0264,2.042,2.0439,2.0537,2.1078,2.1735,2.1735,2.3073,2.4707,2.4933,2.5004,2.5229,2.6245,2.5955,2.5511,2.6314,2.6533,2.6533,2.6533,2.6533,2.6533,2.6533,2.6533,2.6533,2.6533,2.6533,2.6533,2.6533,2.6533,2.6533,2.6533,2.6533,2.6533,2.6533,2.6533,2.6533,2.6533,2.6533,2.6533,2.6533,2.6533,2.6533,2.6533,2.6533,2.6533,2.6533,2.6533,2.6533,2.6533,2.6533,2.6533,2.6533,2.6533,2.6533,2.6533,2.6533,2.6533,2.1481,2.1606,2.1443,2.0941,2.0794,2.058,1.9999,0.0,1.9798,1.9798,1.9798,1.9798,1.9798,0.0,0.0,0.0,0.0,1.9862,0.0,0.0,0.0,0.0,0.0,0.0,0.0,0.0,0.0,0.0,0.0,0.0,0.0,2.3203,2.3288,2.3288,2.3288,2.3288,2.3288,2.3288,2.3288,2.3288,2.3238,2.2776,2.2073,2.1123,2.0268,1.9497,0.0,0.0,0.0,1.9341,1.9536,1.9912,1.9927,1.9677,1.9394,1.9814,1.9971,2.0029,2.043,2.0644,2.0712,2.0712,2.2048,2.3818,2.4707,2.5004,2.5229,2.6245,2.6452,2.6383,2.6465,2.6533,2.6533,2.6533,2.6533,2.6533,2.6533,2.6533,2.6533,2.6533,2.6533,2.6533,2.6533,2.6533,2.6533,2.6533,2.6533,2.6533,2.6533,2.6533,2.6533,2.6533,2.6533,2.6533,2.6533,2.6533,2.6533,2.6533,2.6533,2.6533,2.6533,2.6533,2.6533,2.6533,2.6533,2.6533,2.6533,2.6533,2.6533,2.6533,2.6533,2.6533,2.1343,2.1242,2.0995,2.0769,2.0401,2.0087,1.9849,0.0,1.9798,1.9798,1.9798,1.9798,1.9798,1.9798,1.9798,1.9798,1.9798,0.0,1.9798,0.0,0.0,0.0,0.0,0.0,0.0,0.0,0.0,0.0,0.0,0.0,0.0,2.3078,2.3078,2.3078,2.3078,2.2884,2.2384,2.2384,2.2384,2.2384,2.2384,2.2199,2.1877,2.1553,2.059,1.9299,0.0,0.0,0.0,1.8529,1.863,1.8811,1.9003,1.9013,1.8945,1.9385,1.9697,1.9941,2.0117,2.0342,2.0566,2.0566,2.1527,2.2702,2.3073,2.3599,2.4181,2.4552,2.4684,2.4838,2.5441,2.6025,2.6533,2.6533,2.6533,2.6533,2.6533,2.6533,2.6533,2.6533,2.6533,2.6533,2.6533,2.6533,2.6533,2.6533,2.6533,2.6533,2.6533,2.6533,2.6533,2.6533,2.6533,2.6533,2.6533,2.6533,2.6533,2.6533,2.6533,2.6533,2.6533,2.6533,2.6533,2.6533,2.6533,2.6533,2.6533,2.6533,2.6533,2.6533,2.6533,2.6533,2.0648,2.054,2.0401,2.0176,1.9942,1.9798,0.0,0.0,1.9798,1.9798,1.9798,1.9798,1.9798,1.9798,1.9798,1.9798,1.9798,1.9798,1.9798,1.9798,0.0,0.0,0.0,0.0,0.0,0.0,0.0,0.0,0.0,0.0,0.0,2.3078,2.3078,2.3078,2.3078,2.2689,2.1877,2.1877,2.1753,2.1502,2.1502,2.1365,2.1101,2.1101,2.0333,1.8921,0.0,0.0,0.0,1.8008,1.8008,1.8037,1.833,1.8447,1.8506,1.8936,1.9277,1.9551,1.9964,2.0452,2.0811,2.0811,2.1339,2.1962,2.1669,2.2702,2.4036,2.4325,2.4397,2.4552,2.5288,2.5955,2.6533,2.6533,2.6533,2.6533,2.6533,2.6533,2.6533,2.6533,2.6533,2.6533,2.6533,2.6533,2.6533,2.6533,2.6533,2.6533,2.6533,2.6533,2.6533,2.6533,2.6533,2.6533,2.6533,2.6533,2.6533,2.6533,2.6533,2.6533,2.6533,2.6533,2.6533,2.6533,2.6533,2.6533,2.6533,2.6533,2.6533,2.6533,2.6533,2.6533,1.8951,1.9267,1.9643,1.8886,1.9267,1.9798,0.0,0.0,1.9798,1.9798,1.9798,1.9798,1.9798,1.9798,1.9798,1.9798,1.9798,1.9798,1.9798,1.9798,0.0,0.0,0.0,0.0,0.0,0.0,0.0,0.0,0.0,0.0,0.0,2.3078,2.3078,2.3078,2.3078,2.2689,2.1877,2.1877,2.1491,2.059,2.059,2.0139,1.9299,1.9299,1.8854,0.0,0.0,0.0,0.0,1.8008,1.8008,1.8008,1.8018,1.8018,1.8066,1.8486,1.8582,1.8772,2.0103,2.0906,2.1366,2.1209,2.1586,2.1811,2.0934,2.2638,2.5229,2.6164,2.6452,2.6452,2.6452,2.6465,2.6533,2.6533,2.6533,2.6533,2.6533,2.6533,2.6533,2.6533,2.6533,2.6533,2.6533,2.6533,2.6533,2.6533,2.6533,2.6533,2.6533,2.6533,2.6533,2.6533,2.6533,2.6533,2.6533,2.6533,2.6533,2.6533,2.6533,2.6533,2.6533,2.6533,2.6533,2.6533,2.6533,2.6533,2.6533,2.6533,2.6533,2.6533,2.6533,2.6533,1.9527,1.9631,1.9631,1.8874,1.8874,1.9044,1.9044,1.9044,1.9202,1.9695,1.9798,1.9798,1.9798,1.9798,1.9798,1.9798,1.9798,1.9798,0.0,0.0,0.0,0.0,0.0,0.0,0.0,0.0,0.0,0.0,0.0,0.0,0.0,0.0,2.3078,2.3078,2.2567,2.1865,2.1037,2.0398,2.0009,1.9694,1.9694,1.9562,1.9299,1.9299,0.0,0.0,0.0,0.0,0.0,1.8008,1.8008,1.8008,1.8008,1.8008,1.8027,1.8154,1.8389,1.8652,1.9062,1.9533,2.0025,2.0252,2.0869,2.1702,2.2381,2.2349,2.2199,2.3136,2.4397,2.5441,2.5441,2.5955,2.6533,2.6533,2.6533,2.6533,2.6533,2.6533,2.6533,2.6533,2.6533,2.6533,2.6533,2.6533,2.6533,2.6533,2.6533,2.6533,2.6533,2.6533,2.6533,2.6533,2.6533,2.6533,2.6533,2.6533,2.6533,2.6533,2.6533,2.6533,2.6533,2.6533,2.6533,2.6533,2.6533,2.6533,2.6533,2.6533,2.6533,2.6533,2.6533,2.6533,1.8984,1.915,1.9202,1.8447,1.8501,0.0,0.0,1.8501,1.8821,1.9307,1.915,1.915,1.9695,1.9579,1.9475,1.9747,0.0,0.0,0.0,0.0,0.0,0.0,0.0,0.0,0.0,0.0,0.0,0.0,0.0,0.0,0.0,0.0,2.3078,2.3078,2.2322,2.1302,2.0139,1.9562,1.91,1.8787,1.8787,1.8787,1.8787,1.8787,0.0,0.0,0.0,0.0,0.0,1.8008,1.8008,1.8008,1.8008,1.8008,1.8008,1.8008,1.8174,1.8398,1.8725,1.9223,1.9636,1.9835,2.0293,2.1007,2.2126,2.2627,2.2925,2.3503,2.4612,2.5581,2.5581,2.6025,2.6533,2.6533,2.6533,2.6533,2.6533,2.6533,2.6533,2.6533,2.6533,2.6533,2.6533,2.6533,2.6533,2.6533,2.6533,2.6533,2.6533,2.6533,2.6533,2.6533,2.6533,2.6533,2.6533,2.6533,2.6533,2.6533,2.6533,2.6533,2.6533,2.6533,2.6533,2.6533,2.6533,2.6533,2.6533,2.6533,2.6533,2.6533,2.6533,2.6533,0.0,1.812,1.8501,1.7797,1.8167,0.0,1.7797,1.8112,0.0,1.8768,1.8167,1.8058,1.9527,1.9202,1.8927,0.0,0.0,0.0,0.0,0.0,0.0,0.0,0.0,0.0,0.0,0.0,0.0,0.0,0.0,0.0,0.0,0.0,2.2832,2.276,2.2017,2.0905,1.9431,1.9299,1.8787,1.8008,1.8008,1.8008,1.8008,1.8008,0.0,0.0,0.0,0.0,0.0,1.8008,1.8008,1.8008,1.8008,1.8008,1.8008,1.8008,1.8008,1.8144,1.8921,1.9515,1.9939,1.9833,1.991,2.0066,2.0544,2.3261,2.6314,2.6314,2.6383,2.6533,2.6533,2.6533,2.6533,2.6533,2.6533,2.6533,2.6533,2.6533,2.6533,2.6533,2.6533,2.6533,2.6533,2.6533,2.6533,2.6533,2.6533,2.6533,2.6533,2.6533,2.6533,2.6533,2.6533,2.6533,2.6533,2.6533,2.6533,2.6533,2.6533,2.6533,2.6533,2.6533,2.6533,2.6533,2.6533,2.6533,2.6533,2.6533,2.6533,2.6533,2.6533,2.6533,1.724,0.0,1.8501,1.7797,1.8167,1.8501,0.0,1.7731,1.8178,1.9319,1.8501,1.8058,1.9527,1.9202,1.8927,0.0,0.0,0.0,0.0,0.0,0.0,0.0,0.0,0.0,0.0,0.0,0.0,0.0,0.0,0.0,0.0,0.0,2.0488,1.9216,1.9043,1.9331,2.0257,1.8977,1.8202,1.8008,1.8008,1.8008,1.8008,1.8008,0.0,0.0,0.0,0.0,1.8008,1.8008,1.8008,1.8008,1.8008,1.8008,1.8008,1.8008,1.8008,1.8008,1.8202,1.8397,1.8536,1.8795,1.991,2.1093,2.1197,2.2641,2.4181,2.4181,2.5276,2.6533,2.6533,2.6533,2.6533,2.6533,2.6533,2.6533,2.6533,2.6533,2.6533,2.6533,2.6533,2.6533,2.6533,2.6533,2.6533,2.6533,2.6533,2.6533,2.6533,2.6533,2.6533,2.6533,2.6533,2.6533,2.6533,2.6533,2.6533,2.6533,2.6533,2.6533,2.6533,2.6533,2.6533,2.6533,2.6533,2.6533,2.6533,2.6533,2.6533,2.6533,2.6533,2.6533,1.6237,1.7077,1.7885,1.7779,1.7951,1.8112,1.7677,1.7357,1.7413,1.8555,1.7622,1.7124,1.898,1.8447,0.0,0.0,0.0,0.0,0.0,0.0,0.0,0.0,0.0,0.0,0.0,0.0,0.0,0.0,0.0,0.0,0.0,0.0,1.9843,1.8643,1.823,1.8333,1.9114,1.8171,1.7822,1.8008,1.8008,1.8008,1.8008,1.8008,0.0,0.0,0.0,0.0,1.8008,1.8008,1.8008,1.8008,1.8008,1.8008,1.8008,1.8008,1.8008,1.8008,1.8008,1.8008,1.8076,1.8496,1.9292,2.0175,2.0581,2.1891,2.3234,2.3458,2.4624,2.5804,2.5804,2.6164,2.6533,2.6533,2.6533,2.6533,2.6533,2.6533,2.6533,2.6533,2.6533,2.6533,2.6533,2.6533,2.6533,2.6533,2.6533,2.6533,2.6533,2.6533,2.6533,2.6533,2.6533,2.6533,2.6533,2.6214,2.6063,2.6063,2.6063,2.6063,2.6063,2.6063,2.6189,2.6521,2.6533,2.6533,2.6533,2.6533,2.6533,2.6533,2.6533,2.6533,1.516,1.5942,1.687,1.7484,1.7634,1.7641,1.7611,1.7034,1.6765,1.7578,1.6518,1.6016,1.8167,1.7413,0.0,0.0,0.0,0.0,0.0,0.0,0.0,0.0,0.0,0.0,0.0,0.0,0.0,0.0,0.0,0.0,0.0,0.0,0.0,1.8722,1.8016,1.7461,1.7178,1.7246,1.7461,1.7812,1.7812,1.7812,1.7812,1.7881,0.0,0.0,0.0,0.0,1.8008,1.8008,1.8008,1.8008,1.8008,1.8008,1.8008,1.8008,1.8008,1.8008,1.8008,1.8008,1.8066,1.8557,1.8784,1.8972,1.9849,2.1396,2.2958,2.329,2.4279,2.5229,2.5229,2.5873,2.6533,2.6533,2.6533,2.6533,2.6533,2.6533,2.6533,2.6533,2.6533,2.6533,2.6533,2.6533,2.6533,2.6533,2.6533,2.6533,2.6533,2.6533,2.6533,2.6533,2.6533,2.6533,2.6533,2.6013,2.5686,2.5598,2.5523,2.5511,2.5598,2.5686,2.5963,2.6521,2.6533,2.6533,2.6533,2.6533,2.6533,2.6533,2.6533,2.6533,1.49,1.5233,1.5813,1.6104,1.7044,1.7804,1.7641,1.7034,1.6866,1.8232,0.0,1.5911,0.0,1.709,0.0,0.0,0.0,0.0,0.0,0.0,0.0,0.0,0.0,0.0,0.0,0.0,0.0,0.0,0.0,0.0,0.0,0.0,0.0,1.6006,1.5899,1.594,1.6321,1.6641,1.6865,1.6934,1.6934,1.6934,1.6943,1.7305,1.748,0.0,0.0,1.8008,1.8008,1.8008,1.8008,1.8008,1.8008,1.8008,1.8008,1.8008,1.8008,1.8008,1.8008,1.8008,1.8144,1.8926,1.9396,1.9865,2.0744,2.1838,2.2726,2.2804,2.4507,2.6245,2.6245,2.6383,2.6533,2.6533,2.6533,2.6533,2.6533,2.6533,2.6533,2.6533,2.6533,2.6533,2.6533,2.6533,2.6533,2.6533,2.6533,2.6533,2.6533,2.6533,2.6533,2.6533,2.6533,2.6533,2.6533,2.6445,2.6113,2.5624,2.5184,2.5146,2.5573,2.6063,2.6433,2.6533,2.6533,2.6533,2.6533,2.6533,2.6533,2.6533,2.6533,2.6533,1.4061,1.4633,1.5391,1.4779,1.5722,1.6964,1.7466,1.6698,1.6197,1.7302,0.0,0.0,0.0,0.0,0.0,0.0,0.0,0.0,0.0,0.0,0.0,0.0,0.0,0.0,0.0,0.0,0.0,0.0,0.0,0.0,0.0,0.0,0.0,0.0,1.541,1.5508,1.5703,1.5918,1.626,1.6665,1.6665,1.6665,1.6738,1.6943,1.7031,1.7061,0.0,1.7676,1.7686,1.792,1.8008,1.8008,1.8008,1.8008,1.8008,1.8008,1.8008,1.8008,1.8008,1.8008,1.8076,1.8462,1.9055,1.9723,2.0293,2.1565,2.2798,2.3352,2.453,2.5664,2.5664,2.6094,2.6533,2.6533,2.6533,2.6533,2.6533,2.6533,2.6533,2.6533,2.6533,2.6533,2.6533,2.6533,2.6533,2.6533,2.6533,2.6533,2.6533,2.6533,2.6533,2.6533,2.6533,2.6533,2.6533,2.6176,2.5887,2.5611,2.5372,2.5347,2.5586,2.6151,2.6533,2.6533,2.6533,2.6533,2.6533,2.6533,2.6533,2.6533,2.6533,2.6533,1.3382,1.4014,1.4891,1.3781,1.4645,1.602,1.6994,1.6202,1.5524,1.6358,0.0,0.0,0.0,0.0,0.0,0.0,0.0,0.0,0.0,0.0,0.0,0.0,0.0,0.0,0.0,0.0,0.0,0.0,0.0,0.0,0.0,0.0,0.0,0.0,1.541,1.541,1.541,1.541,1.5752,1.6426,1.6426,1.6426,1.6426,1.6533,1.6572,1.6602,1.7041,1.7227,1.7256,1.7578,1.7773,1.7861,1.7861,1.793,1.8008,1.8008,1.8008,1.8008,1.8008,1.8008,1.8008,1.8269,1.8787,1.9372,1.991,2.1295,2.2893,2.3637,2.4465,2.5202,2.5334,2.5943,2.6533,2.6533,2.6533,2.6533,2.6533,2.6533,2.6533,2.6533,2.6533,2.6533,2.6533,2.6533,2.6533,2.6533,2.6533,2.6533,2.6533,2.6533,2.6533,2.6533,2.6533,2.6533,2.6533,2.605,2.5799,2.5799,2.5674,2.5598,2.5598,2.6151,2.6533,2.6533,2.6533,2.6533,2.6533,2.6533,2.6533,2.6533,2.6533,2.6533,1.3382,1.342,1.3836,1.359,1.4414,1.5477,1.5935,1.5406,1.5157,1.6296,0.0,0.0,0.0,0.0,0.0,0.0,0.0,0.0,0.0,0.0,0.0,0.0,0.0,0.0,0.0,0.0,0.0,0.0,0.0,0.0,0.0,0.0,0.0,0.0,0.0,1.541,1.541,1.541,1.5449,1.5508,1.5508,1.5508,1.5518,1.5928,1.6113,1.6194,1.6582,1.6777,1.6777,1.6753,1.7061,1.7432,1.7432,1.7666,1.8008,1.8008,1.8008,1.8008,1.8008,1.8008,1.8144,1.8911,1.9243,1.9441,2.0313,2.1555,2.2738,2.281,2.4169,2.5707,2.6246,2.6465,2.6533,2.6533,2.6533,2.6533,2.6533,2.6533,2.6533,2.6533,2.6533,2.6533,2.6533,2.6533,2.6533,2.6533,2.6533,2.6533,2.6533,2.6533,2.6533,2.6533,2.6533,2.6533,2.6533,2.6496,2.6471,2.6471,2.5887,2.5598,2.5598,2.6151,2.6533,2.6533,2.6533,2.6533,2.6533,2.6533,2.6533,2.6533,2.6533,2.6533,1.3873,1.392,1.415,1.3312,1.3762,1.4541,1.51,1.4998,1.5015,1.5668,1.5584,0.0,0.0,0.0,0.0,0.0,0.0,0.0,0.0,0.0,0.0,0.0,0.0,0.0,0.0,0.0,0.0,0.0,0.0,0.0,0.0,0.0,0.0,0.0,0.0,1.541,1.541,1.541,1.541,1.541,1.541,1.541,1.542,1.5586,1.5654,1.5684,1.6123,1.6318,1.6338,1.6621,1.6826,1.7002,1.7275,1.748,1.7656,1.791,1.8008,1.8008,1.8008,1.8008,1.8076,1.8395,1.8854,1.9365,1.9694,2.0918,2.2246,2.2631,2.3607,2.4808,2.5699,2.6189,2.6533,2.6533,2.6533,2.6533,2.6533,2.6533,2.6533,2.6533,2.6533,2.6533,2.6533,2.6533,2.6533,2.6533,2.6533,2.6533,2.6533,2.6533,2.6533,2.6533,2.6533,2.6533,2.6533,2.6533,2.6533,2.6533,2.6319,2.6138,2.6138,2.6352,2.6533,2.6533,2.6533,2.6533,2.6533,2.6533,2.6533,2.6533,2.6533,2.6533,1.3779,1.3674,1.3606,1.2745,1.2871,1.3322,1.3917,1.4318,1.4642,1.4773,1.4906,1.5108,1.5352,0.0,0.0,0.0,0.0,0.0,0.0,0.0,0.0,0.0,0.0,0.0,0.0,0.0,0.0,0.0,0.0,0.0,0.0,0.0,0.0,0.0,0.0,0.0,1.541,1.541,1.541,1.541,1.541,1.541,1.541,1.541,1.541,1.543,1.5723,1.5859,1.5879,1.6191,1.6396,1.6572,1.7002,1.7178,1.7227,1.7656,1.7812,1.7832,1.7969,1.8008,1.8008,1.8008,1.8395,1.8911,1.9243,2.0139,2.1244,2.2178,2.3001,2.3827,2.4831,2.5636,2.6239,2.6483,2.6533,2.6533,2.6533,2.6533,2.6533,2.6533,2.6533,2.6533,2.6533,2.6533,2.6533,2.6533,2.6533,2.6533,2.6533,2.6533,2.6533,2.6533,2.6533,2.6533,2.6533,2.6533,2.6533,2.6533,2.6533,2.6533,2.6533,2.6533,2.6533,2.6533,2.6533,2.6533,2.6533,2.6533,2.6533,2.6533,2.6533,2.6314,1.3045,1.2344,1.1814,1.1814,1.1814,1.1922,1.2407,1.3336,1.3978,1.3659,1.3943,1.4451,1.5235,0.0,0.0,0.0,0.0,0.0,0.0,0.0,0.0,0.0,0.0,0.0,0.0,0.0,0.0,0.0,0.0,0.0,0.0,0.0,0.0,0.0,0.0,0.0,1.541,1.541,1.541,1.541,1.541,1.541,1.541,1.541,1.541,1.541,1.541,1.541,1.541,1.541,1.5664,1.6103,1.6553,1.6665,1.6777,1.7217,1.7383,1.7441,1.7861,1.8008,1.8008,1.8008,1.8008,1.8134,1.9044,1.9309,1.9683,2.1428,2.2321,2.2919,2.3791,2.4782,2.5724,2.6382,2.6533,2.6533,2.6533,2.6533,2.6533,2.6533,2.6533,2.6533,2.6533,2.6533,2.6533,2.6533,2.6533,2.6533,2.6533,2.6533,2.6533,2.6533,2.6533,2.6533,2.6533,2.6533,2.6533,2.6533,2.6533,2.6533,2.6533,2.6533,2.6533,2.6533,2.6533,2.6533,2.6465,2.6465,2.6452,2.6452,2.6452,2.5955,1.3589,1.2706,0.0,1.1814,0.0,0.0,0.0,1.2483,1.3252,0.0,1.3875,1.3606,1.4392,0.0,0.0,0.0,0.0,0.0,0.0,0.0,0.0,0.0,0.0,0.0,0.0,0.0,0.0,0.0,0.0,0.0,0.0,0.0,0.0,0.0,0.0,0.0,1.541,1.541,1.541,1.541,1.541,1.541,1.541,1.541,1.541,1.541,1.541,1.541,1.541,1.541,1.5488,1.5644,1.6084,1.626,1.6318,1.6758,1.7119,1.7402,1.7529,1.7764,1.8008,1.8008,1.8008,1.8134,1.9044,1.9748,2.0462,2.1553,2.2431,2.3158,2.3829,2.423,2.4707,2.5636,2.6163,2.6533,2.6533,2.6533,2.6533,2.6533,2.6533,2.6533,2.6533,2.6533,2.6533,2.6533,2.6533,2.6533,2.6533,2.6533,2.6533,2.6533,2.6533,2.6533,2.6533,2.6533,2.6533,2.6533,2.6533,2.6533,2.6533,2.6533,2.6533,2.6533,2.6533,2.6164,2.5441,2.5441,2.5075,2.4397,2.4397,2.4253,1.2677,1.1805,0.0,1.1015,1.0712,1.0517,1.0914,0.0,0.0,0.0,0.0,0.0,0.0,0.0,0.0,0.0,0.0,0.0,0.0,0.0,0.0,0.0,0.0,0.0,0.0,0.0,0.0,0.0,0.0,0.0,0.0,0.0,0.0,0.0,0.0,0.0,1.541,1.541,1.541,1.541,1.541,1.541,1.541,1.541,1.541,1.541,1.541,1.541,1.541,1.541,1.541,1.5439,1.5703,1.5801,1.5859,1.6299,1.6631,1.6885,1.7061,1.7402,1.7764,1.7764,1.7871,1.8202,1.9431,1.9944,2.0398,2.1928,2.2506,2.2776,2.3442,2.3828,2.4268,2.5335,2.5862,2.6189,2.6483,2.6533,2.6533,2.6533,2.6533,2.6533,2.6533,2.6533,2.6533,2.6533,2.6533,2.6533,2.6533,2.6533,2.6533,2.6533,2.6533,2.6533,2.6533,2.6533,2.6533,2.6533,2.6533,2.6533,2.6533,2.6533,2.6533,2.6533,2.6533,2.6164,2.5594,2.5594,2.5288,2.4696,2.4696,2.4253,1.1057,1.0364,0.9814,0.9814,0.9814,0.0,0.971,1.0459,1.1407,0.0,0.0,0.0,0.0,0.0,0.0,0.0,0.0,0.0,0.0,0.0,0.0,0.0,0.0,0.0,0.0,0.0,0.0,0.0,0.0,0.0,0.0,0.0,0.0,0.0,0.0,0.0,1.541,1.541,1.541,0.0,1.541,1.541,1.541,1.541,1.541,1.541,1.541,1.541,1.541,1.541,1.541,1.541,1.541,1.541,1.5459,1.5859,1.6086,1.6184,1.6533,1.6963,1.7334,1.7373,1.7703,1.8345,1.9998,2.0009,2.0009,2.231,2.2506,2.2199,2.2884,2.3527,2.418,2.5209,2.5523,2.5737,2.6264,2.6496,2.6533,2.6533,2.6533,2.6533,2.6533,2.6533,2.6533,2.6533,2.6533,2.6533,2.6533,2.6533,2.6533,2.6533,2.6533,2.6533,2.6533,2.6533,2.6533,2.6533,2.6533,2.6533,2.6533,2.6533,2.6533,2.6533,2.6533,2.6452,2.6383,2.6383,2.6233,2.6082,2.6082,2.5052,1.1607,1.0712,0.0,0.0,0.9814,0.9666,0.9159,0.9568,1.0444,0.0,0.0,0.0,0.0,0.0,0.0,0.0,0.0,0.0,0.0,0.0,0.0,0.0,0.0,0.0,0.0,0.0,0.0,0.0,0.0,0.0,0.0,0.0,0.0,0.0,0.0,1.541,1.541,1.541,1.541,0.0,1.541,1.541,1.541,1.541,1.541,1.541,1.541,1.541,1.541,1.541,1.541,1.541,1.541,1.541,1.542,1.5518,1.5762,1.6135,1.6172,1.6504,1.6924,1.7275,1.7881,1.8633,1.938,2.0398,2.1428,2.2002,2.2506,2.2884,2.3078,2.3226,2.3489,2.418,2.4983,2.5636,2.5749,2.6138,2.6533,2.6533,2.6533,2.6533,2.6533,2.6533,2.6533,2.6533,2.6533,2.6533,2.6533,2.6533,2.6533,2.6533,2.6533,2.6533,2.6533,2.6533,2.6533,2.6533,2.6533,2.6533,2.6533,2.6533,2.6533,2.6533,2.6533,2.6094,2.53,2.53,2.448,2.2988,2.2988,2.2328,1.0466,0.0,0.0,0.9309,0.0,0.9211,0.8857,0.9054,0.0,0.0,0.0,0.0,0.0,0.0,0.0,0.0,0.0,0.0,0.0,0.0,0.0,0.0,0.0,0.0,0.0,0.0,0.0,0.0,0.0,0.0,0.0,0.0,0.0,0.0,1.541,1.541,1.541,1.541,1.541,1.541,1.541,1.541,1.541,1.541,1.541,1.541,1.541,1.541,1.541,1.541,1.541,1.541,1.541,1.541,1.541,1.541,1.5557,1.5752,1.5752,1.6277,1.6991,1.7234,1.8124,1.926,1.9891,2.0968,2.2002,2.2384,2.2763,2.3078,2.3078,2.3078,2.3153,2.3514,2.4418,2.5297,2.5536,2.605,2.6533,2.6533,2.6533,2.6533,2.6533,2.6533,2.6533,2.6533,2.6533,2.6533,2.6533,2.6533,2.6533,2.6533,2.6533,2.6533,2.6533,2.6533,2.6533,2.6533,2.6533,2.6533,2.6533,2.6533,2.6245,2.5804,2.5804,2.5288,2.4264,2.4264,2.3745,2.2702,2.2702,2.2188,0.9106,0.0,0.8804,0.8804,0.8804,0.0,0.8804,0.8804,0.0,0.0,0.0,0.0,0.0,0.0,0.0,0.0,0.0,0.0,0.0,0.0,0.0,0.0,0.0,0.0,0.0,0.0,0.0,0.0,0.0,0.0,0.0,0.0,1.541,1.541,1.541,1.541,1.541,1.541,1.541,1.541,1.541,1.541,1.541,1.541,1.541,1.541,1.541,1.541,1.541,1.541,1.541,1.541,1.541,1.541,1.541,1.541,1.541,1.541,1.541,1.6056,1.6901,1.7162,1.8218,1.9666,2.0528,2.1317,2.2078,2.2725,2.3005,2.3078,2.3078,2.3078,2.3078,2.3078,2.3929,2.482,2.5347,2.5912,2.6408,2.6508,2.6533,2.6533,2.6533,2.6533,2.6533,2.6533,2.6533,2.6533,2.6533,2.6533,2.6533,2.6533,2.6533,2.6533,2.6533,2.6533,2.6533,2.6533,2.6533,2.6533,2.6533,2.6533,2.6025,2.5016,2.5146,2.4779,2.3745,2.3745,2.3599,2.322,2.322,2.2702,0.971,0.0,0.8804,0.0,0.8804,0.8804,0.0,0.0,0.0,0.0,0.0,0.0,0.0,0.0,0.0,0.0,0.0,0.0,0.0,0.0,0.0,0.0,0.0,0.0,0.0,0.0,0.0,0.0,0.0,0.0,0.0,1.541,1.541,1.541,1.541,1.541,1.541,1.541,1.541,1.541,1.541,1.541,1.541,1.541,1.541,1.541,1.541,1.541,1.541,1.541,1.541,1.541,1.541,1.541,1.541,1.541,1.541,1.541,1.541,1.5508,1.5791,1.6881,1.7846,1.88,1.9727,2.1008,2.2216,2.2128,2.2567,2.3078,2.3078,2.3078,2.3078,2.3078,2.364,2.4255,2.4808,2.5335,2.5862,2.6433,2.6533,2.6533,2.6533,2.6533,2.6533,2.6533,2.6533,2.6533,2.6533,2.6533,2.6533,2.6533,2.6533,2.6533,2.6533,2.6533,2.6533,2.6533,2.6533,2.6533,2.6533,2.6533,2.6025,2.5016,2.5873,2.5804,2.4791,2.4791,2.3891,2.2178,2.2178,2.1669,0.8125,0.8084,0.8209,0.0,0.8209,0.8321,0.8699,0.0,0.0,0.0,0.0,0.0,0.0,0.0,0.0,0.0,0.0,0.0,0.0,0.0,0.0,0.0,0.0,0.0,0.0,0.0,0.0,0.0,0.0,0.0,1.541,1.541,1.541,1.541,1.541,1.541,1.541,1.541,1.541,1.541,1.541,1.541,1.541,1.541,1.541,1.541,1.541,1.541,1.541,1.541,1.541,1.541,1.541,1.541,1.541,1.541,1.541,1.541,1.541,1.57,1.6124,1.6618,1.7876,1.9272,1.9947,2.115,2.2364,2.2541,2.2823,2.3078,2.3078,2.3078,2.3078,2.3078,2.3265,2.3665,2.4243,2.5008,2.5774,2.6352,2.6533,2.6533,2.6533,2.6533,2.6533,2.6533,2.6533,2.6533,2.6533,2.6533,2.6533,2.6533,2.6533,2.6533,2.6533,2.6533,2.6533,2.6533,2.6533,2.6533,2.6533,2.6533,2.6314,2.5873,2.5734,2.4921,2.3294,2.3294,2.2487,2.0848,2.0848,2.0502,0.0,0.0,0.7402,0.7402,0.7563,0.783,0.0,0.0,0.0,0.0,0.0,0.0,0.0,0.0,0.0,0.0,0.0,0.0,0.0,0.0,0.0,0.0,0.0,0.0,0.0,0.0,0.0,0.0,0.0,0.0,1.5088,1.5088,1.5137,1.5244,1.5254,1.5303,1.541,1.541,1.541,1.541,1.541,1.541,1.541,1.541,1.541,1.541,1.541,1.541,1.541,1.541,1.541,1.541,1.541,1.541,1.541,1.541,1.541,1.541,1.541,1.5748,1.6265,1.6436,1.7667,1.925,1.9951,2.1076,2.2221,2.2774,2.2965,2.3078,2.3078,2.3078,2.3078,2.3078,2.3078,2.3265,2.4054,2.4933,2.5774,2.6352,2.6533,2.6533,2.6533,2.6533,2.6533,2.6533,2.6533,2.6533,2.6533,2.6533,2.6533,2.6533,2.6533,2.6533,2.6533,2.6533,2.6533,2.6533,2.6533,2.6533,2.6533,2.6233,2.6094,2.6094,2.5146,2.3891,2.2403,2.2286,2.1393,1.9912,1.9805,1.959,0.0,0.6642,0.0,0.6642,0.7182,0.0,0.0,0.0,0.0,0.0,0.0,0.0,0.0,0.0,0.0,0.0,0.0,0.0,0.0,0.0,0.0,0.0,0.0,0.0,0.0,0.0,0.0,0.0,0.0,0.0,1.4145,1.4145,1.4385,1.4805,1.4814,1.501,1.541,1.541,1.541,1.541,1.541,1.541,1.541,1.541,1.541,1.541,1.541,1.541,1.541,1.541,1.541,1.541,1.541,1.541,1.541,1.541,1.541,1.541,1.541,1.541,1.5584,1.6255,1.7056,1.7933,1.9238,2.0514,2.1644,2.2196,2.2736,2.3078,2.3078,2.3078,2.3078,2.3078,2.3078,2.3378,2.4544,2.5209,2.5774,2.6352,2.6533,2.6533,2.6533,2.6533,2.6533,2.6533,2.6533,2.6533,2.6533,2.6533,2.6533,2.6533,2.6533,2.6533,2.6533,2.6533,2.6533,2.6533,2.6533,2.6533,2.6533,2.5581,2.5075,2.5075,2.4108,2.3514,2.3441,2.3066,2.1814,1.9902,1.9502,1.9307,0.0,0.0,0.0,0.5873,0.6086,0.0,0.0,0.0,0.0,0.0,0.0,0.0,0.0,0.0,0.0,0.0,0.0,0.0,0.0,0.0,0.0,0.0,0.0,0.0,0.0,0.0,0.0,0.0,0.0,0.0,1.3476,1.3863,1.4209,1.4365,1.4365,1.4443,1.4535,1.4873,1.501,1.501,1.5283,1.541,1.541,1.541,1.541,1.541,1.541,1.541,1.541,1.541,1.541,1.541,1.541,1.541,1.541,1.541,1.541,1.541,1.541,1.541,1.5468,1.569,1.6631,1.7778,1.8634,2.0129,2.1606,2.2159,2.2711,2.3078,2.3078,2.3078,2.3078,2.3078,2.3078,2.3351,2.4117,2.472,2.5372,2.6345,2.6533,2.6533,2.6533,2.6533,2.6533,2.6533,2.6533,2.6533,2.6533,2.6533,2.6533,2.6533,2.6533,2.6533,2.6533,2.6533,2.6533,2.6533,2.6533,2.6533,2.6533,2.5511,2.53,2.5943,2.4325,2.3147,2.2553,2.2164,2.1063,1.9502,1.9072,1.8721,0.4625,0.0,0.0,0.0,0.0,0.0,0.0,0.0,0.0,0.0,0.0,0.0,0.0,0.0,0.0,0.0,0.0,0.0,0.0,0.0,0.0,0.0,0.0,0.0,0.0,0.0,0.0,0.0,0.0,0.0,1.2626,1.3109,1.3499,1.3873,1.4009,1.4077,1.4077,1.4424,1.457,1.457,1.4853,1.5059,1.5205,1.5205,1.5283,1.541,1.541,1.541,1.541,1.541,1.541,1.541,1.541,1.541,1.541,1.541,1.5584,1.5748,1.5468,1.5748,1.6083,1.5864,1.6743,1.8018,1.8428,1.9917,2.1556,2.1933,2.2573,2.3078,2.3078,2.3078,2.3078,2.3078,2.3078,2.3288,2.3879,2.4431,2.5096,2.6,2.6327,2.6533,2.6533,2.6533,2.6533,2.6533,2.6533,2.6533,2.6533,2.6533,2.6533,2.6533,2.6533,2.6533,2.6533,2.6533,2.6533,2.6533,2.6164,2.6164,2.6465,2.4921,2.448,2.5499,2.3514,2.2114,2.1281,2.1209,2.0473,1.9053,1.8623,1.8281,0.0,0.0,0.0,0.0,0.0,0.0,0.0,0.0,0.0,0.0,0.0,0.0,0.0,0.0,0.0,0.0,0.0,0.0,0.0,0.0,0.0,0.0,0.0,0.0,0.0,0.0,0.0,0.0,0.0,1.0364,1.1715,1.1814,1.2364,1.3477,1.3887,1.4048,1.4048,1.4058,1.4058,1.4058,1.4077,1.4355,1.4766,1.4775,1.501,1.5391,1.54,1.541,1.541,1.541,1.541,1.541,1.541,1.541,1.541,1.541,1.5864,1.6379,1.57,1.6358,1.7468,1.6765,1.7523,1.8715,1.8661,1.997,2.1493,2.1481,2.2284,2.3078,2.3078,2.3078,2.3078,2.3078,2.3078,2.3288,2.3853,2.4406,2.4958,2.5485,2.6063,2.6533,2.6533,2.6533,2.6533,2.6533,2.6533,2.6533,2.6533,2.6533,2.6533,2.6533,2.6533,2.6533,2.6533,2.6533,2.6533,2.6533,2.5594,2.5441,2.6383,2.3576,2.2478,2.3514,2.1603,2.0342,1.9968,2.0473,2.0031,1.8623,1.8203,1.8008,0.4519,0.0,0.0,0.0,0.0,0.0,0.0,0.0,0.0,0.0,0.0,0.0,0.0,0.0,0.0,0.0,0.0,0.0,0.0,0.0,0.0,0.0,0.0,0.0,0.0,0.0,0.0,0.0,0.951,1.0167,1.1015,1.2039,1.2724,1.3047,1.3164,1.3232,1.3232,1.3525,1.3682,1.3682,1.3941,1.4145,1.4326,1.4648,1.4844,1.4971,1.5283,1.541,1.541,1.541,1.541,1.541,1.541,1.541,1.541,1.541,1.5526,1.5748,1.6093,1.6482,1.6866,1.7202,1.7961,1.8608,1.807,1.9574,2.1369,2.0836,2.1851,2.3078,2.3078,2.3078,2.3078,2.3078,2.3078,2.3175,2.3339,2.3816,2.4494,2.5423,2.6063,2.6533,2.6533,2.6533,2.6533,2.6533,2.6533,2.6533,2.6533,2.6533,2.6533,2.6533,2.6533,2.6533,2.6533,2.6533,2.6533,2.6533,2.5594,2.5158,2.537,2.322,2.2478,2.3514,2.1603,2.0566,2.0524,1.998,1.934,1.8623,1.8203,1.8008,0.4519,0.4519,0.4519,0.0,0.0,0.0,0.0,0.4519,0.0,0.0,0.0,0.0,0.0,0.0,0.0,0.0,0.0,0.0,0.0,0.0,0.0,0.0,0.0,0.0,0.0,0.0,0.0,0.0,0.9159,0.9814,1.0771,1.1832,1.2559,1.2881,1.2881,1.2881,1.2881,1.3125,1.3242,1.3252,1.3496,1.3701,1.3887,1.4141,1.4453,1.4795,1.5039,1.5254,1.541,1.541,1.541,1.541,1.541,1.541,1.541,1.541,1.5584,1.5921,1.6368,1.6922,1.7468,1.7907,1.8555,1.9097,1.8661,1.9757,2.1137,2.09,2.1922,2.3078,2.3078,2.3078,2.3078,2.3078,2.3078,2.3078,2.3078,2.359,2.4255,2.5109,2.5724,2.6176,2.6483,2.6533,2.6533,2.6533,2.6533,2.6533,2.6533,2.6533,2.6533,2.6533,2.6533,2.6533,2.6533,2.6094,2.5873,2.5873,2.4552,2.3963,2.4337,2.2478,2.1886,2.285,2.1192,2.0163,1.9919,1.9479,1.8975,1.8369,1.8125,1.8008,0.4519,0.4519,0.4519,0.0,0.0,0.0,0.4519,0.4519,0.0,0.0,0.0,0.0,0.0,0.0,0.0,0.0,0.0,0.0,0.0,0.0,0.0,0.0,0.0,0.0,0.0,0.0,0.8804,0.8804,0.8857,0.9413,1.0618,1.1416,1.208,1.2774,1.2881,1.2881,1.2881,1.2881,1.2881,1.2881,1.2881,1.3076,1.3437,1.3486,1.3926,1.4648,1.4746,1.5,1.5342,1.5391,1.541,1.541,1.541,1.541,1.541,1.541,1.5806,1.6368,1.6539,1.7468,1.8608,1.8768,1.9254,1.9798,1.9695,2.016,2.079,2.1405,2.2334,2.3078,2.3078,2.3078,2.3078,2.3078,2.3078,2.3078,2.3078,2.354,2.4067,2.4619,2.5197,2.5762,2.6276,2.6483,2.6533,2.6533,2.6533,2.6533,2.6533,2.6533,2.6533,2.6533,2.6533,2.6452,2.6314,2.5511,2.4933,2.4862,2.3073,2.2403,2.3294,2.1603,2.1011,2.1811,2.0522,1.9443,1.8562,1.8984,1.875,1.8008,1.8008,1.8008,0.0,0.0,0.0,0.0,0.0,0.0,0.4519,0.4519,0.0,0.0,0.0,0.0,0.0,0.0,0.0,0.0,0.0,0.0,0.0,0.0,0.0,0.0,0.0,0.0,0.0,0.0,0.8804,0.8804,0.9309,0.971,0.9961,1.1166,1.1873,1.2021,1.2608,1.2881,1.2881,1.2881,1.2881,1.2881,1.2881,1.293,1.3018,1.335,1.3603,1.3799,1.4482,1.4834,1.4932,1.5273,1.541,1.541,1.541,1.541,1.541,1.541,1.5468,1.5806,1.6968,1.7578,1.8004,1.9202,1.9695,1.9695,1.9097,1.9765,2.092,2.187,2.2623,2.3078,2.3078,2.3078,2.3078,2.3078,2.3078,2.3078,2.3078,2.3165,2.3477,2.4042,2.4933,2.5636,2.5749,2.6151,2.6533,2.6533,2.6533,2.6533,2.6533,2.6533,2.6533,2.6533,2.6533,2.6164,2.537,2.5087,2.4636,2.3818,2.2627,2.2103,2.2253,2.1231,2.0722,2.0857,1.987,1.915,1.8562,1.8389,1.8174,1.8008,1.8008,1.8008,0.0,0.0,0.0,0.4519,0.0,0.0,0.0,0.4519,0.4519,0.0,0.0,0.0,0.0,0.0,0.0,0.0,0.0,0.0,0.0,0.0,0.0,0.0,0.0,0.0,0.0,0.0,0.8962,0.9256,0.9309,0.9614,1.0261,1.0965,1.1458,1.1765,1.251,1.2881,1.2881,1.2881,1.2881,1.2881,1.2881,1.2881,1.2891,1.3096,1.3311,1.3545,1.418,1.458,1.4814,1.5234,1.541,1.541,1.541,1.541,1.541,1.541,1.541,1.5633,1.7079,1.7578,1.7841,1.9307,1.9798,1.9747,1.9371,2.0122,2.1192,2.1744,2.2498,2.3078,2.3078,2.3078,2.3078,2.3078,2.3078,2.3078,2.3078,2.3078,2.3165,2.3514,2.4243,2.4971,2.5498,2.5837,2.6126,2.6483,2.6533,2.6533,2.6533,2.6533,2.6533,2.6533,2.6025,2.5523,2.5004,2.4108,2.3294,2.2776,2.1821,2.1298,2.1298,2.0857,2.0361,1.9941,1.9297,1.875,1.832,1.8115,1.8008,1.8008,1.8008,1.8008,0.0,0.0,0.0,0.0,0.0,0.4519,0.0,0.0,0.0,0.4519,0.0,0.0,0.0,0.0,0.0,0.0,0.0,0.0,0.0,0.0,0.0,0.0,0.0,0.0,0.0,0.0,0.9008,0.9562,0.9211,0.9413,1.0364,1.0762,1.1166,1.1616,1.2452,1.2881,1.2881,1.2881,1.2881,1.2881,1.2881,1.2881,1.2881,1.2881,1.3066,1.3418,1.3863,1.4336,1.4697,1.5205,1.541,1.541,1.541,1.541,1.541,1.541,1.5468,1.5806,1.7135,1.7677,1.8015,1.9371,1.9798,1.9798,1.9798,2.0589,2.1493,2.1493,2.2284,2.3078,2.3078,2.3078,2.3078,2.3078,2.3078,2.3078,2.3078,2.3078,2.3078,2.3078,2.3514,2.4142,2.5121,2.546,2.5749,2.6226,2.6458,2.6533,2.6533,2.6533,2.6452,2.6245,2.5511,2.4862,2.448,2.2925,2.1886,2.1735,2.1011,2.0566,2.0566,2.0478,2.0039,1.918,1.8818,1.8428,1.8008,1.8008,1.8008,1.8008,1.8008,1.8008,0.0,0.0,0.0,0.0,0.4519,0.0,0.0,0.0,0.4519,0.4519,0.0,0.4519,0.4519,0.0,0.0,0.0,0.0,0.0,0.0,0.0,0.0,0.0,0.0,0.0,0.0,0.0,0.0,0.891,0.9413,0.951,0.9061,1.0712,1.1466,1.0914,1.2206,1.2881,1.2881,1.2881,1.2881,1.2881,1.2881,1.2881,1.2881,1.2881,1.291,1.2998,1.3789,1.4107,1.4214,1.5078,1.541,1.541,1.541,1.541,1.541,1.541,1.5806,1.6482,1.7302,1.8015,1.8715,1.9527,1.9798,1.9798,1.9798,2.0589,2.1493,2.1493,2.2284,2.3078,2.3078,2.3078,2.3078,2.3078,2.3078,2.3078,2.3078,2.3078,2.3078,2.3078,2.3188,2.3439,2.4067,2.4971,2.5624,2.5686,2.6138,2.6533,2.6533,2.6533,2.6164,2.53,2.5087,2.4264,2.2478,2.2103,2.1659,2.0789,2.0644,2.0566,2.0566,2.0195,1.958,1.873,1.8662,1.8428,1.8008,1.8008,1.8008,1.8008,1.8008,1.8008,0.0,0.0,0.0,0.0,0.0,0.0,0.0,0.0,0.4519,0.0,0.0,0.0,0.0,0.0,0.0,0.0,0.0,0.0,0.0,0.0,0.0,0.0,0.0,0.0,0.0,0.0,0.0,0.0,0.0,0.9666,0.9413,1.0568,1.1116,1.0813,1.1733,1.2452,1.2881,1.2881,1.2881,1.2881,1.2881,1.2881,1.2881,1.2881,1.2881,1.293,1.3769,1.4077,1.4145,1.5059,1.541,1.541,1.541,1.541,1.541,1.541,1.5584,1.6036,1.7191,1.7786,1.8221,1.9423,1.9798,1.9798,1.9798,2.0589,2.1493,2.1493,2.2284,2.3078,2.3078,2.3078,2.3078,2.3078,2.3078,2.3078,2.3078,2.3078,2.3078,2.3078,2.3078,2.3153,2.3452,2.4155,2.4782,2.5096,2.536,2.5511,2.5511,2.5511,2.5365,2.4952,2.3883,2.2945,2.2084,2.1032,2.0252,1.9899,2.0049,2.0185,2.0185,1.9775,1.9385,1.9023,1.8525,1.8184,1.8008,1.8008,1.8008,1.8008,1.8008,1.8008,0.4519,0.0,0.0,0.0,0.0,0.0,0.0,0.0,0.0,0.0,0.0,0.0,0.0,0.0,0.4519,0.0,0.0,0.0,0.0,0.0,0.0,0.0,0.0,0.0,0.0,0.0,0.0,0.0,0.0,0.0,0.9814,1.0779,1.1275,1.1065,1.1724,1.2344,1.2881,1.2881,1.2881,1.2881,1.2881,1.2881,1.2881,1.2881,1.2881,1.293,1.3769,1.4077,1.4145,1.5059,1.541,1.541,1.541,1.541,1.541,1.541,1.5633,1.613,1.7246,1.7841,1.8382,1.9475,1.9798,1.9798,1.9798,2.0589,2.1493,2.1493,2.2284,2.3078,2.3078,2.3078,2.3078,2.3078,2.3078,2.3078,2.3078,2.3078,2.3078,2.3078,2.3078,2.3078,2.3078,2.3615,2.4142,2.4531,2.472,2.482,2.482,2.482,2.4678,2.4406,2.2942,2.1898,2.1633,2.0186,1.9287,1.9287,1.957,1.9687,1.957,1.9268,1.9053,1.8936,1.833,1.8008,1.8008,1.8008,1.8008,1.8008,1.8008,1.8008,0.0,0.0,0.0,0.4519,0.0,0.0,0.0,0.0,0.4519,0.0,0.0,0.0,0.0,0.4519,0.4519,0.4519,0.0,0.0,0.0,0.0,0.0,0.0,0.0,0.0,0.0,0.0,0.0,0.0,0.0,0.0,0.9814,1.1751,1.251,1.1765,1.2501,1.2881,1.2881,1.2881,1.2881,1.2881,1.2881,1.2881,1.2881,1.2881,1.2881,1.293,1.3769,1.4077,1.4145,1.5059,1.541,1.541,1.541,1.541,1.541,1.541,1.6301,1.7523,1.7578,1.8555,1.9747,1.9798,1.9798,1.9798,1.9798,2.0589,2.1493,2.1493,2.2284,2.3078,2.3078,2.3078,2.3078,2.3078,2.3078,2.3078,2.3078,2.3078,2.3078,2.3078,2.3078,2.3078,2.3078,2.3615,2.4004,2.4017,2.4481,2.482,2.482,2.482,2.4406,2.3423,2.2525,2.1622,2.0744,1.9847,1.9287,1.9287,1.9297,1.9121,1.8691,1.8592,1.8467,1.8057,1.8018,1.8008,1.8008,1.8008,1.8008,1.8008,1.8008,1.8008,0.0,0.0,0.4519,0.4519,0.0,0.0,0.0,0.0,0.0,0.0,0.0,0.0,0.0,0.0,0.4519,0.4519,0.4519,0.457,0.0,0.0,0.0,0.0,0.0,0.0,0.0,0.0,0.0,0.0,0.0,0.0,0.0,1.1525,1.208,1.1814,1.203,1.2403,1.2881,1.2881,1.2881,1.2881,1.2881,1.2881,1.2881,1.2881,1.2881,1.293,1.3769,1.4077,1.4145,1.5059,1.541,1.541,1.541,1.541,1.541,1.541,1.5748,1.6301,1.7246,1.8555,1.9798,1.9798,1.9798,1.9798,1.9798,2.0589,2.1493,2.1493,2.2284,2.3078,2.3078,2.3078,2.3078,2.3078,2.3078,2.3078,2.3078,2.3078,2.3078,2.3078,2.3078,2.3078,2.3078,2.3301,2.3427,2.3427,2.359,2.3641,2.3641,2.3641,2.3319,2.2464,2.1606,2.0687,1.9828,1.8903,1.8437,1.8437,1.8701,1.8789,1.8643,1.8562,1.8574,1.8428,1.8154,1.8008,1.8008,1.8008,1.8008,1.8008,1.8008,1.8008,0.4519,0.4519,0.0,0.4519,0.4519,0.0,0.4519,0.0,0.0,0.0,0.0,0.0,0.0,0.0,0.4838,0.4838,0.468,0.457,0.0,0.5218,0.0,0.0,0.0,0.0,0.0,0.0,0.0,0.0,0.0,0.0,0.0,0.0,1.2187,1.2187,1.2187,1.2403,1.2881,1.2881,1.2881,1.2881,1.2881,1.2881,1.2881,1.2881,1.2881,1.293,1.3769,1.4077,1.4145,1.5059,1.541,1.541,1.541,1.541,1.541,1.541,1.5748,1.6358,1.7567,1.8768,1.9798,1.9798,1.9798,1.9798,1.9798,2.0589,2.1531,2.1732,2.2435,2.3175,2.3389,2.3288,2.3078,2.3078,2.3078,2.3078,2.3078,2.3078,2.3078,2.3078,2.3078,2.3078,2.3078,2.3078,2.3078,2.3078,2.3078,2.3078,2.3078,2.3078,2.2884,2.2384,2.129,2.0139,1.8911,1.8337,1.8008,1.8008,1.8262,1.8418,1.8418,1.8418,1.8486,1.8633,1.8223,1.8086,1.8232,1.8086,1.8008,1.8008,1.8008,1.8008]},{"header":{"parameterUnit":"m.s-1","parameterCategory":1,"la1":30.6,"la2":29.2853,"lo1":-89.7004,"lo2":-87.6739,"dy":0.0162,"dx":0.0183,"nx":112,"ny":82,"refTime":"2023-05-18T12:00:00:Z","depth":0,"parameterNumber":3,"parameterNumberName":"V-component_of_WINDS"},"data":[0.0,0.0,0.0,0.0,0.0,0.0,0.0,0.0,0.0,0.0,0.0,0.0,0.0,0.0,0.0,0.0,0.0,0.0,0.0,0.0,0.0,0.0,0.0,0.0,0.0,0.0,0.0,0.0,0.0,0.0,0.0,0.0,0.0,0.0,0.0,0.0,0.0,0.0,0.0,0.0,0.0,0.0,0.0,0.0,0.0,0.0,0.0,0.0,0.0,0.0,0.0,0.0,0.0,0.0,0.0,0.0,0.0,0.0,0.0,0.0,0.0,0.0,0.0,0.0,0.0,0.0,0.0,0.0,0.0,0.0,0.0,0.0,0.0,0.0,0.0,0.0,0.0,0.0,0.0,0.0,0.0,0.0,0.0,0.0,0.0,0.0,0.0,0.0,0.0,0.0,0.0,2.7625,2.7625,2.7625,2.7625,2.7625,2.7625,2.7625,0.0,0.0,0.0,0.0,0.0,0.0,0.0,0.0,0.0,0.0,0.0,0.0,0.0,0.0,0.0,0.0,0.0,0.0,0.0,0.0,0.0,0.0,0.0,0.0,0.0,0.0,0.0,0.0,0.0,0.0,0.0,0.0,0.0,0.0,0.0,0.0,0.0,0.0,0.0,0.0,0.0,0.0,0.0,0.0,0.0,0.0,0.0,0.0,0.0,0.0,0.0,0.0,0.0,0.0,0.0,0.0,0.0,0.0,0.0,0.0,0.0,0.0,0.0,0.0,0.0,0.0,0.0,0.0,0.0,0.0,0.0,0.0,0.0,0.0,0.0,0.0,0.0,0.0,0.0,0.0,0.0,0.0,0.0,0.0,0.0,0.0,0.0,0.0,0.0,0.0,0.0,0.0,0.0,0.0,0.0,0.0,0.0,0.0,0.0,0.0,0.0,0.0,0.0,0.0,2.7625,2.7625,2.7625,2.7625,2.7625,2.7625,2.7625,2.7625,0.0,0.0,0.0,0.0,0.0,0.0,0.0,0.0,0.0,0.0,0.0,0.0,0.0,0.0,0.0,0.0,0.0,0.0,0.0,0.0,0.0,0.0,0.0,0.0,0.0,0.0,0.0,0.0,0.0,0.0,0.0,0.0,0.0,0.0,0.0,0.0,0.0,0.0,0.0,0.0,0.0,0.0,0.0,0.0,0.0,0.0,0.0,0.0,0.0,0.0,0.0,0.0,0.0,0.0,0.0,0.0,0.0,0.0,0.0,0.0,0.0,0.0,0.0,0.0,0.0,0.0,0.0,0.0,0.0,0.0,0.0,0.0,0.0,0.0,0.0,0.0,0.0,0.0,0.0,0.0,0.0,0.0,0.0,0.0,0.0,0.0,0.0,0.0,0.0,0.0,0.0,0.0,0.0,0.0,0.0,0.0,0.0,0.0,0.0,0.0,0.0,0.0,0.0,2.7625,2.7625,2.7625,2.7625,2.7625,2.7625,2.7625,2.7625,2.7625,2.8415,0.0,0.0,0.0,0.0,0.0,0.0,0.0,0.0,0.0,0.0,0.0,0.0,0.0,0.0,0.0,0.0,0.0,0.0,0.0,0.0,0.0,0.0,0.0,0.0,0.0,0.0,0.0,0.0,0.0,0.0,0.0,0.0,0.0,0.0,0.0,0.0,0.0,0.0,0.0,0.0,0.0,0.0,0.0,0.0,0.0,0.0,0.0,0.0,0.0,0.0,0.0,0.0,0.0,0.0,0.0,0.0,0.0,0.0,0.0,0.0,0.0,0.0,0.0,0.0,0.0,0.0,0.0,0.0,0.0,0.0,0.0,0.0,0.0,0.0,0.0,0.0,0.0,0.0,0.0,0.0,0.0,0.0,0.0,0.0,0.0,0.0,0.0,0.0,0.0,0.0,0.0,0.0,0.0,0.0,0.0,0.0,0.0,0.0,0.0,0.0,0.0,0.0,2.7625,2.7625,2.7625,2.7625,2.7625,2.7625,2.7625,2.7625,2.7625,2.8189,0.0,0.0,0.0,0.0,0.0,0.0,0.0,0.0,0.0,0.0,0.0,0.0,0.0,0.0,0.0,0.0,0.0,0.0,0.0,0.0,0.0,0.0,0.0,0.0,0.0,0.0,0.0,0.0,0.0,0.0,0.0,0.0,0.0,0.0,0.0,0.0,0.0,0.0,0.0,0.0,0.0,0.0,0.0,0.0,0.0,0.0,0.0,0.0,0.0,0.0,0.0,0.0,0.0,0.0,0.0,0.0,0.0,0.0,0.0,0.0,0.0,0.0,0.0,0.0,0.0,0.0,0.0,0.0,0.0,0.0,0.0,0.0,0.0,0.0,0.0,0.0,0.0,0.0,0.0,0.0,0.0,0.0,0.0,0.0,0.0,0.0,0.0,0.0,0.0,0.0,0.0,0.0,0.0,0.0,0.0,0.0,0.0,0.0,0.0,0.0,0.0,0.0,2.7625,2.7625,2.7625,2.7625,2.7625,2.7625,2.7625,2.7625,2.7625,2.8189,0.0,0.0,0.0,0.0,0.0,0.0,0.0,0.0,0.0,0.0,0.0,0.0,0.0,0.0,0.0,0.0,0.0,0.0,0.0,0.0,0.0,0.0,0.0,0.0,0.0,0.0,0.0,0.0,0.0,0.0,0.0,0.0,0.0,0.0,0.0,0.0,0.0,0.0,0.0,0.0,0.0,0.0,0.0,0.0,0.0,0.0,0.0,0.0,0.0,0.0,0.0,0.0,0.0,0.0,0.0,0.0,0.0,0.0,0.0,0.0,0.0,0.0,0.0,0.0,0.0,0.0,0.0,0.0,0.0,0.0,0.0,0.0,0.0,0.0,0.0,0.0,0.0,0.0,0.0,0.0,0.0,0.0,0.0,0.0,0.0,0.0,0.0,0.0,0.0,0.0,0.0,0.0,0.0,0.0,0.0,0.0,0.0,0.0,0.0,0.0,0.0,0.0,2.7625,2.7625,0.0,2.7625,2.7625,2.7625,2.7625,2.7754,2.8188,0.0,0.0,0.0,0.0,0.0,0.0,0.0,0.0,0.0,0.0,0.0,0.0,0.0,0.0,0.0,0.0,0.0,0.0,0.0,0.0,0.0,0.0,0.0,0.0,0.0,0.0,0.0,0.0,0.0,0.0,0.0,0.0,0.0,0.0,0.0,0.0,0.0,0.0,0.0,0.0,0.0,0.0,0.0,0.0,0.0,0.0,0.0,0.0,0.0,0.0,0.0,0.0,0.0,0.0,0.0,0.0,0.0,0.0,0.0,0.0,0.0,0.0,0.0,0.0,0.0,0.0,0.0,0.0,0.0,0.0,0.0,0.0,0.0,0.0,0.0,0.0,0.0,0.0,0.0,0.0,0.0,0.0,0.0,0.0,0.0,0.0,0.0,0.0,0.0,0.0,0.0,0.0,0.0,0.0,0.0,0.0,0.0,0.0,0.0,0.0,0.0,0.0,2.7625,2.7625,2.7625,0.0,2.7769,2.7904,2.7904,2.8083,2.8412,2.8891,0.0,0.0,0.0,0.0,0.0,0.0,0.0,0.0,0.0,0.0,0.0,0.0,0.0,0.0,0.0,0.0,0.0,0.0,0.0,0.0,0.0,0.0,0.0,0.0,0.0,0.0,0.0,0.0,0.0,0.0,0.0,0.0,0.0,0.0,0.0,0.0,0.0,0.0,0.0,0.0,0.0,0.0,0.0,0.0,0.0,0.0,0.0,0.0,0.0,0.0,0.0,0.0,0.0,0.0,0.0,0.0,0.0,0.0,0.0,0.0,0.0,0.0,0.0,0.0,0.0,0.0,0.0,0.0,0.0,0.0,0.0,0.0,0.0,0.0,0.0,0.0,0.0,0.0,0.0,0.0,0.0,0.0,0.0,0.0,0.0,0.0,0.0,0.0,0.0,0.0,0.0,0.0,0.0,0.0,0.0,0.0,0.0,0.0,0.0,0.0,0.0,0.0,2.7625,2.7625,2.7625,2.7625,2.8188,2.8607,2.8607,2.9205,2.9579,0.0,0.0,0.0,0.0,0.0,0.0,0.0,0.0,0.0,0.0,0.0,0.0,0.0,0.0,0.0,0.0,0.0,0.0,0.0,0.0,0.0,0.0,0.0,0.0,0.0,0.0,0.0,0.0,0.0,0.0,0.0,0.0,0.0,0.0,0.0,0.0,0.0,0.0,0.0,0.0,0.0,0.0,0.0,0.0,0.0,0.0,0.0,0.0,0.0,0.0,0.0,0.0,0.0,0.0,0.0,0.0,0.0,0.0,0.0,0.0,0.0,0.0,0.0,0.0,0.0,0.0,0.0,0.0,0.0,0.0,0.0,0.0,0.0,0.0,0.0,0.0,0.0,0.0,0.0,0.0,0.0,0.0,0.0,0.0,0.0,0.0,0.0,0.0,0.0,0.0,0.0,0.0,0.0,0.0,0.0,0.0,0.0,0.0,0.0,0.0,0.0,0.0,0.0,2.7625,2.7625,2.7754,2.8248,2.8472,2.8786,2.925,2.9475,2.9759,3.0208,0.0,0.0,0.0,0.0,0.0,0.0,0.0,0.0,0.0,0.0,0.0,0.0,0.0,0.0,0.0,0.0,0.0,0.0,0.0,0.0,0.0,0.0,0.0,0.0,0.0,0.0,0.0,0.0,0.0,0.0,0.0,0.0,0.0,0.0,0.0,0.0,0.0,0.0,0.0,0.0,0.0,0.0,0.0,0.0,0.0,0.0,0.0,0.0,0.0,0.0,0.0,0.0,0.0,0.0,0.0,0.0,0.0,0.0,0.0,0.0,0.0,0.0,0.0,0.0,0.0,0.0,0.0,0.0,0.0,0.0,0.0,0.0,0.0,0.0,0.0,0.0,0.0,0.0,0.0,0.0,0.0,0.0,0.0,0.0,0.0,0.0,0.0,0.0,0.0,0.0,0.0,0.0,0.0,0.0,0.0,0.0,0.0,0.0,0.0,0.0,0.0,0.0,2.7625,2.7814,2.8143,2.8562,2.9056,2.952,2.9909,3.0193,3.0522,3.0896,0.0,0.0,0.0,0.0,0.0,0.0,0.0,0.0,0.0,0.0,0.0,0.0,0.0,0.0,0.0,0.0,0.0,0.0,0.0,0.0,0.0,0.0,0.0,0.0,0.0,0.0,0.0,0.0,0.0,0.0,0.0,0.0,0.0,0.0,0.0,0.0,0.0,0.0,0.0,0.0,0.0,0.0,0.0,0.0,0.0,0.0,0.0,0.0,0.0,0.0,0.0,0.0,0.0,0.0,0.0,0.0,0.0,0.0,0.0,0.0,0.0,0.0,0.0,0.0,0.0,0.0,0.0,0.0,0.0,0.0,0.0,0.0,0.0,0.0,0.0,0.0,0.0,0.0,0.0,0.0,0.0,0.0,0.0,0.0,0.0,0.0,0.0,0.0,0.0,0.0,0.0,0.0,0.0,0.0,0.0,0.0,0.0,0.0,0.0,0.0,0.0,0.0,2.7664,2.8203,2.8652,2.8757,2.9819,3.0537,3.0597,3.118,3.1482,3.1482,0.0,0.0,0.0,0.0,0.0,0.0,0.0,0.0,0.0,0.0,0.0,0.0,0.0,0.0,0.0,0.0,0.0,0.0,0.0,0.0,0.0,0.0,0.0,0.0,0.0,0.0,0.0,0.0,0.0,0.0,0.0,0.0,0.0,0.0,0.0,0.0,0.0,0.0,0.0,0.0,0.0,0.0,0.0,0.0,0.0,0.0,0.0,0.0,0.0,0.0,0.0,0.0,0.0,0.0,0.0,0.0,0.0,0.0,0.0,0.0,1.8382,0.0,0.0,0.0,0.0,0.0,0.0,0.0,0.0,0.0,0.0,0.0,0.0,0.0,0.0,0.0,0.0,0.0,0.0,0.0,0.0,0.0,0.0,0.0,0.0,0.0,0.0,0.0,0.0,0.0,0.0,0.0,0.0,0.0,0.0,0.0,0.0,0.0,0.0,0.0,0.0,0.0,2.8308,2.8502,2.8981,2.9998,3.0342,3.0717,3.127,3.1392,3.1482,3.1482,0.0,0.0,0.0,0.0,0.0,0.0,0.0,0.0,0.0,0.0,0.0,0.0,0.0,0.0,0.0,0.0,0.0,0.0,0.0,0.0,0.0,0.0,0.0,0.0,0.0,0.0,0.0,0.0,0.0,0.0,0.0,0.0,0.0,0.0,0.0,0.0,0.0,0.0,0.0,0.0,0.0,0.0,0.0,0.0,0.0,0.0,0.0,0.0,0.0,0.0,0.0,0.0,0.0,0.0,0.0,0.0,0.0,0.0,0.0,0.0,0.0,1.834,0.0,0.0,0.0,0.0,0.0,0.0,0.0,0.0,0.0,0.0,0.0,0.0,0.0,0.0,0.0,0.0,0.0,0.0,0.0,0.0,0.0,0.0,0.0,0.0,0.0,0.0,0.0,0.0,0.0,0.0,0.0,0.0,0.0,0.0,0.0,0.0,0.0,0.0,0.0,0.0,2.8981,2.9325,2.9774,3.0432,3.0806,3.115,3.1437,3.1482,3.1482,3.1482,3.1482,0.0,0.0,0.0,0.0,0.0,0.0,0.0,0.0,0.0,0.0,0.0,0.0,0.0,0.0,0.0,0.0,0.0,0.0,0.0,0.0,0.0,0.0,0.0,0.0,0.0,0.0,0.0,0.0,0.0,0.0,0.0,0.0,0.0,0.0,0.0,0.0,0.0,0.0,0.0,0.0,0.0,0.0,0.0,0.0,0.0,0.0,0.0,0.0,0.0,0.0,0.0,0.0,0.0,0.0,1.8061,1.8153,1.8153,1.8526,1.915,1.8553,1.8881,1.9747,0.0,0.0,0.0,0.0,0.0,0.0,0.0,0.0,0.0,0.0,0.0,0.0,0.0,0.0,0.0,0.0,0.0,0.0,0.0,0.0,0.0,0.0,0.0,0.0,0.0,2.7625,2.7625,0.0,0.0,0.0,0.0,0.0,0.0,0.0,0.0,0.0,0.0,0.0,0.0,2.9639,3.0193,3.0552,3.0672,3.1195,3.1482,3.1482,3.1482,3.1482,3.1482,3.1482,3.1482,0.0,0.0,0.0,0.0,0.0,0.0,0.0,0.0,0.0,0.0,0.0,0.0,0.0,0.0,0.0,0.0,0.0,0.0,0.0,0.0,0.0,0.0,0.0,0.0,0.0,0.0,0.0,0.0,0.0,0.0,0.0,0.0,1.6271,1.6227,0.0,0.0,0.0,0.0,0.0,0.0,0.0,0.0,0.0,0.0,0.0,0.0,0.0,0.0,1.846,1.8519,1.8555,1.8555,1.9202,1.9788,2.0271,2.0271,2.0586,2.1156,2.1033,0.0,1.9798,1.9695,0.0,0.0,0.0,0.0,0.0,0.0,0.0,0.0,0.0,0.0,0.0,0.0,0.0,0.0,0.0,0.0,0.0,0.0,0.0,0.0,0.0,0.0,2.7625,2.7625,2.7625,2.7625,0.0,2.7625,2.7625,2.7625,0.0,0.0,0.0,0.0,0.0,0.0,0.0,0.0,3.0238,3.0447,3.0731,3.1345,3.1422,3.1482,3.1482,3.1482,3.1482,3.1482,3.1482,3.1482,3.1482,3.1482,0.0,0.0,0.0,0.0,0.0,0.0,0.0,0.0,0.0,0.0,0.0,0.0,0.0,0.0,0.0,0.0,0.0,0.0,0.0,0.0,0.0,0.0,0.0,0.0,0.0,0.0,0.0,0.0,0.0,1.6573,1.6554,1.6991,1.6539,1.635,0.0,0.0,0.0,0.0,0.0,0.0,0.0,0.0,0.0,1.8661,1.912,1.9504,1.9838,2.0146,2.0293,2.0293,2.0578,2.0878,2.1129,2.1129,2.1255,2.1493,2.1493,2.1204,2.0752,2.0752,2.0903,2.1129,0.0,0.0,0.0,0.0,0.0,2.1493,2.1493,0.0,0.0,0.0,0.0,0.0,0.0,0.0,0.0,0.0,0.0,0.0,0.0,0.0,0.0,2.7625,2.7625,2.7625,2.7625,2.7625,2.7625,0.0,2.7625,2.7694,2.8083,0.0,0.0,0.0,0.0,0.0,3.0956,3.1091,3.1195,3.1437,3.1482,3.1482,3.1482,3.1482,3.1482,3.1482,3.1482,3.1482,3.1482,3.1482,3.1482,0.0,0.0,0.0,0.0,0.0,0.0,0.0,0.0,0.0,0.0,0.0,0.0,0.0,0.0,0.0,0.0,0.0,0.0,0.0,0.0,0.0,0.0,0.0,0.0,0.0,0.0,0.0,0.0,1.7271,1.7203,1.7816,1.7642,1.7402,0.0,0.0,0.0,0.0,0.0,0.0,1.8089,1.8647,1.9096,1.9402,2.0358,2.0878,2.0878,2.128,2.1493,2.1493,2.1631,2.1782,2.1907,2.1907,2.1995,2.2121,2.1983,2.1907,2.1895,2.1606,2.1568,2.1694,2.1694,2.1782,2.1907,2.1907,2.1907,2.1964,2.2134,2.2458,2.2962,2.3886,0.0,2.4951,2.5508,0.0,0.0,0.0,0.0,2.7625,2.7625,0.0,2.7625,2.7625,2.7625,2.7625,2.7625,2.7625,2.7625,0.0,2.7625,2.7784,2.8487,0.0,0.0,0.0,0.0,3.0746,3.1377,3.1482,3.1482,3.1482,3.1482,3.1482,3.1482,3.1482,3.1482,3.1482,3.1482,3.1482,3.1482,3.1482,3.1482,3.1482,0.0,0.0,0.0,0.0,0.0,0.0,0.0,0.0,0.0,0.0,0.0,0.0,0.0,0.0,0.0,0.0,0.0,0.0,0.0,0.0,0.0,0.0,0.0,0.0,0.0,0.0,0.0,0.0,0.0,1.865,1.8638,0.0,0.0,0.0,0.0,1.8608,1.8608,1.8887,1.9464,1.9543,2.0116,2.1325,2.143,2.1443,2.1443,2.1481,2.1493,2.1493,2.202,2.2548,2.299,2.299,2.3351,2.3841,2.3288,2.299,2.2915,2.192,2.1794,2.2272,2.2272,2.2585,2.299,2.299,2.299,2.311,2.391,2.4168,2.4412,2.5849,2.6361,2.6404,2.6457,2.6457,0.0,0.0,2.7034,2.7625,2.7625,2.7625,2.7625,2.7625,2.7625,2.7625,2.7625,2.7625,2.7625,0.0,2.7625,2.7784,2.8487,0.0,2.9026,3.0313,3.0507,3.0746,3.1377,3.1482,3.1482,3.1482,3.1482,3.1482,3.1482,3.1482,3.1482,3.1482,3.1482,3.1482,3.1482,3.1482,3.1482,3.1482,3.1482,0.0,0.0,0.0,0.0,0.0,0.0,0.0,0.0,0.0,0.0,0.0,0.0,0.0,0.0,0.0,0.0,0.0,0.0,0.0,0.0,0.0,0.0,0.0,0.0,0.0,0.0,0.0,0.0,1.8768,1.9097,0.0,0.0,1.9254,1.9348,1.9269,1.9738,2.02,2.081,2.0847,2.1045,2.1481,2.2184,2.2548,2.2548,2.3276,2.3627,2.364,2.3841,2.4029,2.4217,2.4217,2.433,2.4494,2.3929,2.369,2.3627,2.2862,2.2661,2.2836,2.2836,2.2902,2.3125,2.3649,2.3884,2.4002,2.4724,2.5007,2.5175,2.6176,2.6826,2.7203,2.7203,2.7203,2.7203,2.7203,2.7408,2.7625,2.7625,2.7625,2.7625,2.7625,2.7625,2.7625,2.7625,2.7919,2.8233,2.8233,2.8233,2.8442,2.9116,2.9564,3.0133,3.1031,3.1165,3.1255,3.1437,3.1482,3.1482,3.1482,3.1482,3.1482,3.1482,3.1482,3.1482,3.1482,3.1482,3.1482,3.1482,3.1482,3.1482,3.1482,3.1482,3.1482,0.0,0.0,0.0,0.0,0.0,0.0,0.0,0.0,0.0,0.0,0.0,0.0,0.0,0.0,0.0,0.0,0.0,0.0,0.0,0.0,0.0,0.0,0.0,0.0,0.0,0.0,1.9328,1.903,1.9642,2.0005,1.9685,2.0085,2.0366,2.0232,2.071,2.1267,2.2008,2.2046,2.2221,2.2598,2.3326,2.3703,2.3703,2.4443,2.482,2.482,2.4996,2.5084,2.5084,2.5084,2.5084,2.5059,2.4506,2.428,2.423,2.3653,2.3427,2.3401,2.3153,2.3245,2.3603,2.4118,2.4452,2.4794,2.5508,2.5946,2.6215,2.6707,2.7188,2.7625,2.7625,2.7625,2.7625,2.7625,2.7625,2.7625,2.7625,2.779,2.7919,2.7919,2.8083,2.8248,2.8248,2.8607,2.8936,2.8936,2.8936,2.9131,2.9789,3.0238,3.0731,3.1377,3.1482,3.1482,3.1482,3.1482,3.1482,3.1482,3.1482,3.1482,3.1482,3.1482,3.1482,3.1482,3.1482,3.1482,3.1482,3.1482,3.1482,3.1482,3.1482,3.1482,3.1482,0.0,0.0,0.0,0.0,0.0,0.0,0.0,0.0,0.0,0.0,0.0,0.0,0.0,0.0,0.0,0.0,0.0,0.0,0.0,0.0,0.0,0.0,0.0,1.8833,1.8727,1.8994,1.9574,2.0274,2.0903,2.1443,2.1493,2.1506,2.1543,2.1543,2.202,2.3125,2.3128,2.3629,2.4795,2.4845,2.4845,2.4845,2.4858,2.487,2.4883,2.5385,2.5624,2.5624,2.5624,2.5624,2.5598,2.5071,2.4845,2.4795,2.4318,2.4079,2.4029,2.3364,2.3603,2.4292,2.435,2.4851,2.5563,2.6283,2.6982,2.7625,2.7625,2.7625,2.7625,2.7625,2.7625,2.7625,2.7655,2.7655,2.7655,2.7685,2.8128,2.8622,2.8622,2.9116,2.9579,2.9579,2.9594,2.9609,2.9609,2.9624,2.9819,3.0402,3.0522,3.0761,3.1377,3.1482,0.0,3.1482,3.1482,3.1482,3.1482,3.1482,3.1482,3.1482,3.1482,3.1482,3.1482,3.1482,3.1482,3.1482,3.1482,3.1482,3.1482,3.1482,3.1482,3.1482,0.0,0.0,0.0,0.0,0.0,0.0,0.0,0.0,0.0,0.0,0.0,0.0,0.0,0.0,0.0,0.0,0.0,0.0,0.0,0.0,0.0,0.0,2.0051,1.8881,1.9556,2.0196,2.0358,2.0907,2.133,2.1481,2.1493,2.182,2.2623,2.2686,2.3175,2.4293,2.4356,2.4506,2.4808,2.5184,2.5385,2.5385,2.5799,2.6013,2.6013,2.6151,2.6226,2.6294,2.685,2.6783,2.6257,2.6336,2.6335,2.6283,2.5709,2.5879,2.6169,2.3961,2.3603,2.435,2.4908,2.5877,2.7019,2.7255,2.7408,2.7625,2.7625,2.7625,2.7625,2.7625,2.7625,2.773,2.8173,2.8323,2.8427,2.8906,2.9175,2.931,2.931,2.9445,2.9579,2.9579,2.9939,3.0253,3.0253,3.0657,3.0896,3.0567,3.0911,3.1315,3.1452,3.1482,0.0,3.1482,3.1482,3.1482,3.1482,3.1482,3.1482,3.1482,3.1482,3.1482,0.0,3.1482,3.1482,3.1482,3.1482,3.1482,3.1482,3.1482,3.1482,0.0,0.0,0.0,0.0,0.0,0.0,0.0,0.0,0.0,0.0,0.0,0.0,0.0,0.0,0.0,0.0,0.0,0.0,0.0,0.0,0.0,0.0,2.0451,2.0519,1.9951,2.0561,2.1091,2.133,2.1845,2.2272,2.251,2.2749,2.315,2.3791,2.3779,2.423,2.5096,2.5146,2.5259,2.5498,2.5799,2.5963,2.5963,2.6289,2.6658,2.6973,2.6658,2.6837,2.7537,2.767,2.7417,0.0,2.7575,2.7544,2.7247,2.7042,2.7264,0.0,0.0,0.0,0.0,0.0,2.6864,2.7625,2.7625,2.7625,2.7625,2.7625,2.7625,2.7619,2.7919,2.8008,2.8143,2.8816,2.9011,2.9101,2.949,2.9774,2.9968,2.9968,3.0193,3.0402,3.0402,3.0687,3.0941,3.0941,0.0,0.0,3.1001,3.127,3.1482,3.1482,3.1482,3.1482,0.0,3.1482,3.1482,3.1482,3.1482,3.1482,3.1482,3.1482,0.0,0.0,0.0,3.1482,3.1482,3.1482,0.0,0.0,0.0,3.1482,0.0,0.0,0.0,0.0,3.1287,3.1315,0.0,0.0,0.0,0.0,0.0,0.0,0.0,0.0,0.0,0.0,0.0,0.0,0.0,0.0,0.0,0.0,2.0819,2.1071,2.1506,2.1631,2.1857,2.2347,2.2887,2.3464,2.4042,2.4531,2.4845,2.4908,2.4908,2.5146,2.5661,0.0,0.0,0.0,0.0,2.6533,2.6533,2.6589,2.6973,2.767,2.7095,2.7537,2.9002,2.8298,2.792,2.792,2.8748,2.8684,2.8011,2.8298,2.8465,2.8344,2.7139,2.7032,2.7599,2.7787,2.785,0.0,0.0,0.0,0.0,2.785,2.785,2.797,2.8532,2.8712,2.8846,2.9505,2.9684,2.9699,2.9774,3.0208,3.0612,3.0612,3.1091,3.1482,3.1482,3.1482,3.1482,3.1482,3.1482,3.1482,3.1482,3.1482,3.1482,3.1482,3.1482,3.1482,3.1482,3.1482,3.1482,3.1482,0.0,0.0,3.1482,3.1482,3.1482,3.1482,3.1482,3.1482,3.1482,3.1482,3.1482,3.1482,3.1482,3.1482,3.1482,3.1482,3.1482,3.1482,3.1482,3.1482,0.0,0.0,0.0,0.0,0.0,0.0,0.0,0.0,0.0,0.0,0.0,0.0,0.0,0.0,0.0,2.0706,2.1418,2.2033,2.2133,2.2535,2.2862,2.2902,2.3489,2.4054,2.4607,2.4757,2.4996,2.541,2.5448,2.5686,2.6264,2.6302,0.0,2.6533,2.6533,2.6533,2.6533,2.7162,2.7537,2.7736,0.0,0.0,2.9002,2.9566,2.938,2.8812,2.969,2.995,2.9813,2.9883,2.9957,2.9952,2.8525,2.811,2.8335,2.899,2.919,2.919,2.919,2.919,2.919,2.919,2.919,2.922,2.9355,2.94,0.0,3.0148,3.0328,3.0447,3.1001,3.124,3.1345,3.1345,3.1377,3.1482,3.1482,3.1482,3.1482,3.1482,3.1482,3.1482,3.1482,3.1482,3.1482,3.1482,3.1482,3.1482,3.1482,3.1482,3.1482,3.1482,3.1482,3.1482,3.1482,3.1482,3.1482,3.1482,3.1482,3.1482,3.1482,3.1482,3.1482,3.1482,3.1482,3.1482,3.1482,3.1482,3.1482,3.1482,3.1482,3.1482,0.0,0.0,0.0,0.0,0.0,0.0,0.0,0.0,0.0,0.0,0.0,1.9886,0.0,0.0,2.0907,2.1393,2.1945,2.241,2.2686,2.2902,2.3238,2.3527,2.4067,2.4619,2.5159,2.5473,2.5749,2.6013,2.6025,2.6151,2.6508,2.6533,2.6658,2.7095,2.7095,2.7095,2.7095,2.792,2.8363,2.8363,2.8812,2.9442,3.0269,3.0269,3.0072,2.969,3.0524,3.0644,3.0329,3.0718,3.0954,3.0929,3.0231,2.9587,2.9068,2.9456,2.9579,2.9579,2.9579,2.9579,2.9579,2.9579,2.9579,2.9639,2.9953,3.0043,3.0178,3.0836,3.1016,3.1106,3.1377,3.1482,3.1482,3.1482,3.1482,3.1482,3.1482,3.1482,3.1482,3.1482,3.1482,3.1482,3.1482,3.1482,3.1482,3.1482,3.1482,3.1482,3.1482,3.1482,3.1482,3.1482,3.1482,3.1482,3.1482,3.1482,3.1482,3.1482,3.1482,3.1482,3.1482,3.1482,3.1482,3.1482,3.1482,3.1482,3.1482,3.1482,3.1482,3.1482,3.1482,3.1482,0.0,0.0,0.0,0.0,0.0,0.0,0.0,0.0,1.9836,1.9949,1.9962,2.015,2.0769,2.097,2.128,2.2171,2.2397,2.2623,2.3015,2.3078,2.3351,2.3929,2.4393,2.487,2.5398,2.5963,2.6302,2.6302,2.6402,2.6533,2.6533,2.6533,2.6837,2.767,2.767,2.7802,2.792,2.8812,2.9254,2.9254,2.938,3.0208,3.1467,3.0837,3.0524,3.0584,3.1219,3.1146,3.0584,3.1219,3.1482,3.1482,3.1482,3.0881,2.9968,2.9968,2.9968,2.9968,2.9968,2.9968,2.9968,2.9968,2.9968,3.0058,3.0552,3.0702,3.0821,3.1375,3.1482,3.1482,3.1482,3.1482,3.1482,3.1482,3.1482,3.1482,3.1482,3.1482,3.1482,3.1482,3.1482,3.1482,3.1482,3.1482,3.1482,3.1482,3.1482,3.1482,3.1482,3.1482,3.1482,3.1482,3.1482,3.1482,3.1482,3.1482,3.1482,3.1482,3.1482,3.1482,3.1482,3.1482,3.1482,3.1482,3.1482,3.1482,3.1482,3.1482,3.1482,3.1482,3.1482,3.1482,1.9798,1.9798,1.9798,1.9798,1.9798,1.9798,0.0,0.0,1.9949,2.0464,2.0618,2.0794,2.1292,2.1794,2.2171,2.2297,2.2723,2.3002,2.3065,2.3078,2.3351,2.3929,2.4054,2.4305,2.4858,2.5385,2.5686,2.5686,2.6163,2.6533,2.6533,2.6533,2.6837,2.767,2.767,2.8051,2.8876,2.969,3.0133,3.0147,3.0896,3.1351,3.1482,3.1409,3.1351,3.1351,3.1467,3.1467,3.1351,3.1467,3.1482,3.1482,3.1482,3.1377,3.1315,3.1315,3.1315,3.1315,3.1315,3.1315,3.1315,3.1315,3.1315,3.133,3.1405,3.1362,3.1377,3.1452,3.1482,3.1482,3.1482,3.1482,3.1482,3.1482,3.1482,3.1482,3.1482,3.1482,3.1482,3.1482,3.1482,3.1482,3.1482,3.1482,3.1482,3.1482,3.1482,3.1482,3.1482,3.1482,3.1482,3.1482,3.1482,3.1482,3.1482,3.1482,3.1482,3.1482,3.1482,3.1482,3.1482,3.1482,3.1482,3.1482,3.1482,3.1482,3.1482,3.1482,3.1482,3.1482,3.1482,3.1482,1.9798,1.9798,1.9798,0.0,2.0049,2.03,2.03,2.0552,2.0853,2.1091,2.1142,2.1317,2.187,2.2159,2.2422,0.0,2.2927,2.3078,2.3078,2.3078,2.3165,2.3464,2.3502,2.3841,2.4732,2.5021,2.5272,2.5573,2.6266,2.688,2.7204,2.767,2.8363,2.9192,2.9192,2.938,2.9766,3.0584,3.0777,3.0329,3.1087,3.1482,3.1482,3.1482,3.1482,3.1482,3.1482,3.1482,3.1482,3.1482,3.1482,3.1482,3.1482,3.1482,3.1482,3.1482,3.1482,3.1482,3.1482,3.1482,3.1482,3.1482,3.1482,3.1482,3.1482,3.1482,3.1482,3.1482,3.1482,3.1482,3.1482,3.1482,3.1482,3.1482,3.1482,3.1482,3.1482,3.1482,3.1482,3.1482,3.1482,3.1482,3.1482,3.1482,3.1482,3.1482,3.1482,3.1482,3.1482,3.1482,3.1482,3.1482,3.1482,3.1482,3.1482,3.1482,3.1482,3.1482,3.1482,3.1482,3.1482,3.1482,3.1482,3.1482,3.1482,3.1482,3.1482,3.1482,3.1482,3.1482,3.1482,3.1482,2.0105,2.0207,0.0,2.0578,2.1056,2.1549,2.1549,2.1658,2.1852,2.1992,2.1875,2.1882,2.2435,2.2535,2.2673,2.3015,2.3078,2.3078,2.3078,2.3078,2.3078,2.3078,2.3078,2.3391,2.428,2.4506,2.4808,2.5335,2.6337,2.7116,2.7696,2.8556,2.938,3.0269,3.0329,3.0389,3.0644,3.1219,3.1219,3.0644,3.1219,3.1482,3.1482,3.1482,3.1482,3.1482,3.1482,3.1482,3.1482,3.1482,3.1482,3.1482,3.1482,3.1482,3.1482,3.1482,3.1482,3.1482,3.1482,3.1482,3.1482,3.1482,3.1482,3.1482,3.1482,3.1482,3.1482,3.1482,3.1482,3.1482,3.1482,3.1482,3.1482,3.1482,3.1482,3.1482,3.1482,3.1482,3.1482,3.1482,3.1482,3.1482,3.1482,3.1482,3.1482,3.1482,3.1482,3.1482,3.1482,3.1482,3.1482,3.1482,3.1482,3.1482,3.1482,3.1482,3.1482,3.1482,3.1482,3.1482,3.1482,3.1482,3.1482,3.1482,3.1482,3.1482,3.1482,3.1482,3.1482,3.1482,3.1482,3.1482,2.0746,0.0,2.1883,2.2473,2.3128,2.3622,2.3622,2.308,2.2736,2.325,2.2763,2.2447,2.2952,2.3053,2.3053,2.3078,2.3078,2.3078,2.3078,2.3078,2.3078,2.3078,2.3078,2.309,0.0,2.369,2.4255,2.4808,2.6129,2.7116,2.7696,2.8556,2.938,3.0269,3.0329,3.0644,3.1467,3.1482,3.1482,3.1467,3.1482,3.1482,3.1482,3.1482,3.1482,3.1482,3.1482,3.1482,3.1482,3.1482,3.1482,3.1482,3.1482,3.1482,3.1482,3.1482,3.1482,3.1482,3.1482,3.1482,3.1482,3.1482,3.1482,3.1482,3.1482,3.1482,3.1482,3.1482,3.1482,3.1482,3.1482,3.1482,3.1482,3.1482,3.1482,3.1482,3.1482,3.1482,3.1482,3.1482,3.1482,3.1482,3.1482,3.1482,3.1482,3.1482,3.1482,3.1482,3.1482,3.1482,3.1482,3.1482,3.1482,3.1482,3.1482,3.1482,3.1482,3.1482,3.1482,3.1482,3.1482,3.1482,3.1482,3.1482,3.1482,3.1482,3.1482,3.1482,3.1482,3.1482,3.1482,3.1482,2.1358,0.0,2.2295,2.1983,2.2723,2.3514,2.3514,2.3269,2.3115,2.3342,2.2871,2.23,2.2065,2.2046,2.2159,2.2523,2.2585,2.2711,2.3027,2.3078,2.3078,2.3078,2.3078,0.0,0.0,0.0,0.0,2.4757,2.629,2.7544,2.8502,2.9889,3.0777,3.1087,3.1087,3.1219,3.1482,3.1482,3.1482,3.1482,3.1482,3.1482,3.1482,3.1482,3.1482,3.1482,3.1482,3.1482,3.1482,3.1482,3.1482,3.1482,3.1482,3.1482,3.1482,3.1482,3.1482,3.1482,3.1482,3.1482,3.1482,3.1482,3.1482,3.1482,3.1482,3.1482,3.1482,3.1482,3.1482,3.1482,3.1482,3.1482,3.1482,3.1482,3.1482,3.1482,3.1482,3.1482,3.1482,3.1482,3.1482,3.1482,3.1482,3.1482,3.1482,3.1482,3.1482,3.1482,3.1482,3.1482,3.1482,3.1482,3.1482,3.1482,3.1482,3.1482,3.1482,3.1482,3.1482,3.1482,3.1482,3.1482,3.1482,3.1482,3.1482,3.1482,3.1482,3.1482,3.1482,3.1482,3.1482,3.1482,2.2341,2.3017,2.3685,2.3416,2.4107,2.4829,2.4607,2.4312,2.4042,2.381,2.3044,2.2268,2.1898,2.1648,2.1606,2.1958,2.2184,2.2435,2.2786,2.2952,2.3078,2.3078,2.3078,0.0,0.0,0.0,0.0,2.481,2.6639,2.8085,2.9063,3.0646,3.1482,3.1482,3.1482,3.1482,3.1482,3.1482,3.1482,3.1482,3.1482,3.1482,3.1482,3.1482,3.1482,3.1482,3.1482,3.1482,3.1482,3.1482,3.1482,3.1482,3.1482,3.1482,3.1482,3.1482,3.1482,3.1482,3.1482,3.1482,3.1482,3.1482,3.1482,3.1482,3.1482,3.1482,3.1482,3.1482,3.1482,3.1582,3.1796,3.1697,3.1582,3.1853,3.1697,3.1482,3.1482,3.1482,3.1482,3.1482,3.1482,3.1482,3.1482,3.1482,3.1482,3.1482,3.1482,3.1482,3.1482,3.1482,3.1482,3.1482,3.1482,3.1482,3.1482,3.1482,3.1482,3.1482,3.1482,3.1482,3.1482,3.1482,3.1482,3.1482,3.1482,3.1482,3.1482,3.1482,3.1482,3.1482,3.1482,3.1482,2.3778,2.4708,2.5785,2.6372,2.7031,2.735,2.6673,2.5956,2.5193,2.4603,2.3375,2.2378,0.0,0.0,2.1516,2.1443,2.1882,2.2246,2.2309,2.2761,2.304,0.0,0.0,0.0,0.0,0.0,0.0,2.5071,0.0,2.8684,2.9289,3.0675,3.1482,3.1482,3.1482,3.1482,3.1482,3.1482,3.1482,3.1482,3.1482,3.1482,3.1482,3.1437,3.1422,3.1422,3.145,3.1377,3.1377,3.1407,3.1422,3.1422,3.1467,3.1524,3.1582,3.1582,3.1582,3.1582,3.1582,3.1524,3.1482,3.1482,3.1482,3.1482,3.1482,3.1482,3.1482,3.1482,3.1482,3.164,3.2382,3.2007,3.1697,3.2382,3.2007,3.1482,3.1482,3.1482,3.1482,3.1482,3.1482,3.1482,3.1482,3.1482,3.1482,3.1482,3.1482,3.1482,3.1482,3.1482,3.1482,3.1482,3.1482,3.1482,3.1482,3.1482,3.1482,3.1482,3.1482,3.1482,3.1482,3.1482,3.1482,3.1482,3.1482,3.1482,3.1482,3.1482,3.1482,3.1482,3.1482,3.1482,2.4782,2.5701,2.6232,2.5806,2.5888,2.5988,2.5828,2.4846,2.3966,2.3904,2.3203,2.2352,0.0,0.0,0.0,2.1006,2.1399,0.0,2.2254,2.2435,0.0,2.3027,0.0,2.3767,2.3138,2.4824,0.0,0.0,2.7202,2.8684,2.9289,3.0675,3.1482,3.1482,3.1482,3.1482,3.1482,3.1482,3.1482,3.1482,3.1482,3.1482,3.1452,3.1001,3.0761,3.0746,3.0283,3.0073,3.0118,3.0567,3.0761,3.0806,3.133,3.1853,3.2327,3.2327,3.2327,3.2327,3.2327,3.1951,3.1482,3.1482,3.1482,3.1482,3.1482,3.1482,3.1482,3.1482,3.1482,3.1524,3.1739,3.164,3.1539,3.1754,3.164,3.1482,3.1482,3.1482,3.1482,3.1482,3.1482,3.1482,3.1482,3.1482,3.1482,3.1482,3.1482,3.1482,3.1482,3.1482,3.1482,3.1482,3.1482,3.1482,3.1482,3.1482,3.1482,3.1482,3.1482,3.1482,3.1482,3.1482,3.1482,3.1482,3.1482,3.1482,3.1482,3.1482,3.1482,3.1482,3.1482,3.1482,2.5722,2.6485,2.6946,2.65,2.6162,2.5927,2.5584,2.4751,2.39,2.3699,2.3122,0.0,2.1752,0.0,0.0,0.0,0.0,0.0,2.1933,2.2691,2.3166,0.0,2.4105,0.0,2.3708,2.5384,2.6336,0.0,2.7512,2.8755,2.943,3.049,3.1225,3.1467,3.1482,3.1482,3.1482,3.1482,3.1482,3.1482,3.1225,3.1091,3.1061,3.0688,3.0347,3.0073,0.0,2.9818,2.9678,3.0622,3.0989,3.1104,3.2035,3.2664,3.3039,3.3039,3.3039,3.3039,3.3039,3.2586,3.1951,3.1582,3.1482,3.1482,3.1482,3.1739,3.191,3.1582,3.1739,3.1951,3.1951,3.1739,3.1582,3.191,3.1754,3.1482,3.1482,3.1482,3.1482,3.1482,3.1482,3.1482,3.1482,3.1482,3.1482,3.1482,3.1482,3.1482,3.1482,3.1482,3.1482,3.1482,3.1482,3.1482,3.1482,3.1482,3.1482,3.1482,3.1482,3.1482,3.1482,3.1482,3.1482,3.1482,3.1482,3.1482,3.1482,3.1482,3.1482,3.1482,3.1482,3.1482,2.6512,2.7141,2.7595,2.7505,2.6946,2.6288,2.563,2.4971,2.4313,2.3729,0.0,2.2785,2.2694,2.2285,2.171,2.1028,0.0,2.2396,2.1761,2.3165,2.4027,2.3339,2.4614,2.5231,2.4509,2.5783,2.6616,2.651,2.775,2.8757,2.9415,3.0043,3.0657,3.1255,3.127,3.127,3.127,3.127,3.127,3.127,3.0672,3.0372,3.0357,3.0363,3.0072,2.9644,0.0,0.0,2.9569,3.0828,3.1362,3.1607,3.2839,3.3502,3.3735,3.3735,3.3735,3.3735,3.3735,3.3287,3.2586,3.1894,3.1582,3.1482,3.1482,3.1951,3.2327,3.1682,3.1951,3.2437,3.2437,3.1951,3.164,3.2272,3.1966,3.1482,3.1482,3.1482,3.1482,3.1482,3.1482,3.1482,3.1482,3.1482,3.1482,3.1482,3.1482,3.1482,3.1482,3.1482,3.1482,3.1482,3.1482,3.1482,3.1482,3.1482,3.1482,3.1482,3.1482,3.1482,3.1482,3.1482,3.1482,3.1482,3.1482,3.1482,3.1482,3.1482,3.1482,3.1482,3.1482,3.1482,2.6966,2.7535,2.749,2.6901,2.6273,2.5615,2.4956,2.4268,0.0,0.0,2.3508,2.3275,2.2785,2.2995,2.2891,2.1758,0.0,0.0,0.0,0.0,2.3857,0.0,0.0,0.0,0.0,0.0,0.0,0.0,0.0,0.0,2.8742,2.9385,2.9804,2.9924,2.9924,2.9924,2.9924,2.9924,2.9924,2.9924,2.9804,2.9744,2.9768,2.9674,2.962,2.9539,0.0,0.0,2.8735,2.9562,3.02,3.0876,3.1628,3.2985,3.4431,3.4431,3.4431,3.4431,3.4431,3.3987,3.3287,3.2625,3.2007,3.1482,3.1482,3.1582,3.164,3.1539,3.1582,3.1697,3.1697,3.1582,3.1524,3.164,3.1582,3.1482,3.1482,3.1482,3.1482,3.1482,3.1482,3.1482,3.1482,3.1482,3.1482,3.1482,3.1482,3.1482,3.1482,3.1482,3.1482,3.1482,3.1482,3.1482,3.1482,3.1482,3.1482,3.1482,3.1482,3.1482,3.1482,3.1482,3.1482,3.1482,3.1482,3.1482,3.1482,3.1482,3.1482,3.1482,3.1482,3.1482,2.7166,2.732,2.6976,2.6662,2.5839,2.5016,2.4657,0.0,0.0,0.0,2.3595,2.3508,2.3231,2.3421,0.0,0.0,0.0,0.0,0.0,0.0,0.0,0.0,0.0,0.0,0.0,0.0,0.0,0.0,0.0,0.0,2.8562,2.922,2.9579,2.9579,2.9579,2.9579,2.9579,2.9579,2.9579,2.9579,2.9235,2.9071,2.9109,2.8985,2.9007,2.8991,2.9293,0.0,2.9059,3.0066,3.0685,3.118,3.2562,3.3689,3.4564,3.4964,3.5098,3.5098,3.5098,3.4688,3.4087,3.3735,3.2933,3.2064,3.2064,3.2064,3.2007,3.1582,3.1796,3.1951,3.1582,3.1482,3.1482,3.1482,3.1482,3.1482,3.1482,3.1482,3.1482,3.1482,3.1482,3.1482,3.1482,3.1482,3.1482,3.1482,3.1482,3.1482,3.1482,3.1482,3.1482,3.1482,3.1482,3.1482,3.1482,3.1482,3.1482,3.1482,3.1482,3.1482,3.1482,3.1482,3.1482,3.1482,3.1482,3.1482,3.1482,3.1482,3.1482,3.1482,3.1482,3.1482,2.6841,2.6782,2.6348,2.6213,2.539,2.4552,2.4403,2.3984,0.0,0.0,2.3595,2.3595,2.3595,0.0,2.3465,0.0,2.3275,2.3408,0.0,0.0,0.0,0.0,0.0,0.0,0.0,0.0,0.0,0.0,0.0,0.0,2.8353,2.8876,2.9146,2.9146,2.9146,2.9146,2.9146,2.9146,2.9146,2.9146,2.8622,2.8434,2.8559,2.8662,2.8779,2.8919,2.954,0.0,0.0,3.0713,3.1259,3.155,3.3182,3.4013,3.4353,3.5098,3.5368,3.5402,3.5571,3.5253,3.4783,3.4783,3.3887,3.2788,3.2641,3.2586,3.2437,3.1697,3.191,3.2216,3.164,3.1482,3.1482,3.1482,3.1482,3.1482,3.1482,3.1482,3.1482,3.1482,3.1482,3.1482,3.1482,3.1482,3.1482,3.1482,3.1482,3.1482,3.1482,3.1482,3.1482,3.1482,3.1482,3.1482,3.1482,3.1482,3.1482,3.1482,3.1482,3.1482,3.1482,3.1482,3.1482,3.1482,3.1482,3.1482,3.1482,3.1482,3.1482,3.1482,3.1482,3.1482,2.56,2.5749,2.5555,2.4956,2.4672,2.4418,2.3834,0.0,2.3595,2.3595,2.3595,2.3595,2.3595,0.0,0.0,0.0,0.0,2.3566,0.0,0.0,0.0,0.0,0.0,0.0,0.0,0.0,0.0,0.0,0.0,0.0,0.0,2.7775,2.7754,2.7754,2.7754,2.7754,2.7754,2.7754,2.7754,2.7754,2.7694,2.8,2.8508,2.9074,2.9629,3.0166,0.0,0.0,0.0,3.0359,3.0813,3.1407,3.1583,3.2426,3.3592,3.432,3.459,3.4692,3.5385,3.5577,3.5515,3.5515,3.4609,3.3391,3.2788,3.2586,3.2437,3.1697,3.1524,3.1582,3.1539,3.1482,3.1482,3.1482,3.1482,3.1482,3.1482,3.1482,3.1482,3.1482,3.1482,3.1482,3.1482,3.1482,3.1482,3.1482,3.1482,3.1482,3.1482,3.1482,3.1482,3.1482,3.1482,3.1482,3.1482,3.1482,3.1482,3.1482,3.1482,3.1482,3.1482,3.1482,3.1482,3.1482,3.1482,3.1482,3.1482,3.1482,3.1482,3.1482,3.1482,3.1482,2.5435,2.5315,2.491,2.4642,2.4313,2.3939,2.3655,0.0,2.3595,2.3595,2.3595,2.3595,2.3595,2.3595,2.3595,2.3595,2.3595,0.0,2.3595,0.0,0.0,0.0,0.0,0.0,0.0,0.0,0.0,0.0,0.0,0.0,0.0,2.7625,2.7625,2.7625,2.7625,2.776,2.814,2.814,2.814,2.814,2.814,2.8286,2.8511,2.8732,2.9406,3.0293,0.0,0.0,0.0,3.0838,3.1005,3.1307,3.1783,3.2277,3.2814,3.3575,3.4117,3.4539,3.4844,3.5233,3.5622,3.5622,3.4958,3.4137,3.3887,3.3547,3.313,3.2879,3.2756,3.2664,3.2272,3.1853,3.1482,3.1482,3.1482,3.1482,3.1482,3.1482,3.1482,3.1482,3.1482,3.1482,3.1482,3.1482,3.1482,3.1482,3.1482,3.1482,3.1482,3.1482,3.1482,3.1482,3.1482,3.1482,3.1482,3.1482,3.1482,3.1482,3.1482,3.1482,3.1482,3.1482,3.1482,3.1482,3.1482,3.1482,3.1482,3.1482,3.1482,3.1482,3.1482,3.1482,2.5048,2.4807,2.4313,2.4475,2.4085,2.3595,0.0,0.0,2.3595,2.3595,2.3595,2.3595,2.3595,2.3595,2.3595,2.3595,2.3595,2.3595,2.3595,2.3595,0.0,0.0,0.0,0.0,0.0,0.0,0.0,0.0,0.0,0.0,0.0,2.7625,2.7625,2.7625,2.7625,2.7894,2.8511,2.8511,2.8606,2.8795,2.8795,2.8873,2.9042,2.9042,2.9585,3.0576,0.0,0.0,0.0,3.119,3.119,3.1241,3.1749,3.1952,3.2053,3.2797,3.3389,3.3863,3.3893,3.4376,3.498,3.498,3.4822,3.464,3.4847,3.4137,3.3235,3.3024,3.2971,3.2879,3.2367,3.191,3.1482,3.1482,3.1482,3.1482,3.1482,3.1482,3.1482,3.1482,3.1482,3.1482,3.1482,3.1482,3.1482,3.1482,3.1482,3.1482,3.1482,3.1482,3.1482,3.1482,3.1482,3.1482,3.1482,3.1482,3.1482,3.1482,3.1482,3.1482,3.1482,3.1482,3.1482,3.1482,3.1482,3.1482,3.1482,3.1482,3.1482,3.1482,3.1482,3.1482,2.4256,2.4006,2.3724,2.4282,2.4006,2.3595,0.0,0.0,2.3595,2.3595,2.3595,2.3595,2.3595,2.3595,2.3595,2.3595,2.3595,2.3595,2.3595,2.3595,0.0,0.0,0.0,0.0,0.0,0.0,0.0,0.0,0.0,0.0,0.0,2.7625,2.7625,2.7625,2.7625,2.7894,2.8511,2.8511,2.8779,2.9406,2.9406,2.9717,3.0293,3.0293,3.0617,0.0,0.0,0.0,0.0,3.119,3.119,3.119,3.1207,3.1207,3.1292,3.2019,3.2347,3.235,3.2486,3.2974,3.3538,3.3614,3.4046,3.4736,3.5362,3.4202,3.2437,3.1739,3.1524,3.1524,3.1524,3.1539,3.1482,3.1482,3.1482,3.1482,3.1482,3.1482,3.1482,3.1482,3.1482,3.1482,3.1482,3.1482,3.1482,3.1482,3.1482,3.1482,3.1482,3.1482,3.1482,3.1482,3.1482,3.1482,3.1482,3.1482,3.1482,3.1482,3.1482,3.1482,3.1482,3.1482,3.1482,3.1482,3.1482,3.1482,3.1482,3.1482,3.1482,3.1482,3.1482,3.1482,2.3794,2.3709,2.3709,2.4266,2.4266,2.4158,2.4158,2.4158,2.4032,2.3681,2.3595,2.3595,2.3595,2.3595,2.3595,2.3595,2.3595,2.3595,0.0,0.0,0.0,0.0,0.0,0.0,0.0,0.0,0.0,0.0,0.0,0.0,0.0,0.0,2.7625,2.7625,2.7993,2.8496,2.9088,2.954,2.9805,3.0038,3.0038,3.0123,3.0293,3.0293,0.0,0.0,0.0,0.0,0.0,3.119,3.119,3.119,3.119,3.119,3.1224,3.1444,3.185,3.2307,3.2362,3.2832,3.3493,3.404,3.4056,3.3902,3.4137,3.4415,3.4512,3.382,3.2971,3.2272,3.2272,3.191,3.1482,3.1482,3.1482,3.1482,3.1482,3.1482,3.1482,3.1482,3.1482,3.1482,3.1482,3.1482,3.1482,3.1482,3.1482,3.1482,3.1482,3.1482,3.1482,3.1482,3.1482,3.1482,3.1482,3.1482,3.1482,3.1482,3.1482,3.1482,3.1482,3.1482,3.1482,3.1482,3.1482,3.1482,3.1482,3.1482,3.1482,3.1482,3.1482,3.1482,2.4081,2.4074,2.4032,2.4592,2.4552,0.0,0.0,2.4552,2.4307,2.3948,2.4074,2.4074,2.3681,2.3752,2.3837,2.3638,0.0,0.0,0.0,0.0,0.0,0.0,0.0,0.0,0.0,0.0,0.0,0.0,0.0,0.0,0.0,0.0,2.7625,2.7625,2.8189,2.8919,2.9717,3.0123,3.0418,3.0658,3.0658,3.0658,3.0658,3.0658,0.0,0.0,0.0,0.0,0.0,3.119,3.119,3.119,3.119,3.119,3.119,3.119,3.1478,3.1867,3.1631,3.1993,3.2679,3.3175,3.3606,3.3948,3.4234,3.4186,3.3987,3.3566,3.281,3.216,3.216,3.1853,3.1482,3.1482,3.1482,3.1482,3.1482,3.1482,3.1482,3.1482,3.1482,3.1482,3.1482,3.1482,3.1482,3.1482,3.1482,3.1482,3.1482,3.1482,3.1482,3.1482,3.1482,3.1482,3.1482,3.1482,3.1482,3.1482,3.1482,3.1482,3.1482,3.1482,3.1482,3.1482,3.1482,3.1482,3.1482,3.1482,3.1482,3.1482,3.1482,3.1482,0.0,2.4713,2.4552,2.5067,2.4776,0.0,2.5067,2.4816,0.0,2.4348,2.4776,2.4855,2.3794,2.4032,2.4225,0.0,0.0,0.0,0.0,0.0,0.0,0.0,0.0,0.0,0.0,0.0,0.0,0.0,0.0,0.0,0.0,0.0,2.7575,2.761,2.8181,2.9039,3.0208,3.0293,3.0658,3.119,3.119,3.119,3.119,3.119,0.0,0.0,0.0,0.0,0.0,3.119,3.119,3.119,3.119,3.119,3.119,3.119,3.119,3.1112,3.0576,3.078,3.1298,3.1434,3.2811,3.458,3.5228,3.3687,3.164,3.164,3.1582,3.1482,3.1482,3.1482,3.1482,3.1482,3.1482,3.1482,3.1482,3.1482,3.1482,3.1482,3.1482,3.1482,3.1482,3.1482,3.1482,3.1482,3.1482,3.1482,3.1482,3.1482,3.1482,3.1482,3.1482,3.1482,3.1482,3.1482,3.1482,3.1482,3.1482,3.1482,3.1482,3.1482,3.1482,3.1482,3.1482,3.1482,3.1482,3.1482,3.1482,3.1482,3.1482,3.1482,2.2983,0.0,2.4552,2.5067,2.4776,2.4552,0.0,2.5089,2.4792,2.3964,2.4552,2.4855,2.3794,2.4032,2.4225,0.0,0.0,0.0,0.0,0.0,0.0,0.0,0.0,0.0,0.0,0.0,0.0,0.0,0.0,0.0,0.0,0.0,2.7065,2.7959,2.81,2.866,2.9613,3.0518,3.1055,3.119,3.119,3.119,3.119,3.119,0.0,0.0,0.0,0.0,3.119,3.119,3.119,3.119,3.119,3.119,3.119,3.119,3.119,3.119,3.1055,3.1076,3.1311,3.1907,3.2811,3.3756,3.3922,3.3566,3.313,3.313,3.2351,3.1482,3.1482,3.1482,3.1482,3.1482,3.1482,3.1482,3.1482,3.1482,3.1482,3.1482,3.1482,3.1482,3.1482,3.1482,3.1482,3.1482,3.1482,3.1482,3.1482,3.1482,3.1482,3.1482,3.1482,3.1482,3.1482,3.1482,3.1482,3.1482,3.1482,3.1482,3.1482,3.1482,3.1482,3.1482,3.1482,3.1482,3.1482,3.1482,3.1482,3.1482,3.1482,3.1482,2.2869,2.3613,2.428,2.4358,2.4595,2.4816,2.5128,2.5373,2.5335,2.4511,2.5166,2.5508,2.4184,2.4592,0.0,0.0,0.0,0.0,0.0,0.0,0.0,0.0,0.0,0.0,0.0,0.0,0.0,0.0,0.0,0.0,0.0,0.0,2.6816,2.764,2.7938,2.8639,2.9716,3.0392,3.0869,3.119,3.119,3.119,3.119,3.119,0.0,0.0,0.0,0.0,3.119,3.119,3.119,3.119,3.119,3.119,3.119,3.119,3.119,3.119,3.119,3.119,3.1309,3.2036,3.2589,3.3084,3.3751,3.3548,3.3182,3.3502,3.2826,3.2007,3.2007,3.1739,3.1482,3.1482,3.1482,3.1482,3.1482,3.1482,3.1482,3.1482,3.1482,3.1482,3.1482,3.1482,3.1482,3.1482,3.1482,3.1482,3.1482,3.1482,3.1482,3.1482,3.1482,3.1482,3.1482,3.124,3.1061,3.1061,3.1061,3.1061,3.1061,3.1061,3.121,3.1467,3.1482,3.1482,3.1482,3.1482,3.1482,3.1482,3.1482,3.1482,2.3014,2.3525,2.3761,2.3629,2.427,2.4962,2.515,2.5615,2.5815,2.5221,2.5928,2.6264,2.4776,2.5335,0.0,0.0,0.0,0.0,0.0,0.0,0.0,0.0,0.0,0.0,0.0,0.0,0.0,0.0,0.0,0.0,0.0,0.0,0.0,2.7113,2.7611,2.8493,2.9753,2.9871,3.0243,3.0852,3.0852,3.0852,3.0852,3.097,0.0,0.0,0.0,0.0,3.119,3.119,3.119,3.119,3.119,3.119,3.119,3.119,3.119,3.119,3.119,3.119,3.1292,3.182,3.2049,3.2369,3.353,3.3264,3.2636,3.3262,3.2961,3.2437,3.2437,3.1951,3.1482,3.1482,3.1482,3.1482,3.1482,3.1482,3.1482,3.1482,3.1482,3.1482,3.1482,3.1482,3.1482,3.1482,3.1482,3.1482,3.1482,3.1482,3.1482,3.1482,3.1482,3.1482,3.1482,3.1001,3.0612,3.0507,3.0417,3.0402,3.0507,3.0612,3.0941,3.1467,3.1482,3.1482,3.1482,3.1482,3.1482,3.1482,3.1482,3.1482,2.1279,2.1856,2.2689,2.4216,2.4116,2.3951,2.4962,2.5615,2.5726,2.4752,0.0,2.635,0.0,2.5577,0.0,0.0,0.0,0.0,0.0,0.0,0.0,0.0,0.0,0.0,0.0,0.0,0.0,0.0,0.0,0.0,0.0,0.0,0.0,2.6771,2.6858,2.7332,2.8127,2.8822,2.9211,2.933,2.933,2.933,2.9347,2.9973,3.0277,0.0,0.0,3.119,3.119,3.119,3.119,3.119,3.119,3.119,3.119,3.119,3.119,3.119,3.119,3.119,3.1112,3.0734,3.104,3.1483,3.1193,3.1774,3.2608,3.272,3.2229,3.1697,3.1697,3.1582,3.1482,3.1482,3.1482,3.1482,3.1482,3.1482,3.1482,3.1482,3.1482,3.1482,3.1482,3.1482,3.1482,3.1482,3.1482,3.1482,3.1482,3.1482,3.1482,3.1482,3.1482,3.1482,3.1482,3.1377,3.112,3.0537,3.0013,2.9968,3.0477,3.1061,3.1362,3.1482,3.1482,3.1482,3.1482,3.1482,3.1482,3.1482,3.1482,3.1482,2.1446,2.1392,2.1577,2.3538,2.4094,2.434,2.5061,2.5835,2.6175,2.5411,0.0,0.0,0.0,0.0,0.0,0.0,0.0,0.0,0.0,0.0,0.0,0.0,0.0,0.0,0.0,0.0,0.0,0.0,0.0,0.0,0.0,0.0,0.0,0.0,2.6691,2.686,2.7199,2.7571,2.8163,2.9011,2.9011,2.9011,2.8991,2.9347,2.9499,2.955,0.0,3.0615,3.0632,3.1038,3.119,3.119,3.119,3.119,3.119,3.119,3.119,3.119,3.119,3.119,3.1151,3.0878,3.0792,3.081,3.0952,3.0941,3.1092,3.1848,3.2113,3.212,3.212,3.1796,3.1482,3.1482,3.1482,3.1482,3.1482,3.1482,3.1482,3.1482,3.1482,3.1482,3.1482,3.1482,3.1482,3.1482,3.1482,3.1482,3.1482,3.1482,3.1482,3.1482,3.1482,3.1482,3.1482,3.1195,3.0851,3.0522,3.0238,3.0208,3.0492,3.1165,3.1482,3.1482,3.1482,3.1482,3.1482,3.1482,3.1482,3.1482,3.1482,3.1482,2.1945,2.1477,2.107,2.2936,2.3782,2.4319,2.4959,2.5804,2.6354,2.6052,0.0,0.0,0.0,0.0,0.0,0.0,0.0,0.0,0.0,0.0,0.0,0.0,0.0,0.0,0.0,0.0,0.0,0.0,0.0,0.0,0.0,0.0,0.0,0.0,2.6691,2.6691,2.6691,2.6691,2.7283,2.845,2.845,2.845,2.845,2.8636,2.8704,2.8755,2.9516,2.9837,2.9888,3.0446,3.0784,3.0937,3.0937,3.1055,3.119,3.119,3.119,3.119,3.119,3.119,3.119,3.1015,3.0658,3.0408,3.0806,3.0272,2.9701,3.0804,3.1597,3.2112,3.2281,3.1894,3.1482,3.1482,3.1482,3.1482,3.1482,3.1482,3.1482,3.1482,3.1482,3.1482,3.1482,3.1482,3.1482,3.1482,3.1482,3.1482,3.1482,3.1482,3.1482,3.1482,3.1482,3.1482,3.1482,3.1046,3.0746,3.0746,3.0597,3.0507,3.0507,3.1165,3.1482,3.1482,3.1482,3.1482,3.1482,3.1482,3.1482,3.1482,3.1482,3.1482,2.1945,2.1899,2.1823,2.3072,2.2845,2.2731,2.4421,2.5263,2.5731,2.5952,0.0,0.0,0.0,0.0,0.0,0.0,0.0,0.0,0.0,0.0,0.0,0.0,0.0,0.0,0.0,0.0,0.0,0.0,0.0,0.0,0.0,0.0,0.0,0.0,0.0,2.6691,2.6691,2.6691,2.6759,2.686,2.686,2.686,2.6877,2.7588,2.7909,2.7908,2.8721,2.9059,2.9059,2.9163,2.955,3.0192,3.0192,3.0598,3.119,3.119,3.119,3.119,3.119,3.119,3.1112,3.0559,3.0351,3.0225,2.9694,2.9533,2.95,2.9593,3.0114,3.0773,3.1417,3.1539,3.1482,3.1482,3.1482,3.1482,3.1482,3.1482,3.1482,3.1482,3.1482,3.1482,3.1482,3.1482,3.1482,3.1482,3.1482,3.1482,3.1482,3.1482,3.1482,3.1482,3.1482,3.1482,3.1482,3.1437,3.1407,3.1407,3.0851,3.0507,3.0507,3.1165,3.1482,3.1482,3.1482,3.1482,3.1482,3.1482,3.1482,3.1482,3.1482,3.1482,2.1568,2.1538,2.1481,2.2488,2.2239,2.2392,2.4763,2.5462,2.5746,2.6336,2.659,0.0,0.0,0.0,0.0,0.0,0.0,0.0,0.0,0.0,0.0,0.0,0.0,0.0,0.0,0.0,0.0,0.0,0.0,0.0,0.0,0.0,0.0,0.0,0.0,2.6691,2.6691,2.6691,2.6691,2.6691,2.6691,2.6691,2.6708,2.6996,2.7114,2.7165,2.7926,2.8264,2.8298,2.8789,2.9144,2.9448,2.9922,3.0277,3.0581,3.1021,3.119,3.119,3.119,3.119,3.1151,3.0918,3.0617,3.0251,3.0038,2.9462,2.8991,2.936,2.9413,2.9564,3.0627,3.121,3.1482,3.1482,3.1482,3.1482,3.1482,3.1482,3.1482,3.1482,3.1482,3.1482,3.1482,3.1482,3.1482,3.1482,3.1482,3.1482,3.1482,3.1482,3.1482,3.1482,3.1482,3.1482,3.1482,3.1482,3.1482,3.1482,3.1228,3.115,3.115,3.1405,3.1482,3.1482,3.1482,3.1482,3.1482,3.1482,3.1482,3.1482,3.1482,3.1482,2.1628,2.1672,2.1668,2.2298,2.2181,2.2505,2.4598,2.5178,2.5488,2.6379,2.6753,2.6841,2.6725,0.0,0.0,0.0,0.0,0.0,0.0,0.0,0.0,0.0,0.0,0.0,0.0,0.0,0.0,0.0,0.0,0.0,0.0,0.0,0.0,0.0,0.0,0.0,2.6691,2.6691,2.6691,2.6691,2.6691,2.6691,2.6691,2.6691,2.6691,2.6725,2.7232,2.7469,2.7503,2.8044,2.8399,2.8704,2.9448,2.9753,2.9837,3.0581,3.0852,3.0886,3.1123,3.119,3.119,3.119,3.0918,3.0559,3.0351,2.9717,2.9107,2.9166,2.9046,2.9033,2.9723,3.0552,3.127,3.1422,3.1482,3.1482,3.1482,3.1482,3.1482,3.1482,3.1482,3.1482,3.1482,3.1482,3.1482,3.1482,3.1482,3.1482,3.1482,3.1482,3.1482,3.1482,3.1482,3.1482,3.1482,3.1482,3.1482,3.1482,3.1482,3.1482,3.1482,3.1482,3.1482,3.1482,3.1482,3.1482,3.1482,3.1482,3.1482,3.1482,3.1482,3.164,2.2147,2.25,2.2695,2.2695,2.2695,2.2903,2.3707,2.4184,2.4832,2.5962,2.6784,2.7178,2.6791,0.0,0.0,0.0,0.0,0.0,0.0,0.0,0.0,0.0,0.0,0.0,0.0,0.0,0.0,0.0,0.0,0.0,0.0,0.0,0.0,0.0,0.0,0.0,2.6691,2.6691,2.6691,2.6691,2.6691,2.6691,2.6691,2.6691,2.6691,2.6691,2.6691,2.6691,2.6691,2.6691,2.7131,2.7892,2.867,2.9011,2.9059,2.982,3.0108,3.0209,3.0937,3.119,3.119,3.119,3.119,3.1095,3.0477,3.0309,3.0021,2.8826,2.8958,2.9335,2.8733,2.9535,3.0657,3.1302,3.1482,3.1482,3.1482,3.1482,3.1482,3.1482,3.1482,3.1482,3.1482,3.1482,3.1482,3.1482,3.1482,3.1482,3.1482,3.1482,3.1482,3.1482,3.1482,3.1482,3.1482,3.1482,3.1482,3.1482,3.1482,3.1482,3.1482,3.1482,3.1482,3.1482,3.1482,3.1482,3.1539,3.1539,3.1524,3.1524,3.1524,3.191,2.1748,2.2231,0.0,2.2695,0.0,0.0,0.0,2.3601,2.4408,0.0,2.6797,2.7589,2.721,0.0,0.0,0.0,0.0,0.0,0.0,0.0,0.0,0.0,0.0,0.0,0.0,0.0,0.0,0.0,0.0,0.0,0.0,0.0,0.0,0.0,0.0,0.0,2.6691,2.6691,2.6691,2.6691,2.6691,2.6691,2.6691,2.6691,2.6691,2.6691,2.6691,2.6691,2.6691,2.6691,2.6826,2.7097,2.7858,2.8163,2.8264,2.9025,2.9651,3.0142,3.0362,3.0768,3.119,3.119,3.119,3.1095,3.0477,2.9978,2.9496,2.8732,2.8327,2.8218,2.8524,2.8876,2.9445,3.0552,3.118,3.1482,3.1482,3.1482,3.1482,3.1482,3.1482,3.1482,3.1482,3.1482,3.1482,3.1482,3.1482,3.1482,3.1482,3.1482,3.1482,3.1482,3.1482,3.1482,3.1482,3.1482,3.1482,3.1482,3.1482,3.1482,3.1482,3.1482,3.1482,3.1482,3.1482,3.1739,3.2272,3.2272,3.2532,3.2971,3.2971,3.3077,2.218,2.2678,0.0,2.3093,2.3236,2.3346,2.3141,0.0,0.0,0.0,0.0,0.0,0.0,0.0,0.0,0.0,0.0,0.0,0.0,0.0,0.0,0.0,0.0,0.0,0.0,0.0,0.0,0.0,0.0,0.0,0.0,0.0,0.0,0.0,0.0,0.0,2.6691,2.6691,2.6691,2.6691,2.6691,2.6691,2.6691,2.6691,2.6691,2.6691,2.6691,2.6691,2.6691,2.6691,2.6691,2.6742,2.7199,2.7368,2.7469,2.823,2.8805,2.9245,2.955,3.0142,3.0768,3.0768,3.0954,3.1055,3.0208,2.9848,2.954,2.8448,2.8042,2.8,2.8186,2.8397,2.8921,3.0193,3.0821,3.121,3.1422,3.1482,3.1482,3.1482,3.1482,3.1482,3.1482,3.1482,3.1482,3.1482,3.1482,3.1482,3.1482,3.1482,3.1482,3.1482,3.1482,3.1482,3.1482,3.1482,3.1482,3.1482,3.1482,3.1482,3.1482,3.1482,3.1482,3.1482,3.1482,3.1739,3.2176,3.2176,3.2367,3.2772,3.2772,3.3077,2.3052,2.3414,2.3692,2.3692,2.3692,0.0,2.3735,2.4055,2.4743,0.0,0.0,0.0,0.0,0.0,0.0,0.0,0.0,0.0,0.0,0.0,0.0,0.0,0.0,0.0,0.0,0.0,0.0,0.0,0.0,0.0,0.0,0.0,0.0,0.0,0.0,0.0,2.6691,2.6691,2.6691,0.0,2.6691,2.6691,2.6691,2.6691,2.6691,2.6691,2.6691,2.6691,2.6691,2.6691,2.6691,2.6691,2.6691,2.6691,2.6776,2.7469,2.7722,2.7891,2.8636,2.9381,3.0023,3.0091,3.0509,3.0834,2.9789,2.9805,2.9805,2.8174,2.8042,2.8286,2.776,2.8038,2.8816,3.0043,3.0417,3.0672,3.13,3.1437,3.1482,3.1482,3.1482,3.1482,3.1482,3.1482,3.1482,3.1482,3.1482,3.1482,3.1482,3.1482,3.1482,3.1482,3.1482,3.1482,3.1482,3.1482,3.1482,3.1482,3.1482,3.1482,3.1482,3.1482,3.1482,3.1482,3.1482,3.1524,3.1582,3.1582,3.1682,3.1781,3.1781,3.2501,2.278,2.3236,0.0,0.0,2.3692,2.3774,2.4016,2.3982,2.4019,0.0,0.0,0.0,0.0,0.0,0.0,0.0,0.0,0.0,0.0,0.0,0.0,0.0,0.0,0.0,0.0,0.0,0.0,0.0,0.0,0.0,0.0,0.0,0.0,0.0,0.0,2.6691,2.6691,2.6691,2.6691,0.0,2.6691,2.6691,2.6691,2.6691,2.6691,2.6691,2.6691,2.6691,2.6691,2.6691,2.6691,2.6691,2.6691,2.6691,2.6708,2.6877,2.73,2.7806,2.801,2.8586,2.9313,2.9922,2.9906,2.9674,2.9985,2.954,2.8826,2.8415,2.8042,2.776,2.7625,2.7679,2.7993,2.8816,2.9774,3.0552,3.0687,3.115,3.1482,3.1482,3.1482,3.1482,3.1482,3.1482,3.1482,3.1482,3.1482,3.1482,3.1482,3.1482,3.1482,3.1482,3.1482,3.1482,3.1482,3.1482,3.1482,3.1482,3.1482,3.1482,3.1482,3.1482,3.1482,3.1482,3.1482,3.1796,3.2382,3.2382,3.2933,3.3921,3.3921,3.4382,2.3369,0.0,0.0,2.3937,0.0,2.3996,2.417,2.4056,0.0,0.0,0.0,0.0,0.0,0.0,0.0,0.0,0.0,0.0,0.0,0.0,0.0,0.0,0.0,0.0,0.0,0.0,0.0,0.0,0.0,0.0,0.0,0.0,0.0,0.0,2.6691,2.6691,2.6691,2.6691,2.6691,2.6691,2.6691,2.6691,2.6691,2.6691,2.6691,2.6691,2.6691,2.6691,2.6691,2.6691,2.6691,2.6691,2.6691,2.6691,2.6691,2.6691,2.6945,2.7283,2.7283,2.7633,2.8139,2.854,2.8725,2.8825,2.8941,2.8728,2.8415,2.814,2.786,2.7625,2.7625,2.7625,2.7715,2.8023,2.9101,3.0148,3.0432,3.1046,3.1482,3.1482,3.1482,3.1482,3.1482,3.1482,3.1482,3.1482,3.1482,3.1482,3.1482,3.1482,3.1482,3.1482,3.1482,3.1482,3.1482,3.1482,3.1482,3.1482,3.1482,3.1482,3.1482,3.1482,3.1697,3.2007,3.2007,3.2367,3.3093,3.3093,3.3443,3.4137,3.4137,3.4496,2.4036,0.0,2.419,2.419,2.419,0.0,2.419,2.419,0.0,0.0,0.0,0.0,0.0,0.0,0.0,0.0,0.0,0.0,0.0,0.0,0.0,0.0,0.0,0.0,0.0,0.0,0.0,0.0,0.0,0.0,0.0,0.0,2.6691,2.6691,2.6691,2.6691,2.6691,2.6691,2.6691,2.6691,2.6691,2.6691,2.6691,2.6691,2.6691,2.6691,2.6691,2.6691,2.6691,2.6691,2.6691,2.6691,2.6691,2.6691,2.6691,2.6691,2.6691,2.6691,2.6691,2.6855,2.7048,2.7069,2.7525,2.7955,2.7742,2.7907,2.8132,2.7815,2.766,2.7625,2.7625,2.7625,2.7625,2.7625,2.8517,2.9579,3.0208,3.0881,3.1332,3.1452,3.1482,3.1482,3.1482,3.1482,3.1482,3.1482,3.1482,3.1482,3.1482,3.1482,3.1482,3.1482,3.1482,3.1482,3.1482,3.1482,3.1482,3.1482,3.1482,3.1482,3.1482,3.1482,3.1853,3.2602,3.2477,3.2734,3.3443,3.3443,3.3547,3.3786,3.3786,3.4137,2.3735,0.0,2.419,0.0,2.419,2.419,0.0,0.0,0.0,0.0,0.0,0.0,0.0,0.0,0.0,0.0,0.0,0.0,0.0,0.0,0.0,0.0,0.0,0.0,0.0,0.0,0.0,0.0,0.0,0.0,0.0,2.6691,2.6691,2.6691,2.6691,2.6691,2.6691,2.6691,2.6691,2.6691,2.6691,2.6691,2.6691,2.6691,2.6691,2.6691,2.6691,2.6691,2.6691,2.6691,2.6691,2.6691,2.6691,2.6691,2.6691,2.6691,2.6691,2.6691,2.6691,2.6725,2.6808,2.7015,2.6834,2.6725,2.7912,2.7627,2.707,2.8069,2.7993,2.7625,2.7625,2.7625,2.7625,2.7625,2.8173,2.8906,2.9564,3.0193,3.0821,3.1362,3.1482,3.1482,3.1482,3.1482,3.1482,3.1482,3.1482,3.1482,3.1482,3.1482,3.1482,3.1482,3.1482,3.1482,3.1482,3.1482,3.1482,3.1482,3.1482,3.1482,3.1482,3.1482,3.1853,3.2602,3.1951,3.2007,3.2749,3.2749,3.3339,3.4479,3.4479,3.4847,2.4282,2.4337,2.4357,0.0,2.4357,2.4339,2.4228,0.0,0.0,0.0,0.0,0.0,0.0,0.0,0.0,0.0,0.0,0.0,0.0,0.0,0.0,0.0,0.0,0.0,0.0,0.0,0.0,0.0,0.0,0.0,2.6691,2.6691,2.6691,2.6691,2.6691,2.6691,2.6691,2.6691,2.6691,2.6691,2.6691,2.6691,2.6691,2.6691,2.6691,2.6691,2.6691,2.6691,2.6691,2.6691,2.6691,2.6691,2.6691,2.6691,2.6691,2.6691,2.6691,2.6691,2.6691,2.6521,2.6312,2.6465,2.6131,2.5926,2.6957,2.6949,2.6771,2.7713,2.781,2.7625,2.7625,2.7625,2.7625,2.7625,2.785,2.8203,2.8891,2.9804,3.0717,3.1405,3.1482,3.1482,3.1482,3.1482,3.1482,3.1482,3.1482,3.1482,3.1482,3.1482,3.1482,3.1482,3.1482,3.1482,3.1482,3.1482,3.1482,3.1482,3.1482,3.1482,3.1482,3.1482,3.164,3.1951,3.2064,3.2625,3.3735,3.3735,3.3974,3.4526,3.4526,3.446,0.0,0.0,2.4594,2.4594,2.4545,2.4461,0.0,0.0,0.0,0.0,0.0,0.0,0.0,0.0,0.0,0.0,0.0,0.0,0.0,0.0,0.0,0.0,0.0,0.0,0.0,0.0,0.0,0.0,0.0,0.0,2.6133,2.6133,2.6218,2.6404,2.642,2.6505,2.6691,2.6691,2.6691,2.6691,2.6691,2.6691,2.6691,2.6691,2.6691,2.6691,2.6691,2.6691,2.6691,2.6691,2.6691,2.6691,2.6691,2.6691,2.6691,2.6691,2.6691,2.6691,2.6691,2.647,2.6156,2.6049,2.5706,2.543,2.6001,2.626,2.6482,2.7141,2.749,2.7625,2.7625,2.7625,2.7625,2.7625,2.7625,2.785,2.8667,2.9714,3.0717,3.1405,3.1482,3.1482,3.1482,3.1482,3.1482,3.1482,3.1482,3.1482,3.1482,3.1482,3.1482,3.1482,3.1482,3.1482,3.1482,3.1482,3.1482,3.1482,3.1482,3.1482,3.1482,3.1682,3.1796,3.1796,3.2477,3.3339,3.4333,3.4153,3.4237,3.4489,3.4303,3.3931,0.0,2.479,0.0,2.479,2.4639,0.0,0.0,0.0,0.0,0.0,0.0,0.0,0.0,0.0,0.0,0.0,0.0,0.0,0.0,0.0,0.0,0.0,0.0,0.0,0.0,0.0,0.0,0.0,0.0,0.0,2.4625,2.4625,2.4915,2.5642,2.5659,2.5998,2.6691,2.6691,2.6691,2.6691,2.6691,2.6691,2.6691,2.6691,2.6691,2.6691,2.6691,2.6691,2.6691,2.6691,2.6691,2.6691,2.6691,2.6691,2.6691,2.6691,2.6691,2.6691,2.6691,2.6691,2.659,2.6139,2.5647,2.5258,2.5415,2.5559,2.5794,2.6452,2.7096,2.7625,2.7625,2.7625,2.7625,2.7625,2.7625,2.7985,2.925,3.0043,3.0717,3.1405,3.1482,3.1482,3.1482,3.1482,3.1482,3.1482,3.1482,3.1482,3.1482,3.1482,3.1482,3.1482,3.1482,3.1482,3.1482,3.1482,3.1482,3.1482,3.1482,3.1482,3.1482,3.216,3.2532,3.2532,3.3182,3.3582,3.3633,3.2942,3.3272,3.4472,3.3778,3.344,0.0,0.0,0.0,2.4943,2.4872,0.0,0.0,0.0,0.0,0.0,0.0,0.0,0.0,0.0,0.0,0.0,0.0,0.0,0.0,0.0,0.0,0.0,0.0,0.0,0.0,0.0,0.0,0.0,0.0,0.0,2.482,2.4628,2.4611,2.4881,2.4881,2.5017,2.5302,2.5761,2.5998,2.5998,2.6471,2.6691,2.6691,2.6691,2.6691,2.6691,2.6691,2.6691,2.6691,2.6691,2.6691,2.6691,2.6691,2.6691,2.6691,2.6691,2.6691,2.6691,2.6691,2.6691,2.6657,2.6505,2.5855,2.5272,2.5765,2.5764,2.5749,2.6408,2.7066,2.7625,2.7625,2.7625,2.7625,2.7625,2.7625,2.7829,2.8742,2.946,3.0238,3.1258,3.1482,3.1482,3.1482,3.1482,3.1482,3.1482,3.1482,3.1482,3.1482,3.1482,3.1482,3.1482,3.1482,3.1482,3.1482,3.1482,3.1482,3.1482,3.1482,3.1482,3.1482,3.2216,3.2382,3.1894,3.3024,3.3836,3.4235,3.3486,3.3383,3.3778,3.3034,3.2425,2.5264,0.0,0.0,0.0,0.0,0.0,0.0,0.0,0.0,0.0,0.0,0.0,0.0,0.0,0.0,0.0,0.0,0.0,0.0,0.0,0.0,0.0,0.0,0.0,0.0,0.0,0.0,0.0,0.0,0.0,2.4254,2.4019,2.3981,2.415,2.4388,2.4506,2.4506,2.4983,2.5236,2.5236,2.5727,2.6082,2.6336,2.6336,2.6471,2.6691,2.6691,2.6691,2.6691,2.6691,2.6691,2.6691,2.6691,2.6691,2.6691,2.6691,2.659,2.647,2.6657,2.647,2.6245,2.6401,2.5783,2.5029,2.548,2.5608,2.5689,2.6138,2.6901,2.7625,2.7625,2.7625,2.7625,2.7625,2.7625,2.7754,2.8457,2.9116,2.9909,3.0986,3.1375,3.1482,3.1482,3.1482,3.1482,3.1482,3.1482,3.1482,3.1482,3.1482,3.1482,3.1482,3.1482,3.1482,3.1482,3.1482,3.1482,3.1482,3.1739,3.1739,3.1539,3.2625,3.2933,3.2201,3.3582,3.4381,3.4559,3.3614,3.3084,3.3,3.2256,3.1664,0.0,0.0,0.0,0.0,0.0,0.0,0.0,0.0,0.0,0.0,0.0,0.0,0.0,0.0,0.0,0.0,0.0,0.0,0.0,0.0,0.0,0.0,0.0,0.0,0.0,0.0,0.0,0.0,0.0,2.3414,2.2746,2.2695,2.289,2.3342,2.4052,2.4455,2.4455,2.4472,2.4472,2.4472,2.4506,2.4864,2.5575,2.5592,2.5998,2.6657,2.6674,2.6691,2.6691,2.6691,2.6691,2.6691,2.6691,2.6691,2.6691,2.6691,2.6401,2.6085,2.6521,2.6052,2.5297,2.5815,2.5259,2.4389,2.443,2.4994,2.5615,2.56,2.6557,2.7625,2.7625,2.7625,2.7625,2.7625,2.7625,2.7754,2.8427,2.9086,2.9744,3.0372,3.1061,3.1482,3.1482,3.1482,3.1482,3.1482,3.1482,3.1482,3.1482,3.1482,3.1482,3.1482,3.1482,3.1482,3.1482,3.1482,3.1482,3.1482,3.2176,3.2272,3.1582,3.3515,3.4284,3.3582,3.4911,3.5233,3.4411,3.3084,3.237,3.2256,3.1529,3.119,2.5303,0.0,0.0,0.0,0.0,0.0,0.0,0.0,0.0,0.0,0.0,0.0,0.0,0.0,0.0,0.0,0.0,0.0,0.0,0.0,0.0,0.0,0.0,0.0,0.0,0.0,0.0,0.0,2.3837,2.3522,2.3093,2.2643,2.249,2.2598,2.2801,2.2919,2.2919,2.3427,2.3697,2.3697,2.4269,2.4625,2.4814,2.5372,2.571,2.593,2.6471,2.6691,2.6691,2.6691,2.6691,2.6691,2.6691,2.6691,2.6691,2.6691,2.6624,2.647,2.6262,2.5997,2.5726,2.5503,2.495,2.4471,2.4871,2.528,2.5693,2.6077,2.6864,2.7625,2.7625,2.7625,2.7625,2.7625,2.7625,2.7619,2.7814,2.8382,2.919,3.0298,3.1061,3.1482,3.1482,3.1482,3.1482,3.1482,3.1482,3.1482,3.1482,3.1482,3.1482,3.1482,3.1482,3.1482,3.1482,3.1482,3.1482,3.1482,3.2176,3.2492,3.2327,3.3786,3.4284,3.3582,3.4911,3.474,3.3006,3.3088,3.2833,3.2256,3.1529,3.119,2.5303,2.5303,2.5303,0.0,0.0,0.0,0.0,2.5303,0.0,0.0,0.0,0.0,0.0,0.0,0.0,0.0,0.0,0.0,0.0,0.0,0.0,0.0,0.0,0.0,0.0,0.0,0.0,0.0,2.4016,2.3692,2.323,2.273,2.2426,2.231,2.231,2.231,2.231,2.2733,2.2936,2.2953,2.3376,2.3731,2.4052,2.4492,2.5033,2.5625,2.6048,2.642,2.6691,2.6691,2.6691,2.6691,2.6691,2.6691,2.6691,2.6691,2.659,2.6367,2.6068,2.5689,2.5297,2.4989,2.4511,2.4116,2.443,2.4839,2.5302,2.5925,2.6831,2.7625,2.7625,2.7625,2.7625,2.7625,2.7625,2.7625,2.7625,2.8113,2.8906,2.9924,3.0657,3.1195,3.1422,3.1482,3.1482,3.1482,3.1482,3.1482,3.1482,3.1482,3.1482,3.1482,3.1482,3.1482,3.1482,3.1796,3.1951,3.1951,3.2879,3.3287,3.3039,3.4284,3.4688,3.4037,3.4751,3.4229,3.2347,3.3068,3.2865,3.1816,3.1393,3.119,2.5303,2.5303,2.5303,0.0,0.0,0.0,2.5303,2.5303,0.0,0.0,0.0,0.0,0.0,0.0,0.0,0.0,0.0,0.0,0.0,0.0,0.0,0.0,0.0,0.0,0.0,0.0,2.419,2.419,2.417,2.3896,2.33,2.2898,2.2599,2.2349,2.231,2.231,2.231,2.231,2.231,2.231,2.231,2.2649,2.3274,2.3359,2.412,2.5372,2.5541,2.5981,2.6573,2.6657,2.6691,2.6691,2.6691,2.6691,2.6691,2.6691,2.6436,2.6068,2.5961,2.5297,2.4471,2.4348,2.3991,2.3595,2.3681,2.4132,2.4777,2.551,2.6617,2.7625,2.7625,2.7625,2.7625,2.7625,2.7625,2.7625,2.7625,2.8053,2.8682,2.934,3.0028,3.0702,3.1315,3.1422,3.1482,3.1482,3.1482,3.1482,3.1482,3.1482,3.1482,3.1482,3.1482,3.1524,3.164,3.2216,3.2641,3.2695,3.3887,3.4333,3.3735,3.4911,3.5316,3.4736,3.4494,3.3677,3.2313,3.2882,3.2476,3.119,3.119,3.119,0.0,0.0,0.0,0.0,0.0,0.0,2.5303,2.5303,0.0,0.0,0.0,0.0,0.0,0.0,0.0,0.0,0.0,0.0,0.0,0.0,0.0,0.0,0.0,0.0,0.0,0.0,2.419,2.419,2.3937,2.3735,2.361,2.3021,2.2686,2.2608,2.2398,2.231,2.231,2.231,2.231,2.231,2.231,2.2395,2.2547,2.3122,2.3562,2.39,2.5084,2.5693,2.5862,2.6454,2.6691,2.6691,2.6691,2.6691,2.6691,2.6691,2.6657,2.6436,2.5635,2.5221,2.4894,2.4032,2.3681,2.3681,2.4116,2.4407,2.4821,2.6063,2.6961,2.7625,2.7625,2.7625,2.7625,2.7625,2.7625,2.7625,2.7625,2.773,2.7979,2.8652,2.9714,3.0552,3.0687,3.1165,3.1482,3.1482,3.1482,3.1482,3.1482,3.1482,3.1482,3.1482,3.1482,3.1739,3.2327,3.2547,3.2841,3.3391,3.4186,3.4528,3.4431,3.5161,3.5532,3.5407,3.4242,3.3169,3.2313,3.185,3.1478,3.119,3.119,3.119,0.0,0.0,0.0,2.5303,0.0,0.0,0.0,2.5303,2.5303,0.0,0.0,0.0,0.0,0.0,0.0,0.0,0.0,0.0,0.0,0.0,0.0,0.0,0.0,0.0,0.0,0.0,2.4132,2.3958,2.3937,2.3795,2.3459,2.3117,2.2855,2.2721,2.2453,2.231,2.231,2.231,2.231,2.231,2.231,2.231,2.2327,2.2682,2.3054,2.346,2.456,2.5253,2.5659,2.6387,2.6691,2.6691,2.6691,2.6691,2.6691,2.6691,2.6691,2.6539,2.5561,2.5221,2.5012,2.3948,2.3595,2.3638,2.3921,2.4519,2.5255,2.5914,2.6811,2.7625,2.7625,2.7625,2.7625,2.7625,2.7625,2.7625,2.7625,2.7625,2.773,2.8023,2.8891,2.9759,3.0387,3.0791,3.1135,3.1422,3.1482,3.1482,3.1482,3.1482,3.1482,3.1482,3.1853,3.2231,3.2586,3.3182,3.3735,3.4087,3.4752,3.5098,3.5098,3.5407,3.5267,3.4539,3.3423,3.2476,3.1732,3.1376,3.119,3.119,3.119,3.119,0.0,0.0,0.0,0.0,0.0,2.5303,0.0,0.0,0.0,2.5303,0.0,0.0,0.0,0.0,0.0,0.0,0.0,0.0,0.0,0.0,0.0,0.0,0.0,0.0,0.0,0.0,2.4094,2.3816,2.3996,2.3896,2.3414,2.3212,2.3021,2.2797,2.2463,2.231,2.231,2.231,2.231,2.231,2.231,2.231,2.231,2.231,2.2632,2.3241,2.4133,2.4831,2.5456,2.6336,2.6691,2.6691,2.6691,2.6691,2.6691,2.6691,2.6657,2.6436,2.5524,2.5128,2.491,2.3921,2.3595,2.3595,2.3595,2.4537,2.5615,2.5615,2.6557,2.7625,2.7625,2.7625,2.7625,2.7625,2.7625,2.7625,2.7625,2.7625,2.7625,2.7625,2.8023,2.8771,2.9939,3.0342,3.0687,3.1255,3.1392,3.1482,3.1482,3.1482,3.1524,3.1697,3.2216,3.2695,3.2933,3.3987,3.4688,3.4783,3.5316,3.5622,3.5622,3.547,3.4709,3.322,3.2594,3.1918,3.119,3.119,3.119,3.119,3.119,3.119,0.0,0.0,0.0,0.0,2.5303,0.0,0.0,0.0,2.5303,2.5303,0.0,2.5303,2.5303,0.0,0.0,0.0,0.0,0.0,0.0,0.0,0.0,0.0,0.0,0.0,0.0,0.0,0.0,2.4151,2.3896,2.3837,2.4074,2.3236,2.2873,2.3141,2.2598,2.231,2.231,2.231,2.231,2.231,2.231,2.231,2.231,2.231,2.2361,2.2513,2.3883,2.4557,2.4743,2.6116,2.6691,2.6691,2.6691,2.6691,2.6691,2.6691,2.6436,2.5997,2.5411,2.491,2.4389,2.3794,2.3595,2.3595,2.3595,2.4537,2.5615,2.5615,2.6557,2.7625,2.7625,2.7625,2.7625,2.7625,2.7625,2.7625,2.7625,2.7625,2.7625,2.7625,2.7634,2.7934,2.8682,2.9759,3.0537,3.0612,3.115,3.1482,3.1482,3.1482,3.1739,3.2382,3.2547,3.3093,3.4284,3.4528,3.483,3.547,3.5577,3.5622,3.5622,3.4979,3.3914,3.2442,3.2324,3.1918,3.119,3.119,3.119,3.119,3.119,3.119,0.0,0.0,0.0,0.0,0.0,0.0,0.0,0.0,2.5303,0.0,0.0,0.0,0.0,0.0,0.0,0.0,0.0,0.0,0.0,0.0,0.0,0.0,0.0,0.0,0.0,0.0,0.0,0.0,0.0,2.3774,2.3896,2.3323,2.3045,2.3189,2.2781,2.2463,2.231,2.231,2.231,2.231,2.231,2.231,2.231,2.231,2.231,2.2395,2.3849,2.4506,2.4625,2.6082,2.6691,2.6691,2.6691,2.6691,2.6691,2.6691,2.659,2.6297,2.5486,2.5051,2.4736,2.3879,2.3595,2.3595,2.3595,2.4537,2.5615,2.5615,2.6557,2.7625,2.7625,2.7625,2.7625,2.7625,2.7625,2.7625,2.7625,2.7625,2.7625,2.7625,2.7625,2.7715,2.7949,2.8786,2.9535,2.9909,3.0223,3.0402,3.0402,3.0402,3.0498,3.0813,3.155,3.2167,3.274,3.3495,3.404,3.4293,3.4726,3.4962,3.4962,3.4252,3.3575,3.2949,3.2087,3.1495,3.119,3.119,3.119,3.119,3.119,3.119,2.5303,0.0,0.0,0.0,0.0,0.0,0.0,0.0,0.0,0.0,0.0,0.0,0.0,0.0,2.5303,0.0,0.0,0.0,0.0,0.0,0.0,0.0,0.0,0.0,0.0,0.0,0.0,0.0,0.0,0.0,2.3692,2.3248,2.2989,2.3069,2.2764,2.25,2.231,2.231,2.231,2.231,2.231,2.231,2.231,2.231,2.231,2.2395,2.3849,2.4506,2.4625,2.6082,2.6691,2.6691,2.6691,2.6691,2.6691,2.6691,2.6539,2.6193,2.5449,2.5012,2.4617,2.3837,2.3595,2.3595,2.3595,2.4537,2.5615,2.5615,2.6557,2.7625,2.7625,2.7625,2.7625,2.7625,2.7625,2.7625,2.7625,2.7625,2.7625,2.7625,2.7625,2.7625,2.7625,2.8143,2.8771,2.9235,2.946,2.9579,2.9579,2.9579,2.9672,2.9872,3.0864,3.1566,3.1772,3.2779,3.3406,3.3406,3.3897,3.41,3.3897,3.3372,3.3,3.2797,3.1749,3.119,3.119,3.119,3.119,3.119,3.119,3.119,0.0,0.0,0.0,2.5303,0.0,0.0,0.0,0.0,2.5303,0.0,0.0,0.0,0.0,2.5303,2.5303,2.5303,0.0,0.0,0.0,0.0,0.0,0.0,0.0,0.0,0.0,0.0,0.0,0.0,0.0,0.0,2.3692,2.2816,2.2453,2.2721,2.2436,2.231,2.231,2.231,2.231,2.231,2.231,2.231,2.231,2.231,2.231,2.2395,2.3849,2.4506,2.4625,2.6082,2.6691,2.6691,2.6691,2.6691,2.6691,2.6691,2.6087,2.5259,2.5221,2.4511,2.3638,2.3595,2.3595,2.3595,2.3595,2.4537,2.5615,2.5615,2.6557,2.7625,2.7625,2.7625,2.7625,2.7625,2.7625,2.7625,2.7625,2.7625,2.7625,2.7625,2.7625,2.7625,2.7625,2.8143,2.8607,2.8622,2.9175,2.9579,2.9579,2.9579,2.9872,3.0525,3.1146,3.1756,3.2406,3.3031,3.3406,3.3406,3.3423,3.3119,3.2374,3.2364,3.1985,3.1275,3.1207,3.119,3.119,3.119,3.119,3.119,3.119,3.119,0.0,0.0,2.5303,2.5303,0.0,0.0,0.0,0.0,0.0,0.0,0.0,0.0,0.0,0.0,2.5303,2.5303,2.5303,2.5274,0.0,0.0,0.0,0.0,0.0,0.0,0.0,0.0,0.0,0.0,0.0,0.0,0.0,2.2865,2.2599,2.2695,2.2625,2.249,2.231,2.231,2.231,2.231,2.231,2.231,2.231,2.231,2.231,2.2395,2.3849,2.4506,2.4625,2.6082,2.6691,2.6691,2.6691,2.6691,2.6691,2.6691,2.647,2.6087,2.5449,2.4511,2.3595,2.3595,2.3595,2.3595,2.3595,2.4537,2.5615,2.5615,2.6557,2.7625,2.7625,2.7625,2.7625,2.7625,2.7625,2.7625,2.7625,2.7625,2.7625,2.7625,2.7625,2.7625,2.7625,2.7769,2.7919,2.7919,2.8113,2.8299,2.8299,2.8299,2.8541,2.9144,2.9738,3.0384,3.0974,3.1616,3.1935,3.1935,3.2391,3.2544,3.229,3.2313,3.2171,3.1918,3.1444,3.119,3.119,3.119,3.119,3.119,3.119,3.119,2.5303,2.5303,0.0,2.5303,2.5303,0.0,2.5303,0.0,0.0,0.0,0.0,0.0,0.0,0.0,2.5184,2.5184,2.5253,2.5274,0.0,2.5088,0.0,0.0,0.0,0.0,0.0,0.0,0.0,0.0,0.0,0.0,0.0,0.0,2.2563,2.2563,2.2563,2.249,2.231,2.231,2.231,2.231,2.231,2.231,2.231,2.231,2.231,2.2395,2.3849,2.4506,2.4625,2.6082,2.6691,2.6691,2.6691,2.6691,2.6691,2.6691,2.647,2.6052,2.5205,2.4348,2.3595,2.3595,2.3595,2.3595,2.3595,2.4537,2.5659,2.5899,2.6737,2.7619,2.7874,2.7754,2.7625,2.7625,2.7625,2.7625,2.7625,2.7625,2.7625,2.7625,2.7625,2.7625,2.7625,2.7625,2.7625,2.7625,2.7625,2.7625,2.7625,2.7625,2.776,2.814,2.8904,2.9717,3.0559,3.0975,3.119,3.119,3.163,3.1901,3.1901,3.1901,3.2019,3.2273,3.1562,3.1326,3.1579,3.1326,3.119,3.119,3.119,3.119]}]]